<?xml version="1.0" encoding="UTF-8" standalone="no" ?>
<gpx xmlns="http://www.topografix.com/GPX/1/1" xmlns:xsi="http://www.w3.org/2001/XMLSchema-instance" xsi:schemaLocation="http://www.topografix.com/GPX/1/1 http://www.topografix.com/GPX/1/1/gpx.xsd" version="1.1" creator="VisuGPX - https://www.visugpx.com">
  <metadata>
    <name>rando Magid MESELLEM 12/05/12</name>
    <desc><![CDATA[Randonnée improvisée.
19KM  affiché sur le GPS.
difficultés: oeil de verre   cheminée du diable. ]]></desc>
  </metadata>
  <trk>
    <name><![CDATA[12/05/2012 7:35]]></name>
    <desc><![CDATA[]]></desc>
    <trkseg>
      <trkpt lat="43.22998" lon="5.437">
        <ele>201.9</ele>
        <time>2012-05-12T05:31:28.077Z</time>
      </trkpt>
      <trkpt lat="43.22993" lon="5.43702">
        <ele>197.2</ele>
        <time>2012-05-12T05:31:33.080Z</time>
      </trkpt>
      <trkpt lat="43.22988" lon="5.43702">
        <ele>197.7</ele>
        <time>2012-05-12T05:31:36.126Z</time>
      </trkpt>
      <trkpt lat="43.22983" lon="5.43707">
        <ele>197.9</ele>
        <time>2012-05-12T05:31:40.077Z</time>
      </trkpt>
      <trkpt lat="43.22978" lon="5.43709">
        <ele>196.9</ele>
        <time>2012-05-12T05:31:42.791Z</time>
      </trkpt>
      <trkpt lat="43.22984" lon="5.43708">
        <ele>191.8</ele>
        <time>2012-05-12T05:31:43.237Z</time>
      </trkpt>
      <trkpt lat="43.22976" lon="5.43702">
        <ele>191</ele>
        <time>2012-05-12T05:31:46.098Z</time>
      </trkpt>
      <trkpt lat="43.22972" lon="5.43707">
        <ele>190</ele>
        <time>2012-05-12T05:31:47.074Z</time>
      </trkpt>
      <trkpt lat="43.22968" lon="5.43705">
        <ele>194.2</ele>
        <time>2012-05-12T05:31:51.077Z</time>
      </trkpt>
      <trkpt lat="43.22962" lon="5.43706">
        <ele>193.9</ele>
        <time>2012-05-12T05:32:07.073Z</time>
      </trkpt>
      <trkpt lat="43.22954" lon="5.43707">
        <ele>196.2</ele>
        <time>2012-05-12T05:32:12.786Z</time>
      </trkpt>
      <trkpt lat="43.2295" lon="5.43707">
        <ele>194.4</ele>
        <time>2012-05-12T05:32:16.088Z</time>
      </trkpt>
      <trkpt lat="43.22944" lon="5.43708">
        <ele>193.1</ele>
        <time>2012-05-12T05:32:20.211Z</time>
      </trkpt>
      <trkpt lat="43.22939" lon="5.43706">
        <ele>194.6</ele>
        <time>2012-05-12T05:32:23.078Z</time>
      </trkpt>
      <trkpt lat="43.22933" lon="5.43706">
        <ele>198.4</ele>
        <time>2012-05-12T05:32:26.093Z</time>
      </trkpt>
      <trkpt lat="43.22929" lon="5.43709">
        <ele>198.1</ele>
        <time>2012-05-12T05:32:30.207Z</time>
      </trkpt>
      <trkpt lat="43.22923" lon="5.4371">
        <ele>196.2</ele>
        <time>2012-05-12T05:32:35.091Z</time>
      </trkpt>
      <trkpt lat="43.22918" lon="5.4371">
        <ele>192.8</ele>
        <time>2012-05-12T05:32:39.083Z</time>
      </trkpt>
      <trkpt lat="43.22913" lon="5.43711">
        <ele>191.5</ele>
        <time>2012-05-12T05:32:44.707Z</time>
      </trkpt>
      <trkpt lat="43.2291" lon="5.43706">
        <ele>190.4</ele>
        <time>2012-05-12T05:32:48.314Z</time>
      </trkpt>
      <trkpt lat="43.22902" lon="5.43709">
        <ele>193.5</ele>
        <time>2012-05-12T05:32:53.089Z</time>
      </trkpt>
      <trkpt lat="43.22897" lon="5.43708">
        <ele>193.1</ele>
        <time>2012-05-12T05:32:55.073Z</time>
      </trkpt>
      <trkpt lat="43.22892" lon="5.43711">
        <ele>193.3</ele>
        <time>2012-05-12T05:32:58.245Z</time>
      </trkpt>
      <trkpt lat="43.22888" lon="5.43715">
        <ele>191.8</ele>
        <time>2012-05-12T05:33:04.203Z</time>
      </trkpt>
      <trkpt lat="43.22882" lon="5.43714">
        <ele>195.5</ele>
        <time>2012-05-12T05:33:06.528Z</time>
      </trkpt>
      <trkpt lat="43.22878" lon="5.43712">
        <ele>197.6</ele>
        <time>2012-05-12T05:33:09.079Z</time>
      </trkpt>
      <trkpt lat="43.22873" lon="5.43712">
        <ele>197.1</ele>
        <time>2012-05-12T05:33:13.227Z</time>
      </trkpt>
      <trkpt lat="43.22868" lon="5.43713">
        <ele>197.9</ele>
        <time>2012-05-12T05:33:16.088Z</time>
      </trkpt>
      <trkpt lat="43.22862" lon="5.43713">
        <ele>198.6</ele>
        <time>2012-05-12T05:33:18.793Z</time>
      </trkpt>
      <trkpt lat="43.22857" lon="5.43714">
        <ele>198.6</ele>
        <time>2012-05-12T05:33:21.083Z</time>
      </trkpt>
      <trkpt lat="43.2285" lon="5.43717">
        <ele>198.8</ele>
        <time>2012-05-12T05:33:25.212Z</time>
      </trkpt>
      <trkpt lat="43.22844" lon="5.43715">
        <ele>199.3</ele>
        <time>2012-05-12T05:33:27.238Z</time>
      </trkpt>
      <trkpt lat="43.22838" lon="5.4372">
        <ele>199</ele>
        <time>2012-05-12T05:33:30.724Z</time>
      </trkpt>
      <trkpt lat="43.22834" lon="5.43722">
        <ele>200.7</ele>
        <time>2012-05-12T05:33:41.078Z</time>
      </trkpt>
      <trkpt lat="43.22828" lon="5.43718">
        <ele>200.8</ele>
        <time>2012-05-12T05:33:45.078Z</time>
      </trkpt>
      <trkpt lat="43.22822" lon="5.43717">
        <ele>200.5</ele>
        <time>2012-05-12T05:33:48.094Z</time>
      </trkpt>
      <trkpt lat="43.22816" lon="5.43721">
        <ele>199.8</ele>
        <time>2012-05-12T05:33:52.074Z</time>
      </trkpt>
      <trkpt lat="43.22812" lon="5.43722">
        <ele>199.3</ele>
        <time>2012-05-12T05:33:55.086Z</time>
      </trkpt>
      <trkpt lat="43.22806" lon="5.43722">
        <ele>199.2</ele>
        <time>2012-05-12T05:34:00.084Z</time>
      </trkpt>
      <trkpt lat="43.22801" lon="5.43723">
        <ele>201.6</ele>
        <time>2012-05-12T05:34:04.079Z</time>
      </trkpt>
      <trkpt lat="43.22795" lon="5.43722">
        <ele>204.3</ele>
        <time>2012-05-12T05:34:08.078Z</time>
      </trkpt>
      <trkpt lat="43.2279" lon="5.43722">
        <ele>201.8</ele>
        <time>2012-05-12T05:34:13.093Z</time>
      </trkpt>
      <trkpt lat="43.22784" lon="5.43721">
        <ele>200.8</ele>
        <time>2012-05-12T05:34:17.246Z</time>
      </trkpt>
      <trkpt lat="43.2278" lon="5.43719">
        <ele>201.1</ele>
        <time>2012-05-12T05:34:21.094Z</time>
      </trkpt>
      <trkpt lat="43.22774" lon="5.43716">
        <ele>203.6</ele>
        <time>2012-05-12T05:34:25.084Z</time>
      </trkpt>
      <trkpt lat="43.2277" lon="5.43722">
        <ele>204.1</ele>
        <time>2012-05-12T05:34:31.079Z</time>
      </trkpt>
      <trkpt lat="43.22764" lon="5.43723">
        <ele>203.6</ele>
        <time>2012-05-12T05:34:36.215Z</time>
      </trkpt>
      <trkpt lat="43.22759" lon="5.43724">
        <ele>204.4</ele>
        <time>2012-05-12T05:34:40.215Z</time>
      </trkpt>
      <trkpt lat="43.22754" lon="5.43725">
        <ele>204.5</ele>
        <time>2012-05-12T05:34:43.215Z</time>
      </trkpt>
      <trkpt lat="43.22749" lon="5.43724">
        <ele>204.7</ele>
        <time>2012-05-12T05:34:46.215Z</time>
      </trkpt>
      <trkpt lat="43.22744" lon="5.43727">
        <ele>207.8</ele>
        <time>2012-05-12T05:34:51.085Z</time>
      </trkpt>
      <trkpt lat="43.22739" lon="5.43731">
        <ele>207.8</ele>
        <time>2012-05-12T05:34:56.089Z</time>
      </trkpt>
      <trkpt lat="43.22732" lon="5.43732">
        <ele>210.4</ele>
        <time>2012-05-12T05:35:01.084Z</time>
      </trkpt>
      <trkpt lat="43.22726" lon="5.43733">
        <ele>210.9</ele>
        <time>2012-05-12T05:35:05.089Z</time>
      </trkpt>
      <trkpt lat="43.22721" lon="5.43733">
        <ele>213.2</ele>
        <time>2012-05-12T05:35:08.076Z</time>
      </trkpt>
      <trkpt lat="43.22716" lon="5.43736">
        <ele>210.8</ele>
        <time>2012-05-12T05:35:12.094Z</time>
      </trkpt>
      <trkpt lat="43.2271" lon="5.43736">
        <ele>212.5</ele>
        <time>2012-05-12T05:35:17.079Z</time>
      </trkpt>
      <trkpt lat="43.22704" lon="5.43737">
        <ele>210.3</ele>
        <time>2012-05-12T05:35:21.098Z</time>
      </trkpt>
      <trkpt lat="43.227" lon="5.4374">
        <ele>211.5</ele>
        <time>2012-05-12T05:35:25.079Z</time>
      </trkpt>
      <trkpt lat="43.22695" lon="5.43742">
        <ele>209.2</ele>
        <time>2012-05-12T05:35:29.085Z</time>
      </trkpt>
      <trkpt lat="43.2269" lon="5.43739">
        <ele>209.3</ele>
        <time>2012-05-12T05:35:32.090Z</time>
      </trkpt>
      <trkpt lat="43.22686" lon="5.43744">
        <ele>210.8</ele>
        <time>2012-05-12T05:35:37.084Z</time>
      </trkpt>
      <trkpt lat="43.22679" lon="5.43746">
        <ele>214.6</ele>
        <time>2012-05-12T05:35:41.090Z</time>
      </trkpt>
      <trkpt lat="43.22674" lon="5.43747">
        <ele>214.5</ele>
        <time>2012-05-12T05:35:44.078Z</time>
      </trkpt>
      <trkpt lat="43.22669" lon="5.43748">
        <ele>217.1</ele>
        <time>2012-05-12T05:35:48.074Z</time>
      </trkpt>
      <trkpt lat="43.22664" lon="5.43747">
        <ele>215.2</ele>
        <time>2012-05-12T05:35:51.073Z</time>
      </trkpt>
      <trkpt lat="43.22658" lon="5.43745">
        <ele>213.8</ele>
        <time>2012-05-12T05:35:56.083Z</time>
      </trkpt>
      <trkpt lat="43.22654" lon="5.43743">
        <ele>215.2</ele>
        <time>2012-05-12T05:35:59.085Z</time>
      </trkpt>
      <trkpt lat="43.22649" lon="5.43742">
        <ele>214.8</ele>
        <time>2012-05-12T05:36:02.082Z</time>
      </trkpt>
      <trkpt lat="43.22645" lon="5.43738">
        <ele>212.1</ele>
        <time>2012-05-12T05:36:10.072Z</time>
      </trkpt>
      <trkpt lat="43.2264" lon="5.43738">
        <ele>213.3</ele>
        <time>2012-05-12T05:36:14.224Z</time>
      </trkpt>
      <trkpt lat="43.22635" lon="5.43737">
        <ele>214.1</ele>
        <time>2012-05-12T05:36:20.077Z</time>
      </trkpt>
      <trkpt lat="43.22631" lon="5.43732">
        <ele>215.6</ele>
        <time>2012-05-12T05:36:24.074Z</time>
      </trkpt>
      <trkpt lat="43.22628" lon="5.43725">
        <ele>216.4</ele>
        <time>2012-05-12T05:36:28.279Z</time>
      </trkpt>
      <trkpt lat="43.2263" lon="5.43718">
        <ele>216.5</ele>
        <time>2012-05-12T05:36:32.279Z</time>
      </trkpt>
      <trkpt lat="43.2263" lon="5.43711">
        <ele>211.7</ele>
        <time>2012-05-12T05:36:35.202Z</time>
      </trkpt>
      <trkpt lat="43.22633" lon="5.43708">
        <ele>211.1</ele>
        <time>2012-05-12T05:36:40.234Z</time>
      </trkpt>
      <trkpt lat="43.22631" lon="5.43699">
        <ele>212.6</ele>
        <time>2012-05-12T05:36:44.793Z</time>
      </trkpt>
      <trkpt lat="43.2263" lon="5.43691">
        <ele>214</ele>
        <time>2012-05-12T05:36:47.793Z</time>
      </trkpt>
      <trkpt lat="43.2263" lon="5.43685">
        <ele>212.8</ele>
        <time>2012-05-12T05:36:50.677Z</time>
      </trkpt>
      <trkpt lat="43.22628" lon="5.43677">
        <ele>212.6</ele>
        <time>2012-05-12T05:37:01.260Z</time>
      </trkpt>
      <trkpt lat="43.22626" lon="5.43672">
        <ele>212.3</ele>
        <time>2012-05-12T05:37:05.276Z</time>
      </trkpt>
      <trkpt lat="43.22623" lon="5.43665">
        <ele>213.6</ele>
        <time>2012-05-12T05:37:07.276Z</time>
      </trkpt>
      <trkpt lat="43.2262" lon="5.4366">
        <ele>212.5</ele>
        <time>2012-05-12T05:37:10.294Z</time>
      </trkpt>
      <trkpt lat="43.22618" lon="5.43652">
        <ele>211.6</ele>
        <time>2012-05-12T05:37:12.070Z</time>
      </trkpt>
      <trkpt lat="43.22615" lon="5.43647">
        <ele>212.2</ele>
        <time>2012-05-12T05:37:14.221Z</time>
      </trkpt>
      <trkpt lat="43.22608" lon="5.43643">
        <ele>211</ele>
        <time>2012-05-12T05:37:16.078Z</time>
      </trkpt>
      <trkpt lat="43.22607" lon="5.43637">
        <ele>214.4</ele>
        <time>2012-05-12T05:37:19.273Z</time>
      </trkpt>
      <trkpt lat="43.22603" lon="5.43633">
        <ele>216.5</ele>
        <time>2012-05-12T05:37:25.077Z</time>
      </trkpt>
      <trkpt lat="43.226" lon="5.43627">
        <ele>218.8</ele>
        <time>2012-05-12T05:37:29.711Z</time>
      </trkpt>
      <trkpt lat="43.22597" lon="5.43621">
        <ele>222</ele>
        <time>2012-05-12T05:37:32.073Z</time>
      </trkpt>
      <trkpt lat="43.22594" lon="5.43615">
        <ele>223</ele>
        <time>2012-05-12T05:37:35.657Z</time>
      </trkpt>
      <trkpt lat="43.2259" lon="5.4361">
        <ele>226.7</ele>
        <time>2012-05-12T05:37:40.093Z</time>
      </trkpt>
      <trkpt lat="43.22586" lon="5.43606">
        <ele>227</ele>
        <time>2012-05-12T05:37:43.076Z</time>
      </trkpt>
      <trkpt lat="43.22583" lon="5.43601">
        <ele>227.6</ele>
        <time>2012-05-12T05:37:46.204Z</time>
      </trkpt>
      <trkpt lat="43.22579" lon="5.43598">
        <ele>226.8</ele>
        <time>2012-05-12T05:37:50.788Z</time>
      </trkpt>
      <trkpt lat="43.22576" lon="5.4359">
        <ele>225.1</ele>
        <time>2012-05-12T05:37:57.078Z</time>
      </trkpt>
      <trkpt lat="43.22573" lon="5.43585">
        <ele>224.6</ele>
        <time>2012-05-12T05:38:00.203Z</time>
      </trkpt>
      <trkpt lat="43.22569" lon="5.4358">
        <ele>225.8</ele>
        <time>2012-05-12T05:38:05.126Z</time>
      </trkpt>
      <trkpt lat="43.22564" lon="5.43579">
        <ele>225.9</ele>
        <time>2012-05-12T05:38:07.818Z</time>
      </trkpt>
      <trkpt lat="43.22564" lon="5.43572">
        <ele>226.3</ele>
        <time>2012-05-12T05:38:12.240Z</time>
      </trkpt>
      <trkpt lat="43.22561" lon="5.43566">
        <ele>228</ele>
        <time>2012-05-12T05:38:15.082Z</time>
      </trkpt>
      <trkpt lat="43.22558" lon="5.43559">
        <ele>228.2</ele>
        <time>2012-05-12T05:38:19.794Z</time>
      </trkpt>
      <trkpt lat="43.22555" lon="5.43553">
        <ele>224.6</ele>
        <time>2012-05-12T05:38:32.159Z</time>
      </trkpt>
      <trkpt lat="43.22551" lon="5.43547">
        <ele>222.5</ele>
        <time>2012-05-12T05:38:34.301Z</time>
      </trkpt>
      <trkpt lat="43.22549" lon="5.43538">
        <ele>219.8</ele>
        <time>2012-05-12T05:38:36.079Z</time>
      </trkpt>
      <trkpt lat="43.22544" lon="5.43539">
        <ele>221.3</ele>
        <time>2012-05-12T05:38:39.073Z</time>
      </trkpt>
      <trkpt lat="43.22542" lon="5.43547">
        <ele>223.2</ele>
        <time>2012-05-12T05:38:45.072Z</time>
      </trkpt>
      <trkpt lat="43.22545" lon="5.43553">
        <ele>220.3</ele>
        <time>2012-05-12T05:38:50.085Z</time>
      </trkpt>
      <trkpt lat="43.22549" lon="5.43553">
        <ele>212.8</ele>
        <time>2012-05-12T05:38:54.391Z</time>
      </trkpt>
      <trkpt lat="43.22553" lon="5.43558">
        <ele>214.1</ele>
        <time>2012-05-12T05:39:00.077Z</time>
      </trkpt>
      <trkpt lat="43.22555" lon="5.43565">
        <ele>215.9</ele>
        <time>2012-05-12T05:39:05.073Z</time>
      </trkpt>
      <trkpt lat="43.22556" lon="5.43571">
        <ele>215.4</ele>
        <time>2012-05-12T05:39:09.233Z</time>
      </trkpt>
      <trkpt lat="43.22557" lon="5.43577">
        <ele>215.7</ele>
        <time>2012-05-12T05:39:11.619Z</time>
      </trkpt>
      <trkpt lat="43.22556" lon="5.43584">
        <ele>216.7</ele>
        <time>2012-05-12T05:39:14.085Z</time>
      </trkpt>
      <trkpt lat="43.22556" lon="5.4359">
        <ele>217.3</ele>
        <time>2012-05-12T05:39:18.073Z</time>
      </trkpt>
      <trkpt lat="43.22556" lon="5.43597">
        <ele>220.5</ele>
        <time>2012-05-12T05:39:21.072Z</time>
      </trkpt>
      <trkpt lat="43.22557" lon="5.43603">
        <ele>220.9</ele>
        <time>2012-05-12T05:39:24.697Z</time>
      </trkpt>
      <trkpt lat="43.22556" lon="5.4361">
        <ele>220.6</ele>
        <time>2012-05-12T05:39:29.300Z</time>
      </trkpt>
      <trkpt lat="43.22553" lon="5.4362">
        <ele>221.8</ele>
        <time>2012-05-12T05:39:32.091Z</time>
      </trkpt>
      <trkpt lat="43.22553" lon="5.43629">
        <ele>224.4</ele>
        <time>2012-05-12T05:39:36.073Z</time>
      </trkpt>
      <trkpt lat="43.22553" lon="5.43635">
        <ele>225.8</ele>
        <time>2012-05-12T05:39:40.074Z</time>
      </trkpt>
      <trkpt lat="43.22551" lon="5.43641">
        <ele>226.4</ele>
        <time>2012-05-12T05:39:43.089Z</time>
      </trkpt>
      <trkpt lat="43.22547" lon="5.43649">
        <ele>227</ele>
        <time>2012-05-12T05:39:49.074Z</time>
      </trkpt>
      <trkpt lat="43.22543" lon="5.43654">
        <ele>228</ele>
        <time>2012-05-12T05:39:52.090Z</time>
      </trkpt>
      <trkpt lat="43.22538" lon="5.43656">
        <ele>228.1</ele>
        <time>2012-05-12T05:39:56.078Z</time>
      </trkpt>
      <trkpt lat="43.22534" lon="5.43659">
        <ele>228.8</ele>
        <time>2012-05-12T05:40:00.078Z</time>
      </trkpt>
      <trkpt lat="43.22527" lon="5.43657">
        <ele>230.5</ele>
        <time>2012-05-12T05:40:04.073Z</time>
      </trkpt>
      <trkpt lat="43.22523" lon="5.43659">
        <ele>232.7</ele>
        <time>2012-05-12T05:40:07.072Z</time>
      </trkpt>
      <trkpt lat="43.22517" lon="5.43662">
        <ele>232.3</ele>
        <time>2012-05-12T05:40:11.079Z</time>
      </trkpt>
      <trkpt lat="43.22514" lon="5.43668">
        <ele>232.7</ele>
        <time>2012-05-12T05:40:14.073Z</time>
      </trkpt>
      <trkpt lat="43.22508" lon="5.43671">
        <ele>233.1</ele>
        <time>2012-05-12T05:40:18.085Z</time>
      </trkpt>
      <trkpt lat="43.22506" lon="5.43677">
        <ele>232.4</ele>
        <time>2012-05-12T05:40:21.080Z</time>
      </trkpt>
      <trkpt lat="43.22501" lon="5.43674">
        <ele>226.8</ele>
        <time>2012-05-12T05:40:26.079Z</time>
      </trkpt>
      <trkpt lat="43.22494" lon="5.43672">
        <ele>226.9</ele>
        <time>2012-05-12T05:40:29.779Z</time>
      </trkpt>
      <trkpt lat="43.22489" lon="5.43676">
        <ele>225.5</ele>
        <time>2012-05-12T05:40:34.092Z</time>
      </trkpt>
      <trkpt lat="43.22484" lon="5.43676">
        <ele>226.6</ele>
        <time>2012-05-12T05:40:37.078Z</time>
      </trkpt>
      <trkpt lat="43.2248" lon="5.43681">
        <ele>224.9</ele>
        <time>2012-05-12T05:40:46.076Z</time>
      </trkpt>
      <trkpt lat="43.22476" lon="5.43685">
        <ele>228.5</ele>
        <time>2012-05-12T05:40:50.084Z</time>
      </trkpt>
      <trkpt lat="43.22471" lon="5.43686">
        <ele>227.4</ele>
        <time>2012-05-12T05:40:53.077Z</time>
      </trkpt>
      <trkpt lat="43.22468" lon="5.43691">
        <ele>230.6</ele>
        <time>2012-05-12T05:40:56.085Z</time>
      </trkpt>
      <trkpt lat="43.22462" lon="5.43695">
        <ele>230.9</ele>
        <time>2012-05-12T05:41:00.074Z</time>
      </trkpt>
      <trkpt lat="43.22458" lon="5.43697">
        <ele>230.4</ele>
        <time>2012-05-12T05:41:03.079Z</time>
      </trkpt>
      <trkpt lat="43.22452" lon="5.437">
        <ele>231.4</ele>
        <time>2012-05-12T05:41:07.079Z</time>
      </trkpt>
      <trkpt lat="43.22444" lon="5.43702">
        <ele>230.8</ele>
        <time>2012-05-12T05:41:11.072Z</time>
      </trkpt>
      <trkpt lat="43.22439" lon="5.43704">
        <ele>229.6</ele>
        <time>2012-05-12T05:41:14.089Z</time>
      </trkpt>
      <trkpt lat="43.22435" lon="5.43706">
        <ele>229.7</ele>
        <time>2012-05-12T05:41:19.090Z</time>
      </trkpt>
      <trkpt lat="43.22432" lon="5.43712">
        <ele>229.6</ele>
        <time>2012-05-12T05:41:23.089Z</time>
      </trkpt>
      <trkpt lat="43.22427" lon="5.43715">
        <ele>231.9</ele>
        <time>2012-05-12T05:41:26.078Z</time>
      </trkpt>
      <trkpt lat="43.22423" lon="5.43721">
        <ele>232.2</ele>
        <time>2012-05-12T05:41:29.687Z</time>
      </trkpt>
      <trkpt lat="43.2242" lon="5.43725">
        <ele>231</ele>
        <time>2012-05-12T05:41:32.797Z</time>
      </trkpt>
      <trkpt lat="43.22415" lon="5.43727">
        <ele>230.2</ele>
        <time>2012-05-12T05:41:35.087Z</time>
      </trkpt>
      <trkpt lat="43.2241" lon="5.43731">
        <ele>229.2</ele>
        <time>2012-05-12T05:41:40.079Z</time>
      </trkpt>
      <trkpt lat="43.22407" lon="5.43735">
        <ele>228.9</ele>
        <time>2012-05-12T05:41:44.160Z</time>
      </trkpt>
      <trkpt lat="43.22402" lon="5.43739">
        <ele>227.9</ele>
        <time>2012-05-12T05:41:47.718Z</time>
      </trkpt>
      <trkpt lat="43.22397" lon="5.43743">
        <ele>228.2</ele>
        <time>2012-05-12T05:41:53.078Z</time>
      </trkpt>
      <trkpt lat="43.22392" lon="5.43744">
        <ele>228.9</ele>
        <time>2012-05-12T05:41:56.089Z</time>
      </trkpt>
      <trkpt lat="43.22387" lon="5.43745">
        <ele>229.4</ele>
        <time>2012-05-12T05:42:00.091Z</time>
      </trkpt>
      <trkpt lat="43.22382" lon="5.43744">
        <ele>230.1</ele>
        <time>2012-05-12T05:42:04.073Z</time>
      </trkpt>
      <trkpt lat="43.22378" lon="5.43747">
        <ele>228.9</ele>
        <time>2012-05-12T05:42:09.078Z</time>
      </trkpt>
      <trkpt lat="43.22373" lon="5.43747">
        <ele>229.2</ele>
        <time>2012-05-12T05:42:11.081Z</time>
      </trkpt>
      <trkpt lat="43.22368" lon="5.43748">
        <ele>228.4</ele>
        <time>2012-05-12T05:42:14.076Z</time>
      </trkpt>
      <trkpt lat="43.22363" lon="5.43749">
        <ele>227.6</ele>
        <time>2012-05-12T05:42:17.077Z</time>
      </trkpt>
      <trkpt lat="43.22358" lon="5.43749">
        <ele>229.5</ele>
        <time>2012-05-12T05:42:20.091Z</time>
      </trkpt>
      <trkpt lat="43.22353" lon="5.43751">
        <ele>231.1</ele>
        <time>2012-05-12T05:42:23.073Z</time>
      </trkpt>
      <trkpt lat="43.2235" lon="5.43758">
        <ele>231.2</ele>
        <time>2012-05-12T05:42:28.236Z</time>
      </trkpt>
      <trkpt lat="43.22352" lon="5.43765">
        <ele>228.7</ele>
        <time>2012-05-12T05:42:32.091Z</time>
      </trkpt>
      <trkpt lat="43.22349" lon="5.43772">
        <ele>226.8</ele>
        <time>2012-05-12T05:42:37.079Z</time>
      </trkpt>
      <trkpt lat="43.22344" lon="5.43777">
        <ele>229.1</ele>
        <time>2012-05-12T05:42:41.085Z</time>
      </trkpt>
      <trkpt lat="43.2234" lon="5.43783">
        <ele>230</ele>
        <time>2012-05-12T05:42:45.085Z</time>
      </trkpt>
      <trkpt lat="43.22337" lon="5.43788">
        <ele>228.8</ele>
        <time>2012-05-12T05:42:49.072Z</time>
      </trkpt>
      <trkpt lat="43.22334" lon="5.43792">
        <ele>229.4</ele>
        <time>2012-05-12T05:42:52.087Z</time>
      </trkpt>
      <trkpt lat="43.22328" lon="5.43794">
        <ele>230</ele>
        <time>2012-05-12T05:42:57.092Z</time>
      </trkpt>
      <trkpt lat="43.22324" lon="5.43799">
        <ele>227.8</ele>
        <time>2012-05-12T05:43:01.087Z</time>
      </trkpt>
      <trkpt lat="43.22319" lon="5.43801">
        <ele>228</ele>
        <time>2012-05-12T05:43:04.086Z</time>
      </trkpt>
      <trkpt lat="43.22316" lon="5.43806">
        <ele>228.7</ele>
        <time>2012-05-12T05:43:07.079Z</time>
      </trkpt>
      <trkpt lat="43.22312" lon="5.43809">
        <ele>228.2</ele>
        <time>2012-05-12T05:43:11.078Z</time>
      </trkpt>
      <trkpt lat="43.22306" lon="5.43812">
        <ele>230.4</ele>
        <time>2012-05-12T05:43:15.081Z</time>
      </trkpt>
      <trkpt lat="43.22301" lon="5.43815">
        <ele>229.9</ele>
        <time>2012-05-12T05:43:20.086Z</time>
      </trkpt>
      <trkpt lat="43.22296" lon="5.43818">
        <ele>230.4</ele>
        <time>2012-05-12T05:43:24.078Z</time>
      </trkpt>
      <trkpt lat="43.22291" lon="5.4382">
        <ele>230.1</ele>
        <time>2012-05-12T05:43:28.284Z</time>
      </trkpt>
      <trkpt lat="43.22286" lon="5.43821">
        <ele>230.6</ele>
        <time>2012-05-12T05:43:31.092Z</time>
      </trkpt>
      <trkpt lat="43.22282" lon="5.43825">
        <ele>231.5</ele>
        <time>2012-05-12T05:43:34.260Z</time>
      </trkpt>
      <trkpt lat="43.22277" lon="5.43825">
        <ele>232</ele>
        <time>2012-05-12T05:43:39.260Z</time>
      </trkpt>
      <trkpt lat="43.22275" lon="5.43833">
        <ele>230.8</ele>
        <time>2012-05-12T05:43:44.072Z</time>
      </trkpt>
      <trkpt lat="43.2227" lon="5.43838">
        <ele>230.2</ele>
        <time>2012-05-12T05:43:48.078Z</time>
      </trkpt>
      <trkpt lat="43.22268" lon="5.43843">
        <ele>231.4</ele>
        <time>2012-05-12T05:43:51.088Z</time>
      </trkpt>
      <trkpt lat="43.22265" lon="5.43848">
        <ele>231.5</ele>
        <time>2012-05-12T05:43:54.092Z</time>
      </trkpt>
      <trkpt lat="43.22262" lon="5.43852">
        <ele>233.6</ele>
        <time>2012-05-12T05:43:57.078Z</time>
      </trkpt>
      <trkpt lat="43.22258" lon="5.43856">
        <ele>233.6</ele>
        <time>2012-05-12T05:44:03.088Z</time>
      </trkpt>
      <trkpt lat="43.22254" lon="5.43863">
        <ele>233.3</ele>
        <time>2012-05-12T05:44:07.074Z</time>
      </trkpt>
      <trkpt lat="43.22251" lon="5.4387">
        <ele>231.9</ele>
        <time>2012-05-12T05:44:12.071Z</time>
      </trkpt>
      <trkpt lat="43.22247" lon="5.43873">
        <ele>231.2</ele>
        <time>2012-05-12T05:44:17.072Z</time>
      </trkpt>
      <trkpt lat="43.22242" lon="5.43876">
        <ele>230.6</ele>
        <time>2012-05-12T05:44:19.094Z</time>
      </trkpt>
      <trkpt lat="43.22239" lon="5.43884">
        <ele>229.4</ele>
        <time>2012-05-12T05:44:24.791Z</time>
      </trkpt>
      <trkpt lat="43.22235" lon="5.4389">
        <ele>229.8</ele>
        <time>2012-05-12T05:44:28.272Z</time>
      </trkpt>
      <trkpt lat="43.22235" lon="5.43883">
        <ele>228.2</ele>
        <time>2012-05-12T05:44:30.777Z</time>
      </trkpt>
      <trkpt lat="43.22231" lon="5.4389">
        <ele>229.6</ele>
        <time>2012-05-12T05:44:33.098Z</time>
      </trkpt>
      <trkpt lat="43.22226" lon="5.43894">
        <ele>227.8</ele>
        <time>2012-05-12T05:44:35.090Z</time>
      </trkpt>
      <trkpt lat="43.22222" lon="5.43898">
        <ele>228.6</ele>
        <time>2012-05-12T05:44:42.092Z</time>
      </trkpt>
      <trkpt lat="43.22217" lon="5.43901">
        <ele>228.4</ele>
        <time>2012-05-12T05:44:45.080Z</time>
      </trkpt>
      <trkpt lat="43.22212" lon="5.43905">
        <ele>230.9</ele>
        <time>2012-05-12T05:44:49.089Z</time>
      </trkpt>
      <trkpt lat="43.22207" lon="5.43907">
        <ele>232.2</ele>
        <time>2012-05-12T05:44:53.079Z</time>
      </trkpt>
      <trkpt lat="43.22202" lon="5.4391">
        <ele>233.3</ele>
        <time>2012-05-12T05:44:56.091Z</time>
      </trkpt>
      <trkpt lat="43.22198" lon="5.43912">
        <ele>232.5</ele>
        <time>2012-05-12T05:44:58.088Z</time>
      </trkpt>
      <trkpt lat="43.22192" lon="5.4391">
        <ele>231.9</ele>
        <time>2012-05-12T05:45:04.080Z</time>
      </trkpt>
      <trkpt lat="43.22187" lon="5.43911">
        <ele>233.2</ele>
        <time>2012-05-12T05:45:08.090Z</time>
      </trkpt>
      <trkpt lat="43.22181" lon="5.43914">
        <ele>234.9</ele>
        <time>2012-05-12T05:45:11.077Z</time>
      </trkpt>
      <trkpt lat="43.22176" lon="5.43915">
        <ele>232.8</ele>
        <time>2012-05-12T05:45:15.077Z</time>
      </trkpt>
      <trkpt lat="43.2217" lon="5.43917">
        <ele>230.2</ele>
        <time>2012-05-12T05:45:20.072Z</time>
      </trkpt>
      <trkpt lat="43.22164" lon="5.43916">
        <ele>229.3</ele>
        <time>2012-05-12T05:45:24.077Z</time>
      </trkpt>
      <trkpt lat="43.22157" lon="5.43916">
        <ele>229.1</ele>
        <time>2012-05-12T05:45:28.274Z</time>
      </trkpt>
      <trkpt lat="43.22154" lon="5.43911">
        <ele>228.8</ele>
        <time>2012-05-12T05:45:31.071Z</time>
      </trkpt>
      <trkpt lat="43.22149" lon="5.43906">
        <ele>227.7</ele>
        <time>2012-05-12T05:45:34.078Z</time>
      </trkpt>
      <trkpt lat="43.22148" lon="5.439">
        <ele>225.4</ele>
        <time>2012-05-12T05:45:39.089Z</time>
      </trkpt>
      <trkpt lat="43.22149" lon="5.43893">
        <ele>225</ele>
        <time>2012-05-12T05:45:43.796Z</time>
      </trkpt>
      <trkpt lat="43.22145" lon="5.43888">
        <ele>224.3</ele>
        <time>2012-05-12T05:45:46.073Z</time>
      </trkpt>
      <trkpt lat="43.2214" lon="5.43887">
        <ele>225.3</ele>
        <time>2012-05-12T05:45:50.092Z</time>
      </trkpt>
      <trkpt lat="43.22139" lon="5.43894">
        <ele>228.2</ele>
        <time>2012-05-12T05:45:55.071Z</time>
      </trkpt>
      <trkpt lat="43.22138" lon="5.439">
        <ele>228.3</ele>
        <time>2012-05-12T05:45:58.091Z</time>
      </trkpt>
      <trkpt lat="43.22135" lon="5.43905">
        <ele>228.8</ele>
        <time>2012-05-12T05:46:01.073Z</time>
      </trkpt>
      <trkpt lat="43.22132" lon="5.43912">
        <ele>229.6</ele>
        <time>2012-05-12T05:46:04.091Z</time>
      </trkpt>
      <trkpt lat="43.2213" lon="5.43919">
        <ele>230.2</ele>
        <time>2012-05-12T05:46:08.084Z</time>
      </trkpt>
      <trkpt lat="43.22125" lon="5.43922">
        <ele>230.6</ele>
        <time>2012-05-12T05:46:13.091Z</time>
      </trkpt>
      <trkpt lat="43.22122" lon="5.43928">
        <ele>232.8</ele>
        <time>2012-05-12T05:46:17.072Z</time>
      </trkpt>
      <trkpt lat="43.22118" lon="5.43934">
        <ele>231.6</ele>
        <time>2012-05-12T05:46:22.092Z</time>
      </trkpt>
      <trkpt lat="43.22115" lon="5.4394">
        <ele>231.3</ele>
        <time>2012-05-12T05:46:25.091Z</time>
      </trkpt>
      <trkpt lat="43.22112" lon="5.43945">
        <ele>230</ele>
        <time>2012-05-12T05:46:28.259Z</time>
      </trkpt>
      <trkpt lat="43.2211" lon="5.43952">
        <ele>229.3</ele>
        <time>2012-05-12T05:46:32.079Z</time>
      </trkpt>
      <trkpt lat="43.22105" lon="5.43954">
        <ele>229.9</ele>
        <time>2012-05-12T05:46:38.085Z</time>
      </trkpt>
      <trkpt lat="43.22103" lon="5.4396">
        <ele>231.7</ele>
        <time>2012-05-12T05:46:41.083Z</time>
      </trkpt>
      <trkpt lat="43.221" lon="5.43966">
        <ele>231</ele>
        <time>2012-05-12T05:46:45.092Z</time>
      </trkpt>
      <trkpt lat="43.22098" lon="5.43972">
        <ele>230.9</ele>
        <time>2012-05-12T05:46:49.091Z</time>
      </trkpt>
      <trkpt lat="43.22096" lon="5.43979">
        <ele>230.9</ele>
        <time>2012-05-12T05:46:54.092Z</time>
      </trkpt>
      <trkpt lat="43.22093" lon="5.43985">
        <ele>231.7</ele>
        <time>2012-05-12T05:46:58.088Z</time>
      </trkpt>
      <trkpt lat="43.22092" lon="5.43991">
        <ele>230.7</ele>
        <time>2012-05-12T05:47:03.234Z</time>
      </trkpt>
      <trkpt lat="43.22088" lon="5.43997">
        <ele>231.9</ele>
        <time>2012-05-12T05:47:06.234Z</time>
      </trkpt>
      <trkpt lat="43.22085" lon="5.44004">
        <ele>231.8</ele>
        <time>2012-05-12T05:47:10.234Z</time>
      </trkpt>
      <trkpt lat="43.22082" lon="5.44008">
        <ele>230.9</ele>
        <time>2012-05-12T05:47:14.234Z</time>
      </trkpt>
      <trkpt lat="43.2208" lon="5.44014">
        <ele>229</ele>
        <time>2012-05-12T05:47:18.096Z</time>
      </trkpt>
      <trkpt lat="43.22076" lon="5.44021">
        <ele>227.7</ele>
        <time>2012-05-12T05:47:22.091Z</time>
      </trkpt>
      <trkpt lat="43.22073" lon="5.44026">
        <ele>228.3</ele>
        <time>2012-05-12T05:47:26.080Z</time>
      </trkpt>
      <trkpt lat="43.2207" lon="5.44033">
        <ele>228.3</ele>
        <time>2012-05-12T05:47:31.087Z</time>
      </trkpt>
      <trkpt lat="43.22068" lon="5.44039">
        <ele>228.4</ele>
        <time>2012-05-12T05:47:35.074Z</time>
      </trkpt>
      <trkpt lat="43.22063" lon="5.44043">
        <ele>229.9</ele>
        <time>2012-05-12T05:47:41.079Z</time>
      </trkpt>
      <trkpt lat="43.2206" lon="5.44047">
        <ele>231.7</ele>
        <time>2012-05-12T05:47:45.089Z</time>
      </trkpt>
      <trkpt lat="43.22058" lon="5.44055">
        <ele>230</ele>
        <time>2012-05-12T05:47:57.092Z</time>
      </trkpt>
      <trkpt lat="43.22056" lon="5.44062">
        <ele>228.4</ele>
        <time>2012-05-12T05:48:02.087Z</time>
      </trkpt>
      <trkpt lat="43.22051" lon="5.44062">
        <ele>229.2</ele>
        <time>2012-05-12T05:48:06.390Z</time>
      </trkpt>
      <trkpt lat="43.22054" lon="5.4407">
        <ele>227.7</ele>
        <time>2012-05-12T05:48:16.072Z</time>
      </trkpt>
      <trkpt lat="43.22054" lon="5.44082">
        <ele>228.9</ele>
        <time>2012-05-12T05:48:18.091Z</time>
      </trkpt>
      <trkpt lat="43.22052" lon="5.4409">
        <ele>226.7</ele>
        <time>2012-05-12T05:48:21.087Z</time>
      </trkpt>
      <trkpt lat="43.22048" lon="5.44096">
        <ele>226.5</ele>
        <time>2012-05-12T05:48:23.089Z</time>
      </trkpt>
      <trkpt lat="43.22042" lon="5.44099">
        <ele>228.8</ele>
        <time>2012-05-12T05:48:29.785Z</time>
      </trkpt>
      <trkpt lat="43.2204" lon="5.44093">
        <ele>228.9</ele>
        <time>2012-05-12T05:48:32.080Z</time>
      </trkpt>
      <trkpt lat="43.22036" lon="5.44094">
        <ele>230.9</ele>
        <time>2012-05-12T05:48:36.085Z</time>
      </trkpt>
      <trkpt lat="43.22031" lon="5.44095">
        <ele>230.2</ele>
        <time>2012-05-12T05:48:39.093Z</time>
      </trkpt>
      <trkpt lat="43.22025" lon="5.44094">
        <ele>229.9</ele>
        <time>2012-05-12T05:48:41.092Z</time>
      </trkpt>
      <trkpt lat="43.2202" lon="5.44091">
        <ele>231.8</ele>
        <time>2012-05-12T05:48:47.085Z</time>
      </trkpt>
      <trkpt lat="43.22015" lon="5.44088">
        <ele>233.1</ele>
        <time>2012-05-12T05:48:51.074Z</time>
      </trkpt>
      <trkpt lat="43.22011" lon="5.44088">
        <ele>233.3</ele>
        <time>2012-05-12T05:48:55.075Z</time>
      </trkpt>
      <trkpt lat="43.2201" lon="5.44095">
        <ele>233.3</ele>
        <time>2012-05-12T05:49:02.089Z</time>
      </trkpt>
      <trkpt lat="43.22007" lon="5.44099">
        <ele>232.4</ele>
        <time>2012-05-12T05:49:07.089Z</time>
      </trkpt>
      <trkpt lat="43.22002" lon="5.44099">
        <ele>232</ele>
        <time>2012-05-12T05:49:13.079Z</time>
      </trkpt>
      <trkpt lat="43.21997" lon="5.44105">
        <ele>232</ele>
        <time>2012-05-12T05:49:16.093Z</time>
      </trkpt>
      <trkpt lat="43.21992" lon="5.44105">
        <ele>232.3</ele>
        <time>2012-05-12T05:49:20.089Z</time>
      </trkpt>
      <trkpt lat="43.21988" lon="5.44109">
        <ele>232</ele>
        <time>2012-05-12T05:49:23.073Z</time>
      </trkpt>
      <trkpt lat="43.21987" lon="5.44118">
        <ele>231.1</ele>
        <time>2012-05-12T05:49:28.665Z</time>
      </trkpt>
      <trkpt lat="43.21982" lon="5.44123">
        <ele>234.5</ele>
        <time>2012-05-12T05:49:35.071Z</time>
      </trkpt>
      <trkpt lat="43.21978" lon="5.44128">
        <ele>231.8</ele>
        <time>2012-05-12T05:49:39.086Z</time>
      </trkpt>
      <trkpt lat="43.21976" lon="5.44133">
        <ele>232</ele>
        <time>2012-05-12T05:49:42.092Z</time>
      </trkpt>
      <trkpt lat="43.21971" lon="5.44136">
        <ele>232.6</ele>
        <time>2012-05-12T05:49:47.093Z</time>
      </trkpt>
      <trkpt lat="43.21968" lon="5.44141">
        <ele>233.2</ele>
        <time>2012-05-12T05:49:52.088Z</time>
      </trkpt>
      <trkpt lat="43.21965" lon="5.44146">
        <ele>232.9</ele>
        <time>2012-05-12T05:49:55.093Z</time>
      </trkpt>
      <trkpt lat="43.21961" lon="5.44151">
        <ele>233.6</ele>
        <time>2012-05-12T05:49:58.106Z</time>
      </trkpt>
      <trkpt lat="43.21956" lon="5.44154">
        <ele>232.7</ele>
        <time>2012-05-12T05:50:01.092Z</time>
      </trkpt>
      <trkpt lat="43.21952" lon="5.44158">
        <ele>226.9</ele>
        <time>2012-05-12T05:50:08.081Z</time>
      </trkpt>
      <trkpt lat="43.21948" lon="5.44163">
        <ele>223.8</ele>
        <time>2012-05-12T05:50:12.080Z</time>
      </trkpt>
      <trkpt lat="43.21944" lon="5.44169">
        <ele>224.5</ele>
        <time>2012-05-12T05:50:16.088Z</time>
      </trkpt>
      <trkpt lat="43.2194" lon="5.44178">
        <ele>221.9</ele>
        <time>2012-05-12T05:50:21.081Z</time>
      </trkpt>
      <trkpt lat="43.21936" lon="5.44181">
        <ele>219.5</ele>
        <time>2012-05-12T05:50:26.081Z</time>
      </trkpt>
      <trkpt lat="43.21929" lon="5.4418">
        <ele>220.4</ele>
        <time>2012-05-12T05:50:29.745Z</time>
      </trkpt>
      <trkpt lat="43.21924" lon="5.44184">
        <ele>217.5</ele>
        <time>2012-05-12T05:50:34.073Z</time>
      </trkpt>
      <trkpt lat="43.21919" lon="5.44187">
        <ele>217.9</ele>
        <time>2012-05-12T05:50:39.072Z</time>
      </trkpt>
      <trkpt lat="43.21914" lon="5.4419">
        <ele>221.8</ele>
        <time>2012-05-12T05:50:44.078Z</time>
      </trkpt>
      <trkpt lat="43.21909" lon="5.44194">
        <ele>221.5</ele>
        <time>2012-05-12T05:50:50.078Z</time>
      </trkpt>
      <trkpt lat="43.21902" lon="5.44196">
        <ele>222.1</ele>
        <time>2012-05-12T05:50:59.074Z</time>
      </trkpt>
      <trkpt lat="43.21897" lon="5.44198">
        <ele>222.1</ele>
        <time>2012-05-12T05:51:02.237Z</time>
      </trkpt>
      <trkpt lat="43.21893" lon="5.44198">
        <ele>224.1</ele>
        <time>2012-05-12T05:51:05.088Z</time>
      </trkpt>
      <trkpt lat="43.21886" lon="5.44199">
        <ele>226.5</ele>
        <time>2012-05-12T05:51:11.077Z</time>
      </trkpt>
      <trkpt lat="43.21882" lon="5.44193">
        <ele>225.2</ele>
        <time>2012-05-12T05:51:16.071Z</time>
      </trkpt>
      <trkpt lat="43.21881" lon="5.44186">
        <ele>221</ele>
        <time>2012-05-12T05:51:20.209Z</time>
      </trkpt>
      <trkpt lat="43.2188" lon="5.44178">
        <ele>220.2</ele>
        <time>2012-05-12T05:51:24.237Z</time>
      </trkpt>
      <trkpt lat="43.21879" lon="5.4417">
        <ele>221.5</ele>
        <time>2012-05-12T05:51:29.262Z</time>
      </trkpt>
      <trkpt lat="43.21875" lon="5.44161">
        <ele>214.6</ele>
        <time>2012-05-12T05:51:30.685Z</time>
      </trkpt>
      <trkpt lat="43.21875" lon="5.44154">
        <ele>218.5</ele>
        <time>2012-05-12T05:51:42.093Z</time>
      </trkpt>
      <trkpt lat="43.21874" lon="5.44147">
        <ele>216.9</ele>
        <time>2012-05-12T05:51:50.087Z</time>
      </trkpt>
      <trkpt lat="43.21872" lon="5.44139">
        <ele>216.8</ele>
        <time>2012-05-12T05:51:54.077Z</time>
      </trkpt>
      <trkpt lat="43.21867" lon="5.44137">
        <ele>216.6</ele>
        <time>2012-05-12T05:51:58.077Z</time>
      </trkpt>
      <trkpt lat="43.21864" lon="5.44132">
        <ele>215.3</ele>
        <time>2012-05-12T05:52:01.084Z</time>
      </trkpt>
      <trkpt lat="43.21859" lon="5.44128">
        <ele>214.4</ele>
        <time>2012-05-12T05:52:06.079Z</time>
      </trkpt>
      <trkpt lat="43.21854" lon="5.44129">
        <ele>213.7</ele>
        <time>2012-05-12T05:52:10.084Z</time>
      </trkpt>
      <trkpt lat="43.21849" lon="5.4413">
        <ele>213.2</ele>
        <time>2012-05-12T05:52:14.084Z</time>
      </trkpt>
      <trkpt lat="43.21844" lon="5.44134">
        <ele>212.7</ele>
        <time>2012-05-12T05:52:18.090Z</time>
      </trkpt>
      <trkpt lat="43.21842" lon="5.4414">
        <ele>212.8</ele>
        <time>2012-05-12T05:52:23.085Z</time>
      </trkpt>
      <trkpt lat="43.21838" lon="5.44148">
        <ele>214</ele>
        <time>2012-05-12T05:52:29.226Z</time>
      </trkpt>
      <trkpt lat="43.21821" lon="5.44138">
        <ele>209.6</ele>
        <time>2012-05-12T05:53:05.546Z</time>
      </trkpt>
      <trkpt lat="43.21825" lon="5.44145">
        <ele>211.3</ele>
        <time>2012-05-12T05:53:08.090Z</time>
      </trkpt>
      <trkpt lat="43.21827" lon="5.44152">
        <ele>212</ele>
        <time>2012-05-12T05:53:10.742Z</time>
      </trkpt>
      <trkpt lat="43.21822" lon="5.44152">
        <ele>211.5</ele>
        <time>2012-05-12T05:53:12.085Z</time>
      </trkpt>
      <trkpt lat="43.21818" lon="5.44158">
        <ele>209.6</ele>
        <time>2012-05-12T05:53:15.085Z</time>
      </trkpt>
      <trkpt lat="43.21814" lon="5.44155">
        <ele>205.7</ele>
        <time>2012-05-12T05:53:19.087Z</time>
      </trkpt>
      <trkpt lat="43.21806" lon="5.44155">
        <ele>203.5</ele>
        <time>2012-05-12T05:53:28.237Z</time>
      </trkpt>
      <trkpt lat="43.21802" lon="5.44149">
        <ele>201</ele>
        <time>2012-05-12T05:53:33.077Z</time>
      </trkpt>
      <trkpt lat="43.21798" lon="5.44147">
        <ele>199.4</ele>
        <time>2012-05-12T05:53:36.080Z</time>
      </trkpt>
      <trkpt lat="43.21793" lon="5.44145">
        <ele>194.1</ele>
        <time>2012-05-12T05:53:41.079Z</time>
      </trkpt>
      <trkpt lat="43.21791" lon="5.44137">
        <ele>197.4</ele>
        <time>2012-05-12T05:53:45.138Z</time>
      </trkpt>
      <trkpt lat="43.21788" lon="5.44132">
        <ele>198.8</ele>
        <time>2012-05-12T05:53:47.094Z</time>
      </trkpt>
      <trkpt lat="43.21787" lon="5.44124">
        <ele>201.6</ele>
        <time>2012-05-12T05:53:51.088Z</time>
      </trkpt>
      <trkpt lat="43.21784" lon="5.44118">
        <ele>202.1</ele>
        <time>2012-05-12T05:53:55.072Z</time>
      </trkpt>
      <trkpt lat="43.2178" lon="5.44111">
        <ele>203.8</ele>
        <time>2012-05-12T05:53:59.077Z</time>
      </trkpt>
      <trkpt lat="43.21776" lon="5.44107">
        <ele>202.1</ele>
        <time>2012-05-12T05:54:05.073Z</time>
      </trkpt>
      <trkpt lat="43.21773" lon="5.44102">
        <ele>199.3</ele>
        <time>2012-05-12T05:54:09.086Z</time>
      </trkpt>
      <trkpt lat="43.21768" lon="5.44098">
        <ele>198.2</ele>
        <time>2012-05-12T05:54:14.788Z</time>
      </trkpt>
      <trkpt lat="43.21763" lon="5.44098">
        <ele>197.4</ele>
        <time>2012-05-12T05:54:19.073Z</time>
      </trkpt>
      <trkpt lat="43.21758" lon="5.44097">
        <ele>197.4</ele>
        <time>2012-05-12T05:54:23.086Z</time>
      </trkpt>
      <trkpt lat="43.21753" lon="5.44095">
        <ele>197.5</ele>
        <time>2012-05-12T05:54:25.072Z</time>
      </trkpt>
      <trkpt lat="43.21748" lon="5.44093">
        <ele>195.3</ele>
        <time>2012-05-12T05:54:28.249Z</time>
      </trkpt>
      <trkpt lat="43.21743" lon="5.44092">
        <ele>195.8</ele>
        <time>2012-05-12T05:54:32.067Z</time>
      </trkpt>
      <trkpt lat="43.21739" lon="5.44096">
        <ele>195.7</ele>
        <time>2012-05-12T05:54:36.091Z</time>
      </trkpt>
      <trkpt lat="43.21734" lon="5.44096">
        <ele>197.6</ele>
        <time>2012-05-12T05:54:39.088Z</time>
      </trkpt>
      <trkpt lat="43.2173" lon="5.441">
        <ele>196.6</ele>
        <time>2012-05-12T05:54:42.078Z</time>
      </trkpt>
      <trkpt lat="43.21725" lon="5.44104">
        <ele>197.4</ele>
        <time>2012-05-12T05:54:47.078Z</time>
      </trkpt>
      <trkpt lat="43.2172" lon="5.44109">
        <ele>195.9</ele>
        <time>2012-05-12T05:54:53.072Z</time>
      </trkpt>
      <trkpt lat="43.21717" lon="5.44116">
        <ele>196.6</ele>
        <time>2012-05-12T05:54:58.081Z</time>
      </trkpt>
      <trkpt lat="43.21711" lon="5.44115">
        <ele>198.3</ele>
        <time>2012-05-12T05:55:02.089Z</time>
      </trkpt>
      <trkpt lat="43.21706" lon="5.44112">
        <ele>199.3</ele>
        <time>2012-05-12T05:55:09.082Z</time>
      </trkpt>
      <trkpt lat="43.21703" lon="5.44108">
        <ele>195.4</ele>
        <time>2012-05-12T05:55:13.292Z</time>
      </trkpt>
      <trkpt lat="43.21699" lon="5.44103">
        <ele>196.8</ele>
        <time>2012-05-12T05:55:16.073Z</time>
      </trkpt>
      <trkpt lat="43.21694" lon="5.441">
        <ele>197.6</ele>
        <time>2012-05-12T05:55:19.317Z</time>
      </trkpt>
      <trkpt lat="43.2169" lon="5.44094">
        <ele>198.8</ele>
        <time>2012-05-12T05:55:25.071Z</time>
      </trkpt>
      <trkpt lat="43.21684" lon="5.44085">
        <ele>197.8</ele>
        <time>2012-05-12T05:55:30.705Z</time>
      </trkpt>
      <trkpt lat="43.21683" lon="5.44079">
        <ele>197.1</ele>
        <time>2012-05-12T05:55:36.077Z</time>
      </trkpt>
      <trkpt lat="43.21679" lon="5.44074">
        <ele>199.6</ele>
        <time>2012-05-12T05:55:39.086Z</time>
      </trkpt>
      <trkpt lat="43.21673" lon="5.44076">
        <ele>195.6</ele>
        <time>2012-05-12T05:55:44.787Z</time>
      </trkpt>
      <trkpt lat="43.21666" lon="5.44073">
        <ele>195.1</ele>
        <time>2012-05-12T05:55:48.093Z</time>
      </trkpt>
      <trkpt lat="43.21662" lon="5.44068">
        <ele>196.1</ele>
        <time>2012-05-12T05:55:51.089Z</time>
      </trkpt>
      <trkpt lat="43.21657" lon="5.44064">
        <ele>197.4</ele>
        <time>2012-05-12T05:55:53.092Z</time>
      </trkpt>
      <trkpt lat="43.21653" lon="5.44062">
        <ele>196.3</ele>
        <time>2012-05-12T05:55:58.093Z</time>
      </trkpt>
      <trkpt lat="43.21654" lon="5.44054">
        <ele>196.1</ele>
        <time>2012-05-12T05:56:02.813Z</time>
      </trkpt>
      <trkpt lat="43.21648" lon="5.44054">
        <ele>196.4</ele>
        <time>2012-05-12T05:56:07.213Z</time>
      </trkpt>
      <trkpt lat="43.21642" lon="5.44057">
        <ele>196.4</ele>
        <time>2012-05-12T05:56:12.071Z</time>
      </trkpt>
      <trkpt lat="43.21637" lon="5.44056">
        <ele>197.4</ele>
        <time>2012-05-12T05:56:15.078Z</time>
      </trkpt>
      <trkpt lat="43.2163" lon="5.44058">
        <ele>194.8</ele>
        <time>2012-05-12T05:56:20.088Z</time>
      </trkpt>
      <trkpt lat="43.21627" lon="5.44066">
        <ele>197.1</ele>
        <time>2012-05-12T05:56:28.261Z</time>
      </trkpt>
      <trkpt lat="43.21624" lon="5.44071">
        <ele>191.5</ele>
        <time>2012-05-12T05:56:34.088Z</time>
      </trkpt>
      <trkpt lat="43.21618" lon="5.44075">
        <ele>191.4</ele>
        <time>2012-05-12T05:56:39.078Z</time>
      </trkpt>
      <trkpt lat="43.21616" lon="5.44082">
        <ele>190.3</ele>
        <time>2012-05-12T05:56:44.086Z</time>
      </trkpt>
      <trkpt lat="43.21613" lon="5.44087">
        <ele>188.2</ele>
        <time>2012-05-12T05:56:52.090Z</time>
      </trkpt>
      <trkpt lat="43.21611" lon="5.44094">
        <ele>186.3</ele>
        <time>2012-05-12T05:57:03.793Z</time>
      </trkpt>
      <trkpt lat="43.21609" lon="5.441">
        <ele>185.7</ele>
        <time>2012-05-12T05:57:05.236Z</time>
      </trkpt>
      <trkpt lat="43.21606" lon="5.44107">
        <ele>185.2</ele>
        <time>2012-05-12T05:57:07.073Z</time>
      </trkpt>
      <trkpt lat="43.21608" lon="5.44114">
        <ele>186.2</ele>
        <time>2012-05-12T05:57:11.093Z</time>
      </trkpt>
      <trkpt lat="43.21602" lon="5.44118">
        <ele>186.5</ele>
        <time>2012-05-12T05:57:14.075Z</time>
      </trkpt>
      <trkpt lat="43.21604" lon="5.44124">
        <ele>186</ele>
        <time>2012-05-12T05:57:17.091Z</time>
      </trkpt>
      <trkpt lat="43.21602" lon="5.44132">
        <ele>186.8</ele>
        <time>2012-05-12T05:57:19.089Z</time>
      </trkpt>
      <trkpt lat="43.21605" lon="5.44139">
        <ele>184.7</ele>
        <time>2012-05-12T05:57:29.258Z</time>
      </trkpt>
      <trkpt lat="43.21604" lon="5.44146">
        <ele>184.1</ele>
        <time>2012-05-12T05:57:33.085Z</time>
      </trkpt>
      <trkpt lat="43.21602" lon="5.44152">
        <ele>185</ele>
        <time>2012-05-12T05:57:36.077Z</time>
      </trkpt>
      <trkpt lat="43.21598" lon="5.44155">
        <ele>183.1</ele>
        <time>2012-05-12T05:57:46.273Z</time>
      </trkpt>
      <trkpt lat="43.21598" lon="5.44155">
        <ele>183.1</ele>
        <time>2012-05-12T05:57:46.273Z</time>
      </trkpt>
      <trkpt lat="43.21598" lon="5.44155">
        <ele>183.1</ele>
        <time>2012-05-12T05:57:47.085Z</time>
      </trkpt>
      <trkpt lat="43.21595" lon="5.4416">
        <ele>179.3</ele>
        <time>2012-05-12T05:57:54.073Z</time>
      </trkpt>
      <trkpt lat="43.21591" lon="5.44165">
        <ele>177.1</ele>
        <time>2012-05-12T05:57:57.073Z</time>
      </trkpt>
      <trkpt lat="43.21586" lon="5.44173">
        <ele>175.7</ele>
        <time>2012-05-12T05:58:00.085Z</time>
      </trkpt>
      <trkpt lat="43.21579" lon="5.44174">
        <ele>176.4</ele>
        <time>2012-05-12T05:58:04.082Z</time>
      </trkpt>
      <trkpt lat="43.21576" lon="5.4418">
        <ele>174.5</ele>
        <time>2012-05-12T05:58:07.090Z</time>
      </trkpt>
      <trkpt lat="43.21576" lon="5.44186">
        <ele>170.8</ele>
        <time>2012-05-12T05:58:14.093Z</time>
      </trkpt>
      <trkpt lat="43.2157" lon="5.44189">
        <ele>172.4</ele>
        <time>2012-05-12T05:58:17.079Z</time>
      </trkpt>
      <trkpt lat="43.21565" lon="5.4419">
        <ele>171.5</ele>
        <time>2012-05-12T05:58:21.074Z</time>
      </trkpt>
      <trkpt lat="43.21561" lon="5.44195">
        <ele>170.9</ele>
        <time>2012-05-12T05:58:24.086Z</time>
      </trkpt>
      <trkpt lat="43.21557" lon="5.44201">
        <ele>171.6</ele>
        <time>2012-05-12T05:58:28.288Z</time>
      </trkpt>
      <trkpt lat="43.21552" lon="5.44202">
        <ele>170.9</ele>
        <time>2012-05-12T05:58:36.078Z</time>
      </trkpt>
      <trkpt lat="43.2155" lon="5.44209">
        <ele>172.1</ele>
        <time>2012-05-12T05:58:38.079Z</time>
      </trkpt>
      <trkpt lat="43.21546" lon="5.44213">
        <ele>176.4</ele>
        <time>2012-05-12T05:58:42.083Z</time>
      </trkpt>
      <trkpt lat="43.21541" lon="5.44212">
        <ele>171.8</ele>
        <time>2012-05-12T05:58:54.073Z</time>
      </trkpt>
      <trkpt lat="43.21536" lon="5.44212">
        <ele>171.3</ele>
        <time>2012-05-12T05:58:56.092Z</time>
      </trkpt>
      <trkpt lat="43.21531" lon="5.44212">
        <ele>169.2</ele>
        <time>2012-05-12T05:59:06.085Z</time>
      </trkpt>
      <trkpt lat="43.21528" lon="5.44217">
        <ele>165.9</ele>
        <time>2012-05-12T05:59:14.083Z</time>
      </trkpt>
      <trkpt lat="43.21524" lon="5.44221">
        <ele>166.3</ele>
        <time>2012-05-12T05:59:17.073Z</time>
      </trkpt>
      <trkpt lat="43.21522" lon="5.44227">
        <ele>163.4</ele>
        <time>2012-05-12T05:59:21.079Z</time>
      </trkpt>
      <trkpt lat="43.21521" lon="5.44236">
        <ele>161.1</ele>
        <time>2012-05-12T05:59:37.240Z</time>
      </trkpt>
      <trkpt lat="43.21522" lon="5.44244">
        <ele>161.4</ele>
        <time>2012-05-12T05:59:39.240Z</time>
      </trkpt>
      <trkpt lat="43.21525" lon="5.4425">
        <ele>160.1</ele>
        <time>2012-05-12T05:59:42.240Z</time>
      </trkpt>
      <trkpt lat="43.2153" lon="5.44248">
        <ele>156.9</ele>
        <time>2012-05-12T05:59:45.240Z</time>
      </trkpt>
      <trkpt lat="43.21534" lon="5.44255">
        <ele>155.3</ele>
        <time>2012-05-12T05:59:49.073Z</time>
      </trkpt>
      <trkpt lat="43.21535" lon="5.44263">
        <ele>154.7</ele>
        <time>2012-05-12T05:59:53.233Z</time>
      </trkpt>
      <trkpt lat="43.21538" lon="5.44267">
        <ele>151.6</ele>
        <time>2012-05-12T05:59:58.203Z</time>
      </trkpt>
      <trkpt lat="43.2154" lon="5.44274">
        <ele>147.2</ele>
        <time>2012-05-12T06:00:04.088Z</time>
      </trkpt>
      <trkpt lat="43.21541" lon="5.44282">
        <ele>147.7</ele>
        <time>2012-05-12T06:00:18.089Z</time>
      </trkpt>
      <trkpt lat="43.21541" lon="5.44282">
        <ele>147.7</ele>
        <time>2012-05-12T06:00:18.089Z</time>
      </trkpt>
      <trkpt lat="43.21541" lon="5.44282">
        <ele>147.7</ele>
        <time>2012-05-12T06:00:19.787Z</time>
      </trkpt>
      <trkpt lat="43.21536" lon="5.44285">
        <ele>148</ele>
        <time>2012-05-12T06:00:24.217Z</time>
      </trkpt>
      <trkpt lat="43.21534" lon="5.44292">
        <ele>144.9</ele>
        <time>2012-05-12T06:00:29.243Z</time>
      </trkpt>
      <trkpt lat="43.21529" lon="5.44293">
        <ele>145.6</ele>
        <time>2012-05-12T06:00:41.072Z</time>
      </trkpt>
      <trkpt lat="43.21525" lon="5.44297">
        <ele>143.7</ele>
        <time>2012-05-12T06:00:45.656Z</time>
      </trkpt>
      <trkpt lat="43.21519" lon="5.44299">
        <ele>141.4</ele>
        <time>2012-05-12T06:00:53.077Z</time>
      </trkpt>
      <trkpt lat="43.21513" lon="5.443">
        <ele>144.1</ele>
        <time>2012-05-12T06:00:54.072Z</time>
      </trkpt>
      <trkpt lat="43.21514" lon="5.44307">
        <ele>141.1</ele>
        <time>2012-05-12T06:01:03.824Z</time>
      </trkpt>
      <trkpt lat="43.2151" lon="5.4431">
        <ele>140.8</ele>
        <time>2012-05-12T06:01:05.631Z</time>
      </trkpt>
      <trkpt lat="43.21508" lon="5.44316">
        <ele>137.4</ele>
        <time>2012-05-12T06:01:11.083Z</time>
      </trkpt>
      <trkpt lat="43.21508" lon="5.44324">
        <ele>133</ele>
        <time>2012-05-12T06:01:20.076Z</time>
      </trkpt>
      <trkpt lat="43.21506" lon="5.44331">
        <ele>131.5</ele>
        <time>2012-05-12T06:01:29.268Z</time>
      </trkpt>
      <trkpt lat="43.21497" lon="5.44333">
        <ele>132.8</ele>
        <time>2012-05-12T06:01:32.091Z</time>
      </trkpt>
      <trkpt lat="43.21492" lon="5.44335">
        <ele>134.5</ele>
        <time>2012-05-12T06:01:35.089Z</time>
      </trkpt>
      <trkpt lat="43.21487" lon="5.44338">
        <ele>135.1</ele>
        <time>2012-05-12T06:01:39.092Z</time>
      </trkpt>
      <trkpt lat="43.21486" lon="5.44344">
        <ele>132.9</ele>
        <time>2012-05-12T06:01:43.085Z</time>
      </trkpt>
      <trkpt lat="43.21483" lon="5.4435">
        <ele>133.1</ele>
        <time>2012-05-12T06:01:46.073Z</time>
      </trkpt>
      <trkpt lat="43.2148" lon="5.44355">
        <ele>132.9</ele>
        <time>2012-05-12T06:01:49.086Z</time>
      </trkpt>
      <trkpt lat="43.21481" lon="5.44361">
        <ele>130.5</ele>
        <time>2012-05-12T06:01:54.755Z</time>
      </trkpt>
      <trkpt lat="43.21478" lon="5.44368">
        <ele>132.1</ele>
        <time>2012-05-12T06:01:59.270Z</time>
      </trkpt>
      <trkpt lat="43.21475" lon="5.44374">
        <ele>132.5</ele>
        <time>2012-05-12T06:02:01.789Z</time>
      </trkpt>
      <trkpt lat="43.21471" lon="5.44377">
        <ele>133.3</ele>
        <time>2012-05-12T06:02:08.086Z</time>
      </trkpt>
      <trkpt lat="43.21466" lon="5.44375">
        <ele>132.8</ele>
        <time>2012-05-12T06:02:12.087Z</time>
      </trkpt>
      <trkpt lat="43.21459" lon="5.44379">
        <ele>134.8</ele>
        <time>2012-05-12T06:02:18.089Z</time>
      </trkpt>
      <trkpt lat="43.21454" lon="5.44381">
        <ele>134.5</ele>
        <time>2012-05-12T06:02:28.268Z</time>
      </trkpt>
      <trkpt lat="43.21451" lon="5.44387">
        <ele>133.9</ele>
        <time>2012-05-12T06:02:38.077Z</time>
      </trkpt>
      <trkpt lat="43.21449" lon="5.44393">
        <ele>133.6</ele>
        <time>2012-05-12T06:02:46.789Z</time>
      </trkpt>
      <trkpt lat="43.21446" lon="5.44398">
        <ele>131.8</ele>
        <time>2012-05-12T06:02:55.081Z</time>
      </trkpt>
      <trkpt lat="43.21444" lon="5.44403">
        <ele>131</ele>
        <time>2012-05-12T06:03:02.092Z</time>
      </trkpt>
      <trkpt lat="43.21441" lon="5.4441">
        <ele>130.8</ele>
        <time>2012-05-12T06:03:19.225Z</time>
      </trkpt>
      <trkpt lat="43.21438" lon="5.44414">
        <ele>125.7</ele>
        <time>2012-05-12T06:03:24.081Z</time>
      </trkpt>
      <trkpt lat="43.21434" lon="5.4442">
        <ele>125.5</ele>
        <time>2012-05-12T06:03:27.808Z</time>
      </trkpt>
      <trkpt lat="43.21431" lon="5.44424">
        <ele>122.6</ele>
        <time>2012-05-12T06:03:30.099Z</time>
      </trkpt>
      <trkpt lat="43.21427" lon="5.44428">
        <ele>122.7</ele>
        <time>2012-05-12T06:03:34.089Z</time>
      </trkpt>
      <trkpt lat="43.21425" lon="5.44434">
        <ele>124.1</ele>
        <time>2012-05-12T06:03:40.085Z</time>
      </trkpt>
      <trkpt lat="43.2142" lon="5.44438">
        <ele>124.2</ele>
        <time>2012-05-12T06:03:44.079Z</time>
      </trkpt>
      <trkpt lat="43.21416" lon="5.44441">
        <ele>122.9</ele>
        <time>2012-05-12T06:03:48.089Z</time>
      </trkpt>
      <trkpt lat="43.21412" lon="5.44447">
        <ele>121</ele>
        <time>2012-05-12T06:03:52.217Z</time>
      </trkpt>
      <trkpt lat="43.21408" lon="5.44447">
        <ele>123.6</ele>
        <time>2012-05-12T06:03:55.072Z</time>
      </trkpt>
      <trkpt lat="43.21406" lon="5.44453">
        <ele>121.8</ele>
        <time>2012-05-12T06:03:57.091Z</time>
      </trkpt>
      <trkpt lat="43.21404" lon="5.44464">
        <ele>122.4</ele>
        <time>2012-05-12T06:04:07.093Z</time>
      </trkpt>
      <trkpt lat="43.214" lon="5.44468">
        <ele>123.3</ele>
        <time>2012-05-12T06:04:08.090Z</time>
      </trkpt>
      <trkpt lat="43.21395" lon="5.4447">
        <ele>127.6</ele>
        <time>2012-05-12T06:04:16.237Z</time>
      </trkpt>
      <trkpt lat="43.2139" lon="5.44471">
        <ele>118.6</ele>
        <time>2012-05-12T06:04:29.745Z</time>
      </trkpt>
      <trkpt lat="43.21385" lon="5.44471">
        <ele>118.9</ele>
        <time>2012-05-12T06:04:35.073Z</time>
      </trkpt>
      <trkpt lat="43.2138" lon="5.44475">
        <ele>119.4</ele>
        <time>2012-05-12T06:04:37.075Z</time>
      </trkpt>
      <trkpt lat="43.21376" lon="5.4448">
        <ele>120.8</ele>
        <time>2012-05-12T06:04:40.226Z</time>
      </trkpt>
      <trkpt lat="43.21371" lon="5.44481">
        <ele>119.4</ele>
        <time>2012-05-12T06:04:47.229Z</time>
      </trkpt>
      <trkpt lat="43.21367" lon="5.44478">
        <ele>117.7</ele>
        <time>2012-05-12T06:04:52.091Z</time>
      </trkpt>
      <trkpt lat="43.21363" lon="5.44478">
        <ele>114.6</ele>
        <time>2012-05-12T06:04:57.084Z</time>
      </trkpt>
      <trkpt lat="43.21358" lon="5.44477">
        <ele>115</ele>
        <time>2012-05-12T06:05:01.076Z</time>
      </trkpt>
      <trkpt lat="43.21352" lon="5.44459">
        <ele>120.2</ele>
        <time>2012-05-12T06:05:57.251Z</time>
      </trkpt>
      <trkpt lat="43.21356" lon="5.44463">
        <ele>122.5</ele>
        <time>2012-05-12T06:05:59.083Z</time>
      </trkpt>
      <trkpt lat="43.21354" lon="5.44469">
        <ele>121.6</ele>
        <time>2012-05-12T06:06:01.073Z</time>
      </trkpt>
      <trkpt lat="43.21351" lon="5.44474">
        <ele>121.5</ele>
        <time>2012-05-12T06:06:04.076Z</time>
      </trkpt>
      <trkpt lat="43.21346" lon="5.44473">
        <ele>121.6</ele>
        <time>2012-05-12T06:06:08.092Z</time>
      </trkpt>
      <trkpt lat="43.21346" lon="5.44473">
        <ele>121.6</ele>
        <time>2012-05-12T06:06:08.092Z</time>
      </trkpt>
      <trkpt lat="43.21346" lon="5.44473">
        <ele>121.6</ele>
        <time>2012-05-12T06:06:09.239Z</time>
      </trkpt>
      <trkpt lat="43.21342" lon="5.44474">
        <ele>119.5</ele>
        <time>2012-05-12T06:06:16.708Z</time>
      </trkpt>
      <trkpt lat="43.21335" lon="5.44462">
        <ele>118.6</ele>
        <time>2012-05-12T06:06:19.158Z</time>
      </trkpt>
      <trkpt lat="43.21329" lon="5.4447">
        <ele>118.8</ele>
        <time>2012-05-12T06:06:21.077Z</time>
      </trkpt>
      <trkpt lat="43.21326" lon="5.44476">
        <ele>118.2</ele>
        <time>2012-05-12T06:06:26.250Z</time>
      </trkpt>
      <trkpt lat="43.21327" lon="5.44483">
        <ele>116.8</ele>
        <time>2012-05-12T06:06:33.073Z</time>
      </trkpt>
      <trkpt lat="43.21324" lon="5.4449">
        <ele>114.7</ele>
        <time>2012-05-12T06:06:36.075Z</time>
      </trkpt>
      <trkpt lat="43.21324" lon="5.44498">
        <ele>115.2</ele>
        <time>2012-05-12T06:06:39.088Z</time>
      </trkpt>
      <trkpt lat="43.21327" lon="5.44507">
        <ele>111.7</ele>
        <time>2012-05-12T06:06:43.219Z</time>
      </trkpt>
      <trkpt lat="43.21329" lon="5.44513">
        <ele>109.9</ele>
        <time>2012-05-12T06:06:44.625Z</time>
      </trkpt>
      <trkpt lat="43.21332" lon="5.44522">
        <ele>110.1</ele>
        <time>2012-05-12T06:06:46.073Z</time>
      </trkpt>
      <trkpt lat="43.21327" lon="5.44527">
        <ele>104.5</ele>
        <time>2012-05-12T06:06:56.090Z</time>
      </trkpt>
      <trkpt lat="43.21327" lon="5.44534">
        <ele>99.2</ele>
        <time>2012-05-12T06:07:01.089Z</time>
      </trkpt>
      <trkpt lat="43.21323" lon="5.44541">
        <ele>100.4</ele>
        <time>2012-05-12T06:07:05.681Z</time>
      </trkpt>
      <trkpt lat="43.2132" lon="5.44547">
        <ele>100.3</ele>
        <time>2012-05-12T06:07:09.791Z</time>
      </trkpt>
      <trkpt lat="43.21315" lon="5.44549">
        <ele>100.8</ele>
        <time>2012-05-12T06:07:13.075Z</time>
      </trkpt>
      <trkpt lat="43.21312" lon="5.44553">
        <ele>102.5</ele>
        <time>2012-05-12T06:07:18.091Z</time>
      </trkpt>
      <trkpt lat="43.21308" lon="5.44557">
        <ele>104</ele>
        <time>2012-05-12T06:07:22.091Z</time>
      </trkpt>
      <trkpt lat="43.21308" lon="5.44564">
        <ele>104.3</ele>
        <time>2012-05-12T06:07:25.234Z</time>
      </trkpt>
      <trkpt lat="43.21308" lon="5.44574">
        <ele>103</ele>
        <time>2012-05-12T06:07:29.237Z</time>
      </trkpt>
      <trkpt lat="43.21303" lon="5.44577">
        <ele>108.9</ele>
        <time>2012-05-12T06:07:37.091Z</time>
      </trkpt>
      <trkpt lat="43.21298" lon="5.44578">
        <ele>111</ele>
        <time>2012-05-12T06:07:39.082Z</time>
      </trkpt>
      <trkpt lat="43.21293" lon="5.44585">
        <ele>110.9</ele>
        <time>2012-05-12T06:07:49.076Z</time>
      </trkpt>
      <trkpt lat="43.21288" lon="5.44587">
        <ele>105.8</ele>
        <time>2012-05-12T06:07:56.080Z</time>
      </trkpt>
      <trkpt lat="43.21284" lon="5.44592">
        <ele>102</ele>
        <time>2012-05-12T06:08:06.102Z</time>
      </trkpt>
      <trkpt lat="43.21278" lon="5.4459">
        <ele>101.4</ele>
        <time>2012-05-12T06:08:15.089Z</time>
      </trkpt>
      <trkpt lat="43.21273" lon="5.44591">
        <ele>101.8</ele>
        <time>2012-05-12T06:08:21.089Z</time>
      </trkpt>
      <trkpt lat="43.2127" lon="5.44596">
        <ele>100.9</ele>
        <time>2012-05-12T06:08:25.077Z</time>
      </trkpt>
      <trkpt lat="43.21269" lon="5.44602">
        <ele>101.4</ele>
        <time>2012-05-12T06:08:28.251Z</time>
      </trkpt>
      <trkpt lat="43.21269" lon="5.44611">
        <ele>97.1</ele>
        <time>2012-05-12T06:08:34.240Z</time>
      </trkpt>
      <trkpt lat="43.21264" lon="5.44612">
        <ele>95.7</ele>
        <time>2012-05-12T06:08:38.240Z</time>
      </trkpt>
      <trkpt lat="43.2126" lon="5.44615">
        <ele>96.4</ele>
        <time>2012-05-12T06:08:43.119Z</time>
      </trkpt>
      <trkpt lat="43.2126" lon="5.44622">
        <ele>98.8</ele>
        <time>2012-05-12T06:09:01.079Z</time>
      </trkpt>
      <trkpt lat="43.21261" lon="5.44631">
        <ele>97.4</ele>
        <time>2012-05-12T06:09:05.097Z</time>
      </trkpt>
      <trkpt lat="43.21261" lon="5.44639">
        <ele>97.9</ele>
        <time>2012-05-12T06:09:12.085Z</time>
      </trkpt>
      <trkpt lat="43.21255" lon="5.44643">
        <ele>95.4</ele>
        <time>2012-05-12T06:09:15.074Z</time>
      </trkpt>
      <trkpt lat="43.21253" lon="5.44636">
        <ele>98</ele>
        <time>2012-05-12T06:09:18.081Z</time>
      </trkpt>
      <trkpt lat="43.21248" lon="5.44634">
        <ele>97.1</ele>
        <time>2012-05-12T06:09:31.208Z</time>
      </trkpt>
      <trkpt lat="43.21244" lon="5.44639">
        <ele>96.7</ele>
        <time>2012-05-12T06:09:43.208Z</time>
      </trkpt>
      <trkpt lat="43.21249" lon="5.44642">
        <ele>96.6</ele>
        <time>2012-05-12T06:09:49.208Z</time>
      </trkpt>
      <trkpt lat="43.21244" lon="5.4464">
        <ele>97.2</ele>
        <time>2012-05-12T06:09:58.633Z</time>
      </trkpt>
      <trkpt lat="43.2125" lon="5.44643">
        <ele>96.1</ele>
        <time>2012-05-12T06:10:08.079Z</time>
      </trkpt>
      <trkpt lat="43.21243" lon="5.44642">
        <ele>101.3</ele>
        <time>2012-05-12T06:10:13.094Z</time>
      </trkpt>
      <trkpt lat="43.21244" lon="5.4465">
        <ele>91.5</ele>
        <time>2012-05-12T06:10:22.096Z</time>
      </trkpt>
      <trkpt lat="43.21233" lon="5.44658">
        <ele>95.8</ele>
        <time>2012-05-12T06:10:29.265Z</time>
      </trkpt>
      <trkpt lat="43.21225" lon="5.44658">
        <ele>96.4</ele>
        <time>2012-05-12T06:10:31.085Z</time>
      </trkpt>
      <trkpt lat="43.21218" lon="5.44658">
        <ele>95.3</ele>
        <time>2012-05-12T06:10:33.077Z</time>
      </trkpt>
      <trkpt lat="43.21215" lon="5.44663">
        <ele>98</ele>
        <time>2012-05-12T06:10:35.087Z</time>
      </trkpt>
      <trkpt lat="43.21212" lon="5.44671">
        <ele>97.4</ele>
        <time>2012-05-12T06:10:40.787Z</time>
      </trkpt>
      <trkpt lat="43.21213" lon="5.44678">
        <ele>97.2</ele>
        <time>2012-05-12T06:10:43.091Z</time>
      </trkpt>
      <trkpt lat="43.21212" lon="5.44685">
        <ele>96.9</ele>
        <time>2012-05-12T06:10:59.093Z</time>
      </trkpt>
      <trkpt lat="43.2121" lon="5.44691">
        <ele>99</ele>
        <time>2012-05-12T06:11:02.090Z</time>
      </trkpt>
      <trkpt lat="43.21206" lon="5.44696">
        <ele>100</ele>
        <time>2012-05-12T06:11:05.093Z</time>
      </trkpt>
      <trkpt lat="43.21202" lon="5.447">
        <ele>99.4</ele>
        <time>2012-05-12T06:11:08.089Z</time>
      </trkpt>
      <trkpt lat="43.21199" lon="5.44707">
        <ele>101.2</ele>
        <time>2012-05-12T06:11:11.084Z</time>
      </trkpt>
      <trkpt lat="43.21198" lon="5.44714">
        <ele>102</ele>
        <time>2012-05-12T06:11:15.792Z</time>
      </trkpt>
      <trkpt lat="43.21194" lon="5.4471">
        <ele>103.2</ele>
        <time>2012-05-12T06:11:18.240Z</time>
      </trkpt>
      <trkpt lat="43.21194" lon="5.44717">
        <ele>101.9</ele>
        <time>2012-05-12T06:11:20.083Z</time>
      </trkpt>
      <trkpt lat="43.21195" lon="5.44724">
        <ele>98.2</ele>
        <time>2012-05-12T06:11:24.081Z</time>
      </trkpt>
      <trkpt lat="43.21196" lon="5.4473">
        <ele>97.1</ele>
        <time>2012-05-12T06:11:29.226Z</time>
      </trkpt>
      <trkpt lat="43.21194" lon="5.44736">
        <ele>96</ele>
        <time>2012-05-12T06:11:35.121Z</time>
      </trkpt>
      <trkpt lat="43.2119" lon="5.4473">
        <ele>95.7</ele>
        <time>2012-05-12T06:11:36.527Z</time>
      </trkpt>
      <trkpt lat="43.21192" lon="5.4474">
        <ele>95.7</ele>
        <time>2012-05-12T06:11:38.085Z</time>
      </trkpt>
      <trkpt lat="43.21187" lon="5.44739">
        <ele>98.8</ele>
        <time>2012-05-12T06:11:39.078Z</time>
      </trkpt>
      <trkpt lat="43.21182" lon="5.44743">
        <ele>98.5</ele>
        <time>2012-05-12T06:11:41.787Z</time>
      </trkpt>
      <trkpt lat="43.21177" lon="5.44745">
        <ele>98.6</ele>
        <time>2012-05-12T06:11:45.077Z</time>
      </trkpt>
      <trkpt lat="43.21172" lon="5.44749">
        <ele>100.3</ele>
        <time>2012-05-12T06:11:49.085Z</time>
      </trkpt>
      <trkpt lat="43.21166" lon="5.44749">
        <ele>100.1</ele>
        <time>2012-05-12T06:11:51.090Z</time>
      </trkpt>
      <trkpt lat="43.21162" lon="5.44752">
        <ele>94.5</ele>
        <time>2012-05-12T06:11:56.075Z</time>
      </trkpt>
      <trkpt lat="43.21168" lon="5.44754">
        <ele>92.6</ele>
        <time>2012-05-12T06:11:57.089Z</time>
      </trkpt>
      <trkpt lat="43.21167" lon="5.44761">
        <ele>92.6</ele>
        <time>2012-05-12T06:12:04.256Z</time>
      </trkpt>
      <trkpt lat="43.21162" lon="5.44763">
        <ele>90.9</ele>
        <time>2012-05-12T06:12:08.256Z</time>
      </trkpt>
      <trkpt lat="43.21158" lon="5.44763">
        <ele>89.3</ele>
        <time>2012-05-12T06:12:11.256Z</time>
      </trkpt>
      <trkpt lat="43.21152" lon="5.44762">
        <ele>87.4</ele>
        <time>2012-05-12T06:12:15.256Z</time>
      </trkpt>
      <trkpt lat="43.21147" lon="5.44767">
        <ele>86.5</ele>
        <time>2012-05-12T06:12:20.234Z</time>
      </trkpt>
      <trkpt lat="43.21146" lon="5.44773">
        <ele>84.5</ele>
        <time>2012-05-12T06:12:24.076Z</time>
      </trkpt>
      <trkpt lat="43.21149" lon="5.44783">
        <ele>84.3</ele>
        <time>2012-05-12T06:12:28.230Z</time>
      </trkpt>
      <trkpt lat="43.21144" lon="5.44787">
        <ele>82.3</ele>
        <time>2012-05-12T06:12:32.076Z</time>
      </trkpt>
      <trkpt lat="43.2114" lon="5.44792">
        <ele>86.2</ele>
        <time>2012-05-12T06:12:40.075Z</time>
      </trkpt>
      <trkpt lat="43.21134" lon="5.44794">
        <ele>83.5</ele>
        <time>2012-05-12T06:12:43.093Z</time>
      </trkpt>
      <trkpt lat="43.21131" lon="5.44799">
        <ele>84.8</ele>
        <time>2012-05-12T06:12:46.075Z</time>
      </trkpt>
      <trkpt lat="43.21127" lon="5.44803">
        <ele>83.3</ele>
        <time>2012-05-12T06:12:50.073Z</time>
      </trkpt>
      <trkpt lat="43.21123" lon="5.44807">
        <ele>83.6</ele>
        <time>2012-05-12T06:12:52.791Z</time>
      </trkpt>
      <trkpt lat="43.2112" lon="5.44813">
        <ele>84.8</ele>
        <time>2012-05-12T06:12:58.075Z</time>
      </trkpt>
      <trkpt lat="43.21116" lon="5.44816">
        <ele>83.9</ele>
        <time>2012-05-12T06:13:00.791Z</time>
      </trkpt>
      <trkpt lat="43.21112" lon="5.44823">
        <ele>85.6</ele>
        <time>2012-05-12T06:13:06.080Z</time>
      </trkpt>
      <trkpt lat="43.21107" lon="5.44821">
        <ele>87.1</ele>
        <time>2012-05-12T06:13:24.090Z</time>
      </trkpt>
      <trkpt lat="43.21106" lon="5.44828">
        <ele>88.8</ele>
        <time>2012-05-12T06:13:56.080Z</time>
      </trkpt>
      <trkpt lat="43.21101" lon="5.44826">
        <ele>88.4</ele>
        <time>2012-05-12T06:14:00.802Z</time>
      </trkpt>
      <trkpt lat="43.21105" lon="5.4483">
        <ele>90.8</ele>
        <time>2012-05-12T06:14:07.802Z</time>
      </trkpt>
      <trkpt lat="43.21111" lon="5.44833">
        <ele>92.1</ele>
        <time>2012-05-12T06:14:09.802Z</time>
      </trkpt>
      <trkpt lat="43.21106" lon="5.44837">
        <ele>92.4</ele>
        <time>2012-05-12T06:14:39.213Z</time>
      </trkpt>
      <trkpt lat="43.21103" lon="5.44844">
        <ele>92.4</ele>
        <time>2012-05-12T06:14:48.076Z</time>
      </trkpt>
      <trkpt lat="43.21102" lon="5.44851">
        <ele>89.4</ele>
        <time>2012-05-12T06:14:58.088Z</time>
      </trkpt>
      <trkpt lat="43.21104" lon="5.44858">
        <ele>87.6</ele>
        <time>2012-05-12T06:15:00.094Z</time>
      </trkpt>
      <trkpt lat="43.21103" lon="5.44865">
        <ele>86.3</ele>
        <time>2012-05-12T06:15:06.090Z</time>
      </trkpt>
      <trkpt lat="43.211" lon="5.44872">
        <ele>87.2</ele>
        <time>2012-05-12T06:15:10.094Z</time>
      </trkpt>
      <trkpt lat="43.211" lon="5.44878">
        <ele>87.5</ele>
        <time>2012-05-12T06:15:14.751Z</time>
      </trkpt>
      <trkpt lat="43.21095" lon="5.44883">
        <ele>91</ele>
        <time>2012-05-12T06:15:17.381Z</time>
      </trkpt>
      <trkpt lat="43.21093" lon="5.44889">
        <ele>92.1</ele>
        <time>2012-05-12T06:15:23.087Z</time>
      </trkpt>
      <trkpt lat="43.2109" lon="5.44894">
        <ele>92.5</ele>
        <time>2012-05-12T06:15:28.238Z</time>
      </trkpt>
      <trkpt lat="43.21087" lon="5.449">
        <ele>90.8</ele>
        <time>2012-05-12T06:15:33.104Z</time>
      </trkpt>
      <trkpt lat="43.21088" lon="5.44908">
        <ele>92.2</ele>
        <time>2012-05-12T06:15:38.096Z</time>
      </trkpt>
      <trkpt lat="43.21093" lon="5.44912">
        <ele>90.2</ele>
        <time>2012-05-12T06:15:41.097Z</time>
      </trkpt>
      <trkpt lat="43.21096" lon="5.44917">
        <ele>88.8</ele>
        <time>2012-05-12T06:15:44.348Z</time>
      </trkpt>
      <trkpt lat="43.21099" lon="5.44922">
        <ele>88</ele>
        <time>2012-05-12T06:15:48.091Z</time>
      </trkpt>
      <trkpt lat="43.21104" lon="5.44923">
        <ele>86.7</ele>
        <time>2012-05-12T06:15:55.088Z</time>
      </trkpt>
      <trkpt lat="43.21108" lon="5.44929">
        <ele>87</ele>
        <time>2012-05-12T06:15:59.095Z</time>
      </trkpt>
      <trkpt lat="43.21113" lon="5.4493">
        <ele>85</ele>
        <time>2012-05-12T06:16:12.090Z</time>
      </trkpt>
      <trkpt lat="43.21113" lon="5.44936">
        <ele>87.7</ele>
        <time>2012-05-12T06:16:15.077Z</time>
      </trkpt>
      <trkpt lat="43.21109" lon="5.4494">
        <ele>92.1</ele>
        <time>2012-05-12T06:16:17.081Z</time>
      </trkpt>
      <trkpt lat="43.2111" lon="5.44946">
        <ele>93.4</ele>
        <time>2012-05-12T06:16:20.094Z</time>
      </trkpt>
      <trkpt lat="43.21108" lon="5.44954">
        <ele>95.7</ele>
        <time>2012-05-12T06:16:46.089Z</time>
      </trkpt>
      <trkpt lat="43.21106" lon="5.44959">
        <ele>97.5</ele>
        <time>2012-05-12T06:16:50.076Z</time>
      </trkpt>
      <trkpt lat="43.21104" lon="5.44965">
        <ele>98.5</ele>
        <time>2012-05-12T06:16:52.133Z</time>
      </trkpt>
      <trkpt lat="43.21104" lon="5.44971">
        <ele>99.8</ele>
        <time>2012-05-12T06:16:55.092Z</time>
      </trkpt>
      <trkpt lat="43.21106" lon="5.44978">
        <ele>97.4</ele>
        <time>2012-05-12T06:17:00.087Z</time>
      </trkpt>
      <trkpt lat="43.21108" lon="5.44985">
        <ele>96</ele>
        <time>2012-05-12T06:17:04.090Z</time>
      </trkpt>
      <trkpt lat="43.21112" lon="5.4499">
        <ele>96.1</ele>
        <time>2012-05-12T06:17:07.096Z</time>
      </trkpt>
      <trkpt lat="43.2111" lon="5.44998">
        <ele>96.3</ele>
        <time>2012-05-12T06:17:08.089Z</time>
      </trkpt>
      <trkpt lat="43.21109" lon="5.45005">
        <ele>95.3</ele>
        <time>2012-05-12T06:17:10.090Z</time>
      </trkpt>
      <trkpt lat="43.21109" lon="5.45012">
        <ele>94.8</ele>
        <time>2012-05-12T06:17:12.077Z</time>
      </trkpt>
      <trkpt lat="43.21112" lon="5.45016">
        <ele>95</ele>
        <time>2012-05-12T06:17:14.801Z</time>
      </trkpt>
      <trkpt lat="43.21117" lon="5.45017">
        <ele>93.7</ele>
        <time>2012-05-12T06:17:18.502Z</time>
      </trkpt>
      <trkpt lat="43.21113" lon="5.45018">
        <ele>99.2</ele>
        <time>2012-05-12T06:17:21.091Z</time>
      </trkpt>
      <trkpt lat="43.21118" lon="5.45022">
        <ele>101</ele>
        <time>2012-05-12T06:17:26.624Z</time>
      </trkpt>
      <trkpt lat="43.21123" lon="5.45027">
        <ele>100</ele>
        <time>2012-05-12T06:17:29.473Z</time>
      </trkpt>
      <trkpt lat="43.21124" lon="5.45034">
        <ele>100.2</ele>
        <time>2012-05-12T06:17:32.473Z</time>
      </trkpt>
      <trkpt lat="43.21119" lon="5.45032">
        <ele>97.5</ele>
        <time>2012-05-12T06:17:34.000Z</time>
      </trkpt>
      <trkpt lat="43.21116" lon="5.45042">
        <ele>100.3</ele>
        <time>2012-05-12T06:17:39.096Z</time>
      </trkpt>
      <trkpt lat="43.21116" lon="5.4505">
        <ele>102.5</ele>
        <time>2012-05-12T06:17:42.091Z</time>
      </trkpt>
      <trkpt lat="43.21113" lon="5.45055">
        <ele>106.4</ele>
        <time>2012-05-12T06:17:46.086Z</time>
      </trkpt>
      <trkpt lat="43.2111" lon="5.45062">
        <ele>105.1</ele>
        <time>2012-05-12T06:17:51.092Z</time>
      </trkpt>
      <trkpt lat="43.21107" lon="5.45068">
        <ele>104.8</ele>
        <time>2012-05-12T06:17:58.091Z</time>
      </trkpt>
      <trkpt lat="43.21102" lon="5.45068">
        <ele>104.9</ele>
        <time>2012-05-12T06:18:02.081Z</time>
      </trkpt>
      <trkpt lat="43.21097" lon="5.45073">
        <ele>105.1</ele>
        <time>2012-05-12T06:18:06.092Z</time>
      </trkpt>
      <trkpt lat="43.21092" lon="5.45076">
        <ele>104.3</ele>
        <time>2012-05-12T06:18:20.096Z</time>
      </trkpt>
      <trkpt lat="43.2109" lon="5.45084">
        <ele>103.4</ele>
        <time>2012-05-12T06:18:21.090Z</time>
      </trkpt>
      <trkpt lat="43.21085" lon="5.4509">
        <ele>101.2</ele>
        <time>2012-05-12T06:18:23.078Z</time>
      </trkpt>
      <trkpt lat="43.2108" lon="5.45094">
        <ele>103.2</ele>
        <time>2012-05-12T06:18:29.298Z</time>
      </trkpt>
      <trkpt lat="43.21075" lon="5.45093">
        <ele>108</ele>
        <time>2012-05-12T06:18:32.092Z</time>
      </trkpt>
      <trkpt lat="43.21072" lon="5.45099">
        <ele>107.7</ele>
        <time>2012-05-12T06:18:35.092Z</time>
      </trkpt>
      <trkpt lat="43.21066" lon="5.45101">
        <ele>107.1</ele>
        <time>2012-05-12T06:18:39.090Z</time>
      </trkpt>
      <trkpt lat="43.21064" lon="5.45107">
        <ele>106.9</ele>
        <time>2012-05-12T06:18:43.096Z</time>
      </trkpt>
      <trkpt lat="43.21064" lon="5.45113">
        <ele>104.5</ele>
        <time>2012-05-12T06:18:47.092Z</time>
      </trkpt>
      <trkpt lat="43.21065" lon="5.4512">
        <ele>104.3</ele>
        <time>2012-05-12T06:19:13.088Z</time>
      </trkpt>
      <trkpt lat="43.21066" lon="5.45127">
        <ele>103.1</ele>
        <time>2012-05-12T06:19:15.788Z</time>
      </trkpt>
      <trkpt lat="43.21065" lon="5.45134">
        <ele>104.6</ele>
        <time>2012-05-12T06:19:18.428Z</time>
      </trkpt>
      <trkpt lat="43.21062" lon="5.45143">
        <ele>102.9</ele>
        <time>2012-05-12T06:19:26.087Z</time>
      </trkpt>
      <trkpt lat="43.21051" lon="5.45142">
        <ele>102.7</ele>
        <time>2012-05-12T06:19:29.705Z</time>
      </trkpt>
      <trkpt lat="43.21056" lon="5.45148">
        <ele>101.2</ele>
        <time>2012-05-12T06:19:30.727Z</time>
      </trkpt>
      <trkpt lat="43.21061" lon="5.45156">
        <ele>95.8</ele>
        <time>2012-05-12T06:19:34.087Z</time>
      </trkpt>
      <trkpt lat="43.2106" lon="5.45165">
        <ele>95.1</ele>
        <time>2012-05-12T06:19:38.791Z</time>
      </trkpt>
      <trkpt lat="43.21059" lon="5.45171">
        <ele>93.3</ele>
        <time>2012-05-12T06:19:43.096Z</time>
      </trkpt>
      <trkpt lat="43.21056" lon="5.45179">
        <ele>92.5</ele>
        <time>2012-05-12T06:19:46.090Z</time>
      </trkpt>
      <trkpt lat="43.21051" lon="5.45178">
        <ele>95.4</ele>
        <time>2012-05-12T06:19:50.076Z</time>
      </trkpt>
      <trkpt lat="43.2105" lon="5.45185">
        <ele>94.8</ele>
        <time>2012-05-12T06:19:54.305Z</time>
      </trkpt>
      <trkpt lat="43.21048" lon="5.45192">
        <ele>94.1</ele>
        <time>2012-05-12T06:19:57.764Z</time>
      </trkpt>
      <trkpt lat="43.21047" lon="5.45199">
        <ele>96.4</ele>
        <time>2012-05-12T06:20:00.091Z</time>
      </trkpt>
      <trkpt lat="43.21042" lon="5.452">
        <ele>97.9</ele>
        <time>2012-05-12T06:20:03.092Z</time>
      </trkpt>
      <trkpt lat="43.21034" lon="5.45201">
        <ele>99.1</ele>
        <time>2012-05-12T06:20:13.100Z</time>
      </trkpt>
      <trkpt lat="43.21027" lon="5.45199">
        <ele>94.4</ele>
        <time>2012-05-12T06:20:25.077Z</time>
      </trkpt>
      <trkpt lat="43.21021" lon="5.452">
        <ele>88.8</ele>
        <time>2012-05-12T06:21:20.078Z</time>
      </trkpt>
      <trkpt lat="43.21021" lon="5.45207">
        <ele>91.1</ele>
        <time>2012-05-12T06:21:23.092Z</time>
      </trkpt>
      <trkpt lat="43.21021" lon="5.45214">
        <ele>90.3</ele>
        <time>2012-05-12T06:21:30.324Z</time>
      </trkpt>
      <trkpt lat="43.21019" lon="5.4522">
        <ele>88.7</ele>
        <time>2012-05-12T06:21:51.272Z</time>
      </trkpt>
      <trkpt lat="43.21018" lon="5.45226">
        <ele>92.7</ele>
        <time>2012-05-12T06:21:57.914Z</time>
      </trkpt>
      <trkpt lat="43.2102" lon="5.45232">
        <ele>90.3</ele>
        <time>2012-05-12T06:22:06.081Z</time>
      </trkpt>
      <trkpt lat="43.21018" lon="5.45238">
        <ele>90.5</ele>
        <time>2012-05-12T06:22:08.078Z</time>
      </trkpt>
      <trkpt lat="43.21017" lon="5.45244">
        <ele>90.2</ele>
        <time>2012-05-12T06:22:11.092Z</time>
      </trkpt>
      <trkpt lat="43.21012" lon="5.4525">
        <ele>93.5</ele>
        <time>2012-05-12T06:22:14.090Z</time>
      </trkpt>
      <trkpt lat="43.21009" lon="5.45256">
        <ele>93.5</ele>
        <time>2012-05-12T06:22:16.078Z</time>
      </trkpt>
      <trkpt lat="43.21008" lon="5.45263">
        <ele>92.3</ele>
        <time>2012-05-12T06:22:19.077Z</time>
      </trkpt>
      <trkpt lat="43.21009" lon="5.4527">
        <ele>89.4</ele>
        <time>2012-05-12T06:22:24.096Z</time>
      </trkpt>
      <trkpt lat="43.21011" lon="5.45275">
        <ele>90</ele>
        <time>2012-05-12T06:22:29.307Z</time>
      </trkpt>
      <trkpt lat="43.21013" lon="5.45281">
        <ele>90</ele>
        <time>2012-05-12T06:22:46.801Z</time>
      </trkpt>
      <trkpt lat="43.21014" lon="5.45287">
        <ele>91.8</ele>
        <time>2012-05-12T06:22:56.089Z</time>
      </trkpt>
      <trkpt lat="43.21015" lon="5.45293">
        <ele>91.7</ele>
        <time>2012-05-12T06:23:01.209Z</time>
      </trkpt>
      <trkpt lat="43.21014" lon="5.453">
        <ele>89.9</ele>
        <time>2012-05-12T06:23:05.083Z</time>
      </trkpt>
      <trkpt lat="43.2102" lon="5.45298">
        <ele>85.4</ele>
        <time>2012-05-12T06:23:18.109Z</time>
      </trkpt>
      <trkpt lat="43.2102" lon="5.45305">
        <ele>86.5</ele>
        <time>2012-05-12T06:23:40.720Z</time>
      </trkpt>
      <trkpt lat="43.21018" lon="5.45312">
        <ele>88</ele>
        <time>2012-05-12T06:23:43.181Z</time>
      </trkpt>
      <trkpt lat="43.21028" lon="5.45313">
        <ele>86.8</ele>
        <time>2012-05-12T06:24:12.254Z</time>
      </trkpt>
      <trkpt lat="43.21026" lon="5.45321">
        <ele>88.8</ele>
        <time>2012-05-12T06:24:22.806Z</time>
      </trkpt>
      <trkpt lat="43.21024" lon="5.45327">
        <ele>91.5</ele>
        <time>2012-05-12T06:24:28.284Z</time>
      </trkpt>
      <trkpt lat="43.2101" lon="5.45326">
        <ele>89</ele>
        <time>2012-05-12T06:24:29.769Z</time>
      </trkpt>
      <trkpt lat="43.21015" lon="5.4533">
        <ele>89.4</ele>
        <time>2012-05-12T06:24:32.090Z</time>
      </trkpt>
      <trkpt lat="43.21018" lon="5.45335">
        <ele>88.2</ele>
        <time>2012-05-12T06:24:34.245Z</time>
      </trkpt>
      <trkpt lat="43.21019" lon="5.45342">
        <ele>89.3</ele>
        <time>2012-05-12T06:24:38.245Z</time>
      </trkpt>
      <trkpt lat="43.21019" lon="5.45348">
        <ele>90.6</ele>
        <time>2012-05-12T06:24:42.245Z</time>
      </trkpt>
      <trkpt lat="43.21021" lon="5.45354">
        <ele>94.5</ele>
        <time>2012-05-12T06:24:51.791Z</time>
      </trkpt>
      <trkpt lat="43.21026" lon="5.45349">
        <ele>92.7</ele>
        <time>2012-05-12T06:25:00.172Z</time>
      </trkpt>
      <trkpt lat="43.2103" lon="5.45348">
        <ele>92.2</ele>
        <time>2012-05-12T06:25:03.172Z</time>
      </trkpt>
      <trkpt lat="43.21037" lon="5.45348">
        <ele>90.8</ele>
        <time>2012-05-12T06:25:06.172Z</time>
      </trkpt>
      <trkpt lat="43.21041" lon="5.45351">
        <ele>91.5</ele>
        <time>2012-05-12T06:25:14.172Z</time>
      </trkpt>
      <trkpt lat="43.21046" lon="5.4535">
        <ele>92.3</ele>
        <time>2012-05-12T06:25:17.172Z</time>
      </trkpt>
      <trkpt lat="43.2105" lon="5.45346">
        <ele>92.8</ele>
        <time>2012-05-12T06:25:22.172Z</time>
      </trkpt>
      <trkpt lat="43.21058" lon="5.45344">
        <ele>92.7</ele>
        <time>2012-05-12T06:25:33.292Z</time>
      </trkpt>
      <trkpt lat="43.21064" lon="5.45348">
        <ele>92.4</ele>
        <time>2012-05-12T06:25:35.292Z</time>
      </trkpt>
      <trkpt lat="43.21069" lon="5.4535">
        <ele>93.1</ele>
        <time>2012-05-12T06:25:40.292Z</time>
      </trkpt>
      <trkpt lat="43.21074" lon="5.45351">
        <ele>94</ele>
        <time>2012-05-12T06:25:42.292Z</time>
      </trkpt>
      <trkpt lat="43.21079" lon="5.45352">
        <ele>93.2</ele>
        <time>2012-05-12T06:25:48.095Z</time>
      </trkpt>
      <trkpt lat="43.21085" lon="5.45353">
        <ele>92.3</ele>
        <time>2012-05-12T06:25:50.794Z</time>
      </trkpt>
      <trkpt lat="43.21085" lon="5.45345">
        <ele>89.7</ele>
        <time>2012-05-12T06:25:52.263Z</time>
      </trkpt>
      <trkpt lat="43.21087" lon="5.45352">
        <ele>91.7</ele>
        <time>2012-05-12T06:25:56.107Z</time>
      </trkpt>
      <trkpt lat="43.21094" lon="5.45355">
        <ele>89.6</ele>
        <time>2012-05-12T06:26:01.100Z</time>
      </trkpt>
      <trkpt lat="43.21099" lon="5.45355">
        <ele>90.5</ele>
        <time>2012-05-12T06:26:03.088Z</time>
      </trkpt>
      <trkpt lat="43.21104" lon="5.45359">
        <ele>89.2</ele>
        <time>2012-05-12T06:26:06.097Z</time>
      </trkpt>
      <trkpt lat="43.21107" lon="5.45363">
        <ele>92.7</ele>
        <time>2012-05-12T06:26:08.089Z</time>
      </trkpt>
      <trkpt lat="43.21108" lon="5.45356">
        <ele>90.7</ele>
        <time>2012-05-12T06:26:17.344Z</time>
      </trkpt>
      <trkpt lat="43.21113" lon="5.45357">
        <ele>91.6</ele>
        <time>2012-05-12T06:26:34.778Z</time>
      </trkpt>
      <trkpt lat="43.21118" lon="5.45356">
        <ele>93.3</ele>
        <time>2012-05-12T06:26:39.243Z</time>
      </trkpt>
      <trkpt lat="43.21123" lon="5.45356">
        <ele>92.9</ele>
        <time>2012-05-12T06:26:41.243Z</time>
      </trkpt>
      <trkpt lat="43.21128" lon="5.45356">
        <ele>92.1</ele>
        <time>2012-05-12T06:26:44.243Z</time>
      </trkpt>
      <trkpt lat="43.21134" lon="5.45355">
        <ele>88.8</ele>
        <time>2012-05-12T06:26:45.685Z</time>
      </trkpt>
      <trkpt lat="43.21139" lon="5.45355">
        <ele>87.1</ele>
        <time>2012-05-12T06:26:48.138Z</time>
      </trkpt>
      <trkpt lat="43.21145" lon="5.45358">
        <ele>85.9</ele>
        <time>2012-05-12T06:26:51.138Z</time>
      </trkpt>
      <trkpt lat="43.2114" lon="5.45364">
        <ele>83</ele>
        <time>2012-05-12T06:27:04.312Z</time>
      </trkpt>
      <trkpt lat="43.21139" lon="5.4537">
        <ele>81.8</ele>
        <time>2012-05-12T06:27:17.313Z</time>
      </trkpt>
      <trkpt lat="43.21146" lon="5.45368">
        <ele>79.6</ele>
        <time>2012-05-12T06:27:29.247Z</time>
      </trkpt>
      <trkpt lat="43.21151" lon="5.45362">
        <ele>78.3</ele>
        <time>2012-05-12T06:27:29.691Z</time>
      </trkpt>
      <trkpt lat="43.21143" lon="5.45362">
        <ele>73.7</ele>
        <time>2012-05-12T06:27:31.089Z</time>
      </trkpt>
      <trkpt lat="43.21147" lon="5.45364">
        <ele>73</ele>
        <time>2012-05-12T06:27:39.132Z</time>
      </trkpt>
      <trkpt lat="43.21149" lon="5.45369">
        <ele>75.7</ele>
        <time>2012-05-12T06:27:47.806Z</time>
      </trkpt>
      <trkpt lat="43.21155" lon="5.45369">
        <ele>75.6</ele>
        <time>2012-05-12T06:27:59.326Z</time>
      </trkpt>
      <trkpt lat="43.2116" lon="5.45367">
        <ele>74.5</ele>
        <time>2012-05-12T06:28:01.326Z</time>
      </trkpt>
      <trkpt lat="43.21165" lon="5.45367">
        <ele>74.3</ele>
        <time>2012-05-12T06:28:04.093Z</time>
      </trkpt>
      <trkpt lat="43.2117" lon="5.45365">
        <ele>71.5</ele>
        <time>2012-05-12T06:28:09.187Z</time>
      </trkpt>
      <trkpt lat="43.21172" lon="5.45358">
        <ele>70.6</ele>
        <time>2012-05-12T06:28:12.187Z</time>
      </trkpt>
      <trkpt lat="43.21173" lon="5.45352">
        <ele>70.8</ele>
        <time>2012-05-12T06:28:16.187Z</time>
      </trkpt>
      <trkpt lat="43.21177" lon="5.45355">
        <ele>70.2</ele>
        <time>2012-05-12T06:28:18.187Z</time>
      </trkpt>
      <trkpt lat="43.21182" lon="5.45357">
        <ele>69.4</ele>
        <time>2012-05-12T06:28:19.734Z</time>
      </trkpt>
      <trkpt lat="43.21184" lon="5.45363">
        <ele>68.2</ele>
        <time>2012-05-12T06:28:29.150Z</time>
      </trkpt>
      <trkpt lat="43.21189" lon="5.45368">
        <ele>70</ele>
        <time>2012-05-12T06:28:31.757Z</time>
      </trkpt>
      <trkpt lat="43.21186" lon="5.45362">
        <ele>66.7</ele>
        <time>2012-05-12T06:28:56.566Z</time>
      </trkpt>
      <trkpt lat="43.21182" lon="5.45362">
        <ele>66.4</ele>
        <time>2012-05-12T06:29:11.666Z</time>
      </trkpt>
      <trkpt lat="43.21177" lon="5.45365">
        <ele>68.1</ele>
        <time>2012-05-12T06:29:28.666Z</time>
      </trkpt>
      <trkpt lat="43.21181" lon="5.45363">
        <ele>69</ele>
        <time>2012-05-12T06:29:57.788Z</time>
      </trkpt>
      <trkpt lat="43.21187" lon="5.45362">
        <ele>66.4</ele>
        <time>2012-05-12T06:29:58.788Z</time>
      </trkpt>
      <trkpt lat="43.21198" lon="5.45359">
        <ele>67</ele>
        <time>2012-05-12T06:29:59.294Z</time>
      </trkpt>
      <trkpt lat="43.21203" lon="5.45362">
        <ele>65.3</ele>
        <time>2012-05-12T06:30:01.078Z</time>
      </trkpt>
      <trkpt lat="43.21212" lon="5.45365">
        <ele>65.1</ele>
        <time>2012-05-12T06:30:04.192Z</time>
      </trkpt>
      <trkpt lat="43.21209" lon="5.4536">
        <ele>60.5</ele>
        <time>2012-05-12T06:30:06.091Z</time>
      </trkpt>
      <trkpt lat="43.21215" lon="5.45362">
        <ele>61</ele>
        <time>2012-05-12T06:30:20.785Z</time>
      </trkpt>
      <trkpt lat="43.21216" lon="5.45368">
        <ele>55.7</ele>
        <time>2012-05-12T06:30:31.947Z</time>
      </trkpt>
      <trkpt lat="43.21214" lon="5.45374">
        <ele>57.2</ele>
        <time>2012-05-12T06:30:36.790Z</time>
      </trkpt>
      <trkpt lat="43.21217" lon="5.45379">
        <ele>60</ele>
        <time>2012-05-12T06:30:44.174Z</time>
      </trkpt>
      <trkpt lat="43.21222" lon="5.4538">
        <ele>60.4</ele>
        <time>2012-05-12T06:30:57.635Z</time>
      </trkpt>
      <trkpt lat="43.21227" lon="5.45388">
        <ele>64.4</ele>
        <time>2012-05-12T06:31:12.724Z</time>
      </trkpt>
      <trkpt lat="43.21229" lon="5.45395">
        <ele>63.2</ele>
        <time>2012-05-12T06:31:24.264Z</time>
      </trkpt>
      <trkpt lat="43.21234" lon="5.45398">
        <ele>62.1</ele>
        <time>2012-05-12T06:31:29.403Z</time>
      </trkpt>
      <trkpt lat="43.21234" lon="5.45405">
        <ele>67.3</ele>
        <time>2012-05-12T06:31:40.090Z</time>
      </trkpt>
      <trkpt lat="43.21234" lon="5.45412">
        <ele>68.4</ele>
        <time>2012-05-12T06:31:48.387Z</time>
      </trkpt>
      <trkpt lat="43.21231" lon="5.45417">
        <ele>71.4</ele>
        <time>2012-05-12T06:31:51.387Z</time>
      </trkpt>
      <trkpt lat="43.21234" lon="5.45423">
        <ele>67.5</ele>
        <time>2012-05-12T06:32:00.336Z</time>
      </trkpt>
      <trkpt lat="43.21238" lon="5.45431">
        <ele>67.3</ele>
        <time>2012-05-12T06:32:04.412Z</time>
      </trkpt>
      <trkpt lat="43.21228" lon="5.45421">
        <ele>64.4</ele>
        <time>2012-05-12T06:32:05.918Z</time>
      </trkpt>
      <trkpt lat="43.21231" lon="5.45427">
        <ele>62.3</ele>
        <time>2012-05-12T06:32:07.343Z</time>
      </trkpt>
      <trkpt lat="43.21235" lon="5.45435">
        <ele>61.5</ele>
        <time>2012-05-12T06:32:09.093Z</time>
      </trkpt>
      <trkpt lat="43.21237" lon="5.45442">
        <ele>62.6</ele>
        <time>2012-05-12T06:32:12.790Z</time>
      </trkpt>
      <trkpt lat="43.21232" lon="5.45446">
        <ele>62.5</ele>
        <time>2012-05-12T06:32:16.092Z</time>
      </trkpt>
      <trkpt lat="43.2123" lon="5.45454">
        <ele>65.8</ele>
        <time>2012-05-12T06:32:22.091Z</time>
      </trkpt>
      <trkpt lat="43.21228" lon="5.45462">
        <ele>67.6</ele>
        <time>2012-05-12T06:32:29.250Z</time>
      </trkpt>
      <trkpt lat="43.21223" lon="5.45462">
        <ele>66.7</ele>
        <time>2012-05-12T06:32:33.083Z</time>
      </trkpt>
      <trkpt lat="43.21218" lon="5.45465">
        <ele>66.5</ele>
        <time>2012-05-12T06:32:36.089Z</time>
      </trkpt>
      <trkpt lat="43.21217" lon="5.45471">
        <ele>64.8</ele>
        <time>2012-05-12T06:32:41.083Z</time>
      </trkpt>
      <trkpt lat="43.21214" lon="5.45476">
        <ele>65.2</ele>
        <time>2012-05-12T06:32:46.077Z</time>
      </trkpt>
      <trkpt lat="43.2121" lon="5.45481">
        <ele>65</ele>
        <time>2012-05-12T06:32:52.092Z</time>
      </trkpt>
      <trkpt lat="43.21207" lon="5.45486">
        <ele>65.5</ele>
        <time>2012-05-12T06:32:58.342Z</time>
      </trkpt>
      <trkpt lat="43.21206" lon="5.45493">
        <ele>64.9</ele>
        <time>2012-05-12T06:33:08.875Z</time>
      </trkpt>
      <trkpt lat="43.21202" lon="5.455">
        <ele>61.7</ele>
        <time>2012-05-12T06:33:14.790Z</time>
      </trkpt>
      <trkpt lat="43.21202" lon="5.45506">
        <ele>62.1</ele>
        <time>2012-05-12T06:33:18.733Z</time>
      </trkpt>
      <trkpt lat="43.21204" lon="5.45513">
        <ele>62.8</ele>
        <time>2012-05-12T06:33:23.480Z</time>
      </trkpt>
      <trkpt lat="43.21209" lon="5.45518">
        <ele>62</ele>
        <time>2012-05-12T06:33:26.723Z</time>
      </trkpt>
      <trkpt lat="43.21209" lon="5.45525">
        <ele>62.4</ele>
        <time>2012-05-12T06:33:30.074Z</time>
      </trkpt>
      <trkpt lat="43.21208" lon="5.45532">
        <ele>61.2</ele>
        <time>2012-05-12T06:33:34.791Z</time>
      </trkpt>
      <trkpt lat="43.21204" lon="5.45537">
        <ele>66</ele>
        <time>2012-05-12T06:33:37.791Z</time>
      </trkpt>
      <trkpt lat="43.21203" lon="5.45547">
        <ele>70.7</ele>
        <time>2012-05-12T06:33:43.791Z</time>
      </trkpt>
      <trkpt lat="43.21204" lon="5.45553">
        <ele>71</ele>
        <time>2012-05-12T06:33:47.604Z</time>
      </trkpt>
      <trkpt lat="43.21203" lon="5.45559">
        <ele>74.8</ele>
        <time>2012-05-12T06:33:50.604Z</time>
      </trkpt>
      <trkpt lat="43.21201" lon="5.45566">
        <ele>76.2</ele>
        <time>2012-05-12T06:33:56.604Z</time>
      </trkpt>
      <trkpt lat="43.21199" lon="5.45572">
        <ele>77.7</ele>
        <time>2012-05-12T06:33:59.604Z</time>
      </trkpt>
      <trkpt lat="43.21202" lon="5.45576">
        <ele>78.8</ele>
        <time>2012-05-12T06:34:12.490Z</time>
      </trkpt>
      <trkpt lat="43.21191" lon="5.45573">
        <ele>73.2</ele>
        <time>2012-05-12T06:34:15.040Z</time>
      </trkpt>
      <trkpt lat="43.21187" lon="5.4558">
        <ele>74.6</ele>
        <time>2012-05-12T06:34:20.764Z</time>
      </trkpt>
      <trkpt lat="43.21181" lon="5.45578">
        <ele>70.1</ele>
        <time>2012-05-12T06:34:28.324Z</time>
      </trkpt>
      <trkpt lat="43.21176" lon="5.45579">
        <ele>66.5</ele>
        <time>2012-05-12T06:34:35.324Z</time>
      </trkpt>
      <trkpt lat="43.21174" lon="5.45586">
        <ele>61.8</ele>
        <time>2012-05-12T06:35:01.929Z</time>
      </trkpt>
      <trkpt lat="43.21164" lon="5.45591">
        <ele>61.8</ele>
        <time>2012-05-12T06:35:10.091Z</time>
      </trkpt>
      <trkpt lat="43.21159" lon="5.45591">
        <ele>63.2</ele>
        <time>2012-05-12T06:35:17.264Z</time>
      </trkpt>
      <trkpt lat="43.21159" lon="5.45584">
        <ele>62.9</ele>
        <time>2012-05-12T06:35:22.076Z</time>
      </trkpt>
      <trkpt lat="43.21155" lon="5.45579">
        <ele>64.9</ele>
        <time>2012-05-12T06:35:26.249Z</time>
      </trkpt>
      <trkpt lat="43.2115" lon="5.45579">
        <ele>62.8</ele>
        <time>2012-05-12T06:35:29.290Z</time>
      </trkpt>
      <trkpt lat="43.21142" lon="5.45593">
        <ele>52.8</ele>
        <time>2012-05-12T06:35:30.755Z</time>
      </trkpt>
      <trkpt lat="43.21143" lon="5.45585">
        <ele>62.2</ele>
        <time>2012-05-12T06:35:36.084Z</time>
      </trkpt>
      <trkpt lat="43.21151" lon="5.45594">
        <ele>59.8</ele>
        <time>2012-05-12T06:36:17.537Z</time>
      </trkpt>
      <trkpt lat="43.21155" lon="5.45599">
        <ele>56.4</ele>
        <time>2012-05-12T06:36:20.118Z</time>
      </trkpt>
      <trkpt lat="43.21156" lon="5.45606">
        <ele>55</ele>
        <time>2012-05-12T06:36:28.705Z</time>
      </trkpt>
      <trkpt lat="43.21158" lon="5.45612">
        <ele>55.9</ele>
        <time>2012-05-12T06:36:31.705Z</time>
      </trkpt>
      <trkpt lat="43.21157" lon="5.45618">
        <ele>59.5</ele>
        <time>2012-05-12T06:36:36.152Z</time>
      </trkpt>
      <trkpt lat="43.21159" lon="5.45624">
        <ele>61.5</ele>
        <time>2012-05-12T06:36:41.250Z</time>
      </trkpt>
      <trkpt lat="43.21161" lon="5.4563">
        <ele>66.1</ele>
        <time>2012-05-12T06:37:07.250Z</time>
      </trkpt>
      <trkpt lat="43.21166" lon="5.45634">
        <ele>65.8</ele>
        <time>2012-05-12T06:37:10.250Z</time>
      </trkpt>
      <trkpt lat="43.21171" lon="5.45637">
        <ele>65.9</ele>
        <time>2012-05-12T06:37:14.250Z</time>
      </trkpt>
      <trkpt lat="43.21176" lon="5.45645">
        <ele>66.4</ele>
        <time>2012-05-12T06:37:37.314Z</time>
      </trkpt>
      <trkpt lat="43.21181" lon="5.4565">
        <ele>63.7</ele>
        <time>2012-05-12T06:37:53.942Z</time>
      </trkpt>
      <trkpt lat="43.21185" lon="5.45651">
        <ele>69.5</ele>
        <time>2012-05-12T06:38:07.960Z</time>
      </trkpt>
      <trkpt lat="43.21191" lon="5.4565">
        <ele>71.7</ele>
        <time>2012-05-12T06:38:11.427Z</time>
      </trkpt>
      <trkpt lat="43.21198" lon="5.4565">
        <ele>70.8</ele>
        <time>2012-05-12T06:38:17.427Z</time>
      </trkpt>
      <trkpt lat="43.21203" lon="5.45651">
        <ele>70.6</ele>
        <time>2012-05-12T06:38:22.427Z</time>
      </trkpt>
      <trkpt lat="43.21209" lon="5.45651">
        <ele>70.3</ele>
        <time>2012-05-12T06:38:50.307Z</time>
      </trkpt>
      <trkpt lat="43.21215" lon="5.45655">
        <ele>70.9</ele>
        <time>2012-05-12T06:38:52.307Z</time>
      </trkpt>
      <trkpt lat="43.21219" lon="5.45658">
        <ele>71</ele>
        <time>2012-05-12T06:38:54.307Z</time>
      </trkpt>
      <trkpt lat="43.21224" lon="5.45657">
        <ele>72.1</ele>
        <time>2012-05-12T06:38:59.307Z</time>
      </trkpt>
      <trkpt lat="43.2123" lon="5.45656">
        <ele>75.1</ele>
        <time>2012-05-12T06:39:22.307Z</time>
      </trkpt>
      <trkpt lat="43.21234" lon="5.45664">
        <ele>75.4</ele>
        <time>2012-05-12T06:39:23.307Z</time>
      </trkpt>
      <trkpt lat="43.21239" lon="5.45673">
        <ele>77.9</ele>
        <time>2012-05-12T06:39:33.202Z</time>
      </trkpt>
      <trkpt lat="43.21246" lon="5.45682">
        <ele>79.4</ele>
        <time>2012-05-12T06:40:24.941Z</time>
      </trkpt>
      <trkpt lat="43.21251" lon="5.45687">
        <ele>79.2</ele>
        <time>2012-05-12T06:40:25.941Z</time>
      </trkpt>
      <trkpt lat="43.21258" lon="5.4569">
        <ele>79</ele>
        <time>2012-05-12T06:40:27.941Z</time>
      </trkpt>
      <trkpt lat="43.21264" lon="5.45698">
        <ele>78.7</ele>
        <time>2012-05-12T06:40:29.326Z</time>
      </trkpt>
      <trkpt lat="43.21274" lon="5.45696">
        <ele>78.7</ele>
        <time>2012-05-12T06:40:34.221Z</time>
      </trkpt>
      <trkpt lat="43.21286" lon="5.45725">
        <ele>77.2</ele>
        <time>2012-05-12T06:40:36.146Z</time>
      </trkpt>
      <trkpt lat="43.21283" lon="5.45717">
        <ele>77.1</ele>
        <time>2012-05-12T06:40:39.216Z</time>
      </trkpt>
      <trkpt lat="43.21281" lon="5.45704">
        <ele>79.4</ele>
        <time>2012-05-12T06:40:40.216Z</time>
      </trkpt>
      <trkpt lat="43.2128" lon="5.45697">
        <ele>82.7</ele>
        <time>2012-05-12T06:40:41.115Z</time>
      </trkpt>
      <trkpt lat="43.21279" lon="5.45685">
        <ele>87</ele>
        <time>2012-05-12T06:40:43.257Z</time>
      </trkpt>
      <trkpt lat="43.21278" lon="5.45678">
        <ele>90.5</ele>
        <time>2012-05-12T06:40:45.257Z</time>
      </trkpt>
      <trkpt lat="43.21278" lon="5.45672">
        <ele>92.9</ele>
        <time>2012-05-12T06:40:47.084Z</time>
      </trkpt>
      <trkpt lat="43.21278" lon="5.45634">
        <ele>124.2</ele>
        <time>2012-05-12T06:42:30.312Z</time>
      </trkpt>
      <trkpt lat="43.21283" lon="5.45633">
        <ele>122.7</ele>
        <time>2012-05-12T06:42:30.777Z</time>
      </trkpt>
      <trkpt lat="43.2128" lon="5.45639">
        <ele>117.7</ele>
        <time>2012-05-12T06:42:33.992Z</time>
      </trkpt>
      <trkpt lat="43.21277" lon="5.45644">
        <ele>116.3</ele>
        <time>2012-05-12T06:42:37.992Z</time>
      </trkpt>
      <trkpt lat="43.21271" lon="5.45641">
        <ele>115.7</ele>
        <time>2012-05-12T06:42:41.992Z</time>
      </trkpt>
      <trkpt lat="43.21273" lon="5.45633">
        <ele>120.4</ele>
        <time>2012-05-12T06:43:04.545Z</time>
      </trkpt>
      <trkpt lat="43.21277" lon="5.45626">
        <ele>123.3</ele>
        <time>2012-05-12T06:43:04.971Z</time>
      </trkpt>
      <trkpt lat="43.21278" lon="5.45619">
        <ele>121.9</ele>
        <time>2012-05-12T06:43:11.073Z</time>
      </trkpt>
      <trkpt lat="43.21283" lon="5.45614">
        <ele>119.7</ele>
        <time>2012-05-12T06:43:14.113Z</time>
      </trkpt>
      <trkpt lat="43.21293" lon="5.45593">
        <ele>115.3</ele>
        <time>2012-05-12T06:43:23.021Z</time>
      </trkpt>
      <trkpt lat="43.21298" lon="5.45595">
        <ele>105.5</ele>
        <time>2012-05-12T06:43:36.013Z</time>
      </trkpt>
      <trkpt lat="43.21302" lon="5.45588">
        <ele>103</ele>
        <time>2012-05-12T06:43:39.537Z</time>
      </trkpt>
      <trkpt lat="43.21297" lon="5.45586">
        <ele>105.6</ele>
        <time>2012-05-12T06:43:47.080Z</time>
      </trkpt>
      <trkpt lat="43.213" lon="5.45579">
        <ele>104.7</ele>
        <time>2012-05-12T06:44:11.353Z</time>
      </trkpt>
      <trkpt lat="43.21303" lon="5.45574">
        <ele>110.4</ele>
        <time>2012-05-12T06:44:18.298Z</time>
      </trkpt>
      <trkpt lat="43.21305" lon="5.45568">
        <ele>113.2</ele>
        <time>2012-05-12T06:44:24.789Z</time>
      </trkpt>
      <trkpt lat="43.21309" lon="5.45564">
        <ele>114.6</ele>
        <time>2012-05-12T06:44:31.689Z</time>
      </trkpt>
      <trkpt lat="43.21309" lon="5.45557">
        <ele>117.9</ele>
        <time>2012-05-12T06:44:43.451Z</time>
      </trkpt>
      <trkpt lat="43.21315" lon="5.4555">
        <ele>114</ele>
        <time>2012-05-12T06:44:44.951Z</time>
      </trkpt>
      <trkpt lat="43.2132" lon="5.45551">
        <ele>116.5</ele>
        <time>2012-05-12T06:44:52.951Z</time>
      </trkpt>
      <trkpt lat="43.21326" lon="5.45554">
        <ele>118.9</ele>
        <time>2012-05-12T06:45:21.151Z</time>
      </trkpt>
      <trkpt lat="43.21331" lon="5.45549">
        <ele>119.3</ele>
        <time>2012-05-12T06:45:26.112Z</time>
      </trkpt>
      <trkpt lat="43.21335" lon="5.45545">
        <ele>120.4</ele>
        <time>2012-05-12T06:45:32.287Z</time>
      </trkpt>
      <trkpt lat="43.21339" lon="5.4554">
        <ele>121.7</ele>
        <time>2012-05-12T06:45:34.287Z</time>
      </trkpt>
      <trkpt lat="43.21343" lon="5.45536">
        <ele>127.3</ele>
        <time>2012-05-12T06:46:08.287Z</time>
      </trkpt>
      <trkpt lat="43.21347" lon="5.45532">
        <ele>128.6</ele>
        <time>2012-05-12T06:46:13.287Z</time>
      </trkpt>
      <trkpt lat="43.21343" lon="5.45519">
        <ele>133</ele>
        <time>2012-05-12T06:47:01.401Z</time>
      </trkpt>
      <trkpt lat="43.21347" lon="5.45512">
        <ele>132.3</ele>
        <time>2012-05-12T06:47:02.401Z</time>
      </trkpt>
      <trkpt lat="43.21351" lon="5.45505">
        <ele>133.1</ele>
        <time>2012-05-12T06:47:03.401Z</time>
      </trkpt>
      <trkpt lat="43.21353" lon="5.45497">
        <ele>132.5</ele>
        <time>2012-05-12T06:47:05.401Z</time>
      </trkpt>
      <trkpt lat="43.21349" lon="5.45488">
        <ele>132.8</ele>
        <time>2012-05-12T06:47:07.401Z</time>
      </trkpt>
      <trkpt lat="43.21352" lon="5.4548">
        <ele>132.4</ele>
        <time>2012-05-12T06:47:08.401Z</time>
      </trkpt>
      <trkpt lat="43.2134" lon="5.45479">
        <ele>135.3</ele>
        <time>2012-05-12T06:47:09.401Z</time>
      </trkpt>
      <trkpt lat="43.21349" lon="5.45481">
        <ele>142.7</ele>
        <time>2012-05-12T06:47:11.401Z</time>
      </trkpt>
      <trkpt lat="43.21353" lon="5.45482">
        <ele>144.9</ele>
        <time>2012-05-12T06:47:12.401Z</time>
      </trkpt>
      <trkpt lat="43.21358" lon="5.4548">
        <ele>145.3</ele>
        <time>2012-05-12T06:47:15.401Z</time>
      </trkpt>
      <trkpt lat="43.21362" lon="5.45476">
        <ele>144.8</ele>
        <time>2012-05-12T06:47:17.401Z</time>
      </trkpt>
      <trkpt lat="43.21367" lon="5.4547">
        <ele>146.8</ele>
        <time>2012-05-12T06:47:25.401Z</time>
      </trkpt>
      <trkpt lat="43.21372" lon="5.45469">
        <ele>147.9</ele>
        <time>2012-05-12T06:47:26.401Z</time>
      </trkpt>
      <trkpt lat="43.21372" lon="5.45462">
        <ele>150.3</ele>
        <time>2012-05-12T06:47:47.281Z</time>
      </trkpt>
      <trkpt lat="43.21368" lon="5.45455">
        <ele>153.7</ele>
        <time>2012-05-12T06:47:53.281Z</time>
      </trkpt>
      <trkpt lat="43.21368" lon="5.45449">
        <ele>155.3</ele>
        <time>2012-05-12T06:47:57.281Z</time>
      </trkpt>
      <trkpt lat="43.21367" lon="5.45442">
        <ele>155.5</ele>
        <time>2012-05-12T06:48:01.281Z</time>
      </trkpt>
      <trkpt lat="43.21359" lon="5.45437">
        <ele>159.3</ele>
        <time>2012-05-12T06:48:06.281Z</time>
      </trkpt>
      <trkpt lat="43.21361" lon="5.4543">
        <ele>163.2</ele>
        <time>2012-05-12T06:48:10.281Z</time>
      </trkpt>
      <trkpt lat="43.21363" lon="5.45422">
        <ele>164.8</ele>
        <time>2012-05-12T06:48:15.911Z</time>
      </trkpt>
      <trkpt lat="43.21364" lon="5.45412">
        <ele>169</ele>
        <time>2012-05-12T06:48:19.911Z</time>
      </trkpt>
      <trkpt lat="43.21367" lon="5.45406">
        <ele>171.8</ele>
        <time>2012-05-12T06:48:26.911Z</time>
      </trkpt>
      <trkpt lat="43.21368" lon="5.454">
        <ele>174.9</ele>
        <time>2012-05-12T06:49:08.206Z</time>
      </trkpt>
      <trkpt lat="43.2137" lon="5.45392">
        <ele>176.7</ele>
        <time>2012-05-12T06:49:25.206Z</time>
      </trkpt>
      <trkpt lat="43.21378" lon="5.4537">
        <ele>177.3</ele>
        <time>2012-05-12T06:49:32.354Z</time>
      </trkpt>
      <trkpt lat="43.2138" lon="5.45364">
        <ele>177.1</ele>
        <time>2012-05-12T06:49:33.354Z</time>
      </trkpt>
      <trkpt lat="43.21385" lon="5.45361">
        <ele>177.2</ele>
        <time>2012-05-12T06:49:34.354Z</time>
      </trkpt>
      <trkpt lat="43.2139" lon="5.45356">
        <ele>177.1</ele>
        <time>2012-05-12T06:49:36.354Z</time>
      </trkpt>
      <trkpt lat="43.21396" lon="5.45349">
        <ele>177.3</ele>
        <time>2012-05-12T06:49:43.354Z</time>
      </trkpt>
      <trkpt lat="43.21401" lon="5.45346">
        <ele>177.5</ele>
        <time>2012-05-12T06:49:46.354Z</time>
      </trkpt>
      <trkpt lat="43.21397" lon="5.45343">
        <ele>178.4</ele>
        <time>2012-05-12T06:49:52.354Z</time>
      </trkpt>
      <trkpt lat="43.21392" lon="5.4534">
        <ele>181.2</ele>
        <time>2012-05-12T06:49:58.354Z</time>
      </trkpt>
      <trkpt lat="43.2139" lon="5.45334">
        <ele>184.3</ele>
        <time>2012-05-12T06:51:04.267Z</time>
      </trkpt>
      <trkpt lat="43.21391" lon="5.45325">
        <ele>186.2</ele>
        <time>2012-05-12T06:51:08.267Z</time>
      </trkpt>
      <trkpt lat="43.21393" lon="5.4532">
        <ele>188.2</ele>
        <time>2012-05-12T06:51:13.267Z</time>
      </trkpt>
      <trkpt lat="43.21394" lon="5.45311">
        <ele>190.9</ele>
        <time>2012-05-12T06:51:17.267Z</time>
      </trkpt>
      <trkpt lat="43.21396" lon="5.45306">
        <ele>193.5</ele>
        <time>2012-05-12T06:51:25.934Z</time>
      </trkpt>
      <trkpt lat="43.2139" lon="5.45299">
        <ele>193.5</ele>
        <time>2012-05-12T06:51:29.197Z</time>
      </trkpt>
      <trkpt lat="43.21387" lon="5.45292">
        <ele>198.8</ele>
        <time>2012-05-12T06:51:32.197Z</time>
      </trkpt>
      <trkpt lat="43.21387" lon="5.45285">
        <ele>199.9</ele>
        <time>2012-05-12T06:51:38.197Z</time>
      </trkpt>
      <trkpt lat="43.21392" lon="5.45286">
        <ele>198.5</ele>
        <time>2012-05-12T06:51:42.078Z</time>
      </trkpt>
      <trkpt lat="43.21388" lon="5.45289">
        <ele>201.5</ele>
        <time>2012-05-12T06:51:46.719Z</time>
      </trkpt>
      <trkpt lat="43.21393" lon="5.45283">
        <ele>205.6</ele>
        <time>2012-05-12T06:52:10.719Z</time>
      </trkpt>
      <trkpt lat="43.2139" lon="5.45276">
        <ele>205.8</ele>
        <time>2012-05-12T06:52:12.719Z</time>
      </trkpt>
      <trkpt lat="43.21397" lon="5.45269">
        <ele>207.6</ele>
        <time>2012-05-12T06:52:47.296Z</time>
      </trkpt>
      <trkpt lat="43.21398" lon="5.45262">
        <ele>208</ele>
        <time>2012-05-12T06:52:48.296Z</time>
      </trkpt>
      <trkpt lat="43.21395" lon="5.45251">
        <ele>209.3</ele>
        <time>2012-05-12T06:52:51.296Z</time>
      </trkpt>
      <trkpt lat="43.21406" lon="5.45253">
        <ele>202.1</ele>
        <time>2012-05-12T06:53:09.296Z</time>
      </trkpt>
      <trkpt lat="43.21406" lon="5.45243">
        <ele>199.8</ele>
        <time>2012-05-12T06:53:12.296Z</time>
      </trkpt>
      <trkpt lat="43.21408" lon="5.45237">
        <ele>197.7</ele>
        <time>2012-05-12T06:53:13.296Z</time>
      </trkpt>
      <trkpt lat="43.21405" lon="5.45224">
        <ele>198.7</ele>
        <time>2012-05-12T06:53:14.296Z</time>
      </trkpt>
      <trkpt lat="43.214" lon="5.45209">
        <ele>198.3</ele>
        <time>2012-05-12T06:53:15.296Z</time>
      </trkpt>
      <trkpt lat="43.214" lon="5.45203">
        <ele>197.2</ele>
        <time>2012-05-12T06:53:17.296Z</time>
      </trkpt>
      <trkpt lat="43.21407" lon="5.45211">
        <ele>196.8</ele>
        <time>2012-05-12T06:53:19.296Z</time>
      </trkpt>
      <trkpt lat="43.21407" lon="5.45203">
        <ele>198.2</ele>
        <time>2012-05-12T06:53:22.296Z</time>
      </trkpt>
      <trkpt lat="43.21406" lon="5.45196">
        <ele>200</ele>
        <time>2012-05-12T06:53:25.296Z</time>
      </trkpt>
      <trkpt lat="43.21407" lon="5.45203">
        <ele>203.3</ele>
        <time>2012-05-12T06:53:32.299Z</time>
      </trkpt>
      <trkpt lat="43.21412" lon="5.45209">
        <ele>204.5</ele>
        <time>2012-05-12T06:53:39.299Z</time>
      </trkpt>
      <trkpt lat="43.21417" lon="5.4521">
        <ele>207</ele>
        <time>2012-05-12T06:53:43.299Z</time>
      </trkpt>
      <trkpt lat="43.21415" lon="5.45198">
        <ele>208.4</ele>
        <time>2012-05-12T06:54:04.073Z</time>
      </trkpt>
      <trkpt lat="43.21422" lon="5.45201">
        <ele>210.4</ele>
        <time>2012-05-12T06:54:21.235Z</time>
      </trkpt>
      <trkpt lat="43.21425" lon="5.45195">
        <ele>213.7</ele>
        <time>2012-05-12T06:54:37.271Z</time>
      </trkpt>
      <trkpt lat="43.21426" lon="5.45187">
        <ele>217.5</ele>
        <time>2012-05-12T06:54:41.271Z</time>
      </trkpt>
      <trkpt lat="43.21419" lon="5.45171">
        <ele>224.8</ele>
        <time>2012-05-12T06:54:43.774Z</time>
      </trkpt>
      <trkpt lat="43.21415" lon="5.45166">
        <ele>228.1</ele>
        <time>2012-05-12T06:54:48.791Z</time>
      </trkpt>
      <trkpt lat="43.21415" lon="5.45166">
        <ele>228.1</ele>
        <time>2012-05-12T06:54:48.791Z</time>
      </trkpt>
      <trkpt lat="43.21415" lon="5.45166">
        <ele>228.1</ele>
        <time>2012-05-12T06:54:49.937Z</time>
      </trkpt>
      <trkpt lat="43.21414" lon="5.45173">
        <ele>229.4</ele>
        <time>2012-05-12T06:54:53.937Z</time>
      </trkpt>
      <trkpt lat="43.21417" lon="5.45178">
        <ele>230.7</ele>
        <time>2012-05-12T06:55:01.937Z</time>
      </trkpt>
      <trkpt lat="43.21423" lon="5.4518">
        <ele>234.1</ele>
        <time>2012-05-12T06:55:14.784Z</time>
      </trkpt>
      <trkpt lat="43.21425" lon="5.45188">
        <ele>238.9</ele>
        <time>2012-05-12T06:55:25.075Z</time>
      </trkpt>
      <trkpt lat="43.21425" lon="5.45188">
        <ele>238.9</ele>
        <time>2012-05-12T06:55:25.075Z</time>
      </trkpt>
      <trkpt lat="43.21425" lon="5.45188">
        <ele>238.9</ele>
        <time>2012-05-12T06:55:26.791Z</time>
      </trkpt>
      <trkpt lat="43.21427" lon="5.45181">
        <ele>246.7</ele>
        <time>2012-05-12T06:55:51.083Z</time>
      </trkpt>
      <trkpt lat="43.21431" lon="5.45184">
        <ele>249.1</ele>
        <time>2012-05-12T06:55:55.242Z</time>
      </trkpt>
      <trkpt lat="43.21425" lon="5.45187">
        <ele>261.2</ele>
        <time>2012-05-12T06:56:02.270Z</time>
      </trkpt>
      <trkpt lat="43.21429" lon="5.4518">
        <ele>257.2</ele>
        <time>2012-05-12T06:56:08.208Z</time>
      </trkpt>
      <trkpt lat="43.21434" lon="5.45183">
        <ele>255.9</ele>
        <time>2012-05-12T06:56:26.227Z</time>
      </trkpt>
      <trkpt lat="43.2144" lon="5.45186">
        <ele>256.4</ele>
        <time>2012-05-12T06:56:31.238Z</time>
      </trkpt>
      <trkpt lat="43.21441" lon="5.45179">
        <ele>253.7</ele>
        <time>2012-05-12T06:56:32.238Z</time>
      </trkpt>
      <trkpt lat="43.21443" lon="5.4517">
        <ele>248.5</ele>
        <time>2012-05-12T06:56:32.736Z</time>
      </trkpt>
      <trkpt lat="43.21448" lon="5.45172">
        <ele>250.6</ele>
        <time>2012-05-12T06:56:38.795Z</time>
      </trkpt>
      <trkpt lat="43.21452" lon="5.4517">
        <ele>245.3</ele>
        <time>2012-05-12T06:56:47.795Z</time>
      </trkpt>
      <trkpt lat="43.21461" lon="5.45156">
        <ele>226</ele>
        <time>2012-05-12T06:56:49.265Z</time>
      </trkpt>
      <trkpt lat="43.21455" lon="5.45159">
        <ele>231.7</ele>
        <time>2012-05-12T06:57:04.075Z</time>
      </trkpt>
      <trkpt lat="43.21461" lon="5.45158">
        <ele>226.3</ele>
        <time>2012-05-12T06:57:07.659Z</time>
      </trkpt>
      <trkpt lat="43.21465" lon="5.45153">
        <ele>233.2</ele>
        <time>2012-05-12T06:57:23.790Z</time>
      </trkpt>
      <trkpt lat="43.21468" lon="5.45146">
        <ele>229.4</ele>
        <time>2012-05-12T06:57:29.299Z</time>
      </trkpt>
      <trkpt lat="43.21467" lon="5.4514">
        <ele>230.3</ele>
        <time>2012-05-12T06:57:35.076Z</time>
      </trkpt>
      <trkpt lat="43.21459" lon="5.45136">
        <ele>229.7</ele>
        <time>2012-05-12T06:57:38.270Z</time>
      </trkpt>
      <trkpt lat="43.21468" lon="5.4514">
        <ele>232.9</ele>
        <time>2012-05-12T06:57:42.079Z</time>
      </trkpt>
      <trkpt lat="43.21471" lon="5.45134">
        <ele>235.4</ele>
        <time>2012-05-12T06:57:47.086Z</time>
      </trkpt>
      <trkpt lat="43.21475" lon="5.45132">
        <ele>239.9</ele>
        <time>2012-05-12T06:58:03.073Z</time>
      </trkpt>
      <trkpt lat="43.21479" lon="5.45126">
        <ele>239.6</ele>
        <time>2012-05-12T06:58:09.228Z</time>
      </trkpt>
      <trkpt lat="43.21482" lon="5.4512">
        <ele>242.7</ele>
        <time>2012-05-12T06:58:13.093Z</time>
      </trkpt>
      <trkpt lat="43.21485" lon="5.45115">
        <ele>242.6</ele>
        <time>2012-05-12T06:58:17.090Z</time>
      </trkpt>
      <trkpt lat="43.21486" lon="5.45108">
        <ele>242.6</ele>
        <time>2012-05-12T06:58:22.078Z</time>
      </trkpt>
      <trkpt lat="43.21491" lon="5.4511">
        <ele>242.4</ele>
        <time>2012-05-12T06:58:26.272Z</time>
      </trkpt>
      <trkpt lat="43.21497" lon="5.45106">
        <ele>239.5</ele>
        <time>2012-05-12T06:58:29.731Z</time>
      </trkpt>
      <trkpt lat="43.215" lon="5.45112">
        <ele>242.6</ele>
        <time>2012-05-12T06:58:38.127Z</time>
      </trkpt>
      <trkpt lat="43.21506" lon="5.45114">
        <ele>243.2</ele>
        <time>2012-05-12T06:58:43.094Z</time>
      </trkpt>
      <trkpt lat="43.21512" lon="5.45111">
        <ele>244.1</ele>
        <time>2012-05-12T06:58:47.400Z</time>
      </trkpt>
      <trkpt lat="43.21516" lon="5.45113">
        <ele>242.2</ele>
        <time>2012-05-12T06:58:52.092Z</time>
      </trkpt>
      <trkpt lat="43.21521" lon="5.45117">
        <ele>241.9</ele>
        <time>2012-05-12T06:59:02.092Z</time>
      </trkpt>
      <trkpt lat="43.21525" lon="5.4512">
        <ele>243.4</ele>
        <time>2012-05-12T06:59:07.094Z</time>
      </trkpt>
      <trkpt lat="43.21529" lon="5.45122">
        <ele>244.4</ele>
        <time>2012-05-12T06:59:09.734Z</time>
      </trkpt>
      <trkpt lat="43.21534" lon="5.45122">
        <ele>243.8</ele>
        <time>2012-05-12T06:59:16.306Z</time>
      </trkpt>
      <trkpt lat="43.21527" lon="5.4512">
        <ele>243.6</ele>
        <time>2012-05-12T06:59:17.771Z</time>
      </trkpt>
      <trkpt lat="43.21531" lon="5.45124">
        <ele>244.8</ele>
        <time>2012-05-12T06:59:24.263Z</time>
      </trkpt>
      <trkpt lat="43.21536" lon="5.45126">
        <ele>245.4</ele>
        <time>2012-05-12T06:59:29.072Z</time>
      </trkpt>
      <trkpt lat="43.21541" lon="5.45132">
        <ele>245.9</ele>
        <time>2012-05-12T06:59:32.834Z</time>
      </trkpt>
      <trkpt lat="43.21546" lon="5.45136">
        <ele>247.9</ele>
        <time>2012-05-12T06:59:37.083Z</time>
      </trkpt>
      <trkpt lat="43.21551" lon="5.45138">
        <ele>247.8</ele>
        <time>2012-05-12T06:59:41.293Z</time>
      </trkpt>
      <trkpt lat="43.21556" lon="5.4514">
        <ele>248</ele>
        <time>2012-05-12T06:59:44.087Z</time>
      </trkpt>
      <trkpt lat="43.2156" lon="5.45142">
        <ele>249.7</ele>
        <time>2012-05-12T06:59:46.097Z</time>
      </trkpt>
      <trkpt lat="43.21565" lon="5.45144">
        <ele>249.9</ele>
        <time>2012-05-12T06:59:51.074Z</time>
      </trkpt>
      <trkpt lat="43.21569" lon="5.45146">
        <ele>251.8</ele>
        <time>2012-05-12T06:59:55.255Z</time>
      </trkpt>
      <trkpt lat="43.21574" lon="5.4515">
        <ele>251.6</ele>
        <time>2012-05-12T07:00:02.255Z</time>
      </trkpt>
      <trkpt lat="43.21577" lon="5.45154">
        <ele>251.5</ele>
        <time>2012-05-12T07:00:06.416Z</time>
      </trkpt>
      <trkpt lat="43.21581" lon="5.45158">
        <ele>252.3</ele>
        <time>2012-05-12T07:00:10.162Z</time>
      </trkpt>
      <trkpt lat="43.21584" lon="5.45164">
        <ele>253.4</ele>
        <time>2012-05-12T07:00:14.889Z</time>
      </trkpt>
      <trkpt lat="43.21585" lon="5.45171">
        <ele>254.1</ele>
        <time>2012-05-12T07:00:51.076Z</time>
      </trkpt>
      <trkpt lat="43.21585" lon="5.45178">
        <ele>259.1</ele>
        <time>2012-05-12T07:00:56.155Z</time>
      </trkpt>
      <trkpt lat="43.21585" lon="5.45184">
        <ele>261</ele>
        <time>2012-05-12T07:01:02.075Z</time>
      </trkpt>
      <trkpt lat="43.21586" lon="5.4519">
        <ele>262.9</ele>
        <time>2012-05-12T07:01:06.092Z</time>
      </trkpt>
      <trkpt lat="43.21591" lon="5.45195">
        <ele>262.4</ele>
        <time>2012-05-12T07:01:09.702Z</time>
      </trkpt>
      <trkpt lat="43.21595" lon="5.45194">
        <ele>264.6</ele>
        <time>2012-05-12T07:01:13.094Z</time>
      </trkpt>
      <trkpt lat="43.21589" lon="5.45194">
        <ele>263.9</ele>
        <time>2012-05-12T07:01:26.099Z</time>
      </trkpt>
      <trkpt lat="43.21584" lon="5.45193">
        <ele>265.1</ele>
        <time>2012-05-12T07:01:38.796Z</time>
      </trkpt>
      <trkpt lat="43.21578" lon="5.45192">
        <ele>265.9</ele>
        <time>2012-05-12T07:01:41.080Z</time>
      </trkpt>
      <trkpt lat="43.21572" lon="5.45193">
        <ele>267.3</ele>
        <time>2012-05-12T07:01:44.086Z</time>
      </trkpt>
      <trkpt lat="43.21567" lon="5.45194">
        <ele>265.6</ele>
        <time>2012-05-12T07:01:50.787Z</time>
      </trkpt>
      <trkpt lat="43.21562" lon="5.45196">
        <ele>263.6</ele>
        <time>2012-05-12T07:01:56.088Z</time>
      </trkpt>
      <trkpt lat="43.21555" lon="5.45196">
        <ele>265.9</ele>
        <time>2012-05-12T07:01:59.092Z</time>
      </trkpt>
      <trkpt lat="43.2155" lon="5.45198">
        <ele>267.9</ele>
        <time>2012-05-12T07:02:02.086Z</time>
      </trkpt>
      <trkpt lat="43.21544" lon="5.45197">
        <ele>267.5</ele>
        <time>2012-05-12T07:02:06.195Z</time>
      </trkpt>
      <trkpt lat="43.21539" lon="5.45198">
        <ele>266.8</ele>
        <time>2012-05-12T07:02:09.195Z</time>
      </trkpt>
      <trkpt lat="43.21533" lon="5.45199">
        <ele>265.5</ele>
        <time>2012-05-12T07:02:13.195Z</time>
      </trkpt>
      <trkpt lat="43.21528" lon="5.45198">
        <ele>264.5</ele>
        <time>2012-05-12T07:02:16.195Z</time>
      </trkpt>
      <trkpt lat="43.21523" lon="5.45198">
        <ele>261.9</ele>
        <time>2012-05-12T07:02:20.076Z</time>
      </trkpt>
      <trkpt lat="43.21518" lon="5.45196">
        <ele>260.9</ele>
        <time>2012-05-12T07:02:24.269Z</time>
      </trkpt>
      <trkpt lat="43.21511" lon="5.45195">
        <ele>262.2</ele>
        <time>2012-05-12T07:02:29.275Z</time>
      </trkpt>
      <trkpt lat="43.21503" lon="5.45197">
        <ele>260.4</ele>
        <time>2012-05-12T07:02:34.095Z</time>
      </trkpt>
      <trkpt lat="43.21498" lon="5.45198">
        <ele>261</ele>
        <time>2012-05-12T07:02:37.093Z</time>
      </trkpt>
      <trkpt lat="43.21494" lon="5.45202">
        <ele>261</ele>
        <time>2012-05-12T07:02:42.078Z</time>
      </trkpt>
      <trkpt lat="43.21488" lon="5.45202">
        <ele>260.3</ele>
        <time>2012-05-12T07:02:49.093Z</time>
      </trkpt>
      <trkpt lat="43.21482" lon="5.45203">
        <ele>260.2</ele>
        <time>2012-05-12T07:02:52.262Z</time>
      </trkpt>
      <trkpt lat="43.21475" lon="5.45204">
        <ele>261</ele>
        <time>2012-05-12T07:02:55.786Z</time>
      </trkpt>
      <trkpt lat="43.21471" lon="5.45209">
        <ele>263.6</ele>
        <time>2012-05-12T07:03:00.080Z</time>
      </trkpt>
      <trkpt lat="43.21464" lon="5.45213">
        <ele>265</ele>
        <time>2012-05-12T07:03:03.081Z</time>
      </trkpt>
      <trkpt lat="43.2146" lon="5.45216">
        <ele>262</ele>
        <time>2012-05-12T07:03:08.803Z</time>
      </trkpt>
      <trkpt lat="43.21462" lon="5.45221">
        <ele>266.4</ele>
        <time>2012-05-12T07:03:22.793Z</time>
      </trkpt>
      <trkpt lat="43.21462" lon="5.45227">
        <ele>268</ele>
        <time>2012-05-12T07:03:25.091Z</time>
      </trkpt>
      <trkpt lat="43.2146" lon="5.45234">
        <ele>268.1</ele>
        <time>2012-05-12T07:03:28.394Z</time>
      </trkpt>
      <trkpt lat="43.21455" lon="5.45234">
        <ele>271</ele>
        <time>2012-05-12T07:03:30.838Z</time>
      </trkpt>
      <trkpt lat="43.21452" lon="5.45239">
        <ele>270.6</ele>
        <time>2012-05-12T07:03:34.788Z</time>
      </trkpt>
      <trkpt lat="43.21449" lon="5.45243">
        <ele>269.8</ele>
        <time>2012-05-12T07:03:37.088Z</time>
      </trkpt>
      <trkpt lat="43.21445" lon="5.45249">
        <ele>268.8</ele>
        <time>2012-05-12T07:03:41.082Z</time>
      </trkpt>
      <trkpt lat="43.21444" lon="5.45256">
        <ele>265.7</ele>
        <time>2012-05-12T07:03:45.090Z</time>
      </trkpt>
      <trkpt lat="43.21443" lon="5.45263">
        <ele>266.2</ele>
        <time>2012-05-12T07:03:48.096Z</time>
      </trkpt>
      <trkpt lat="43.21441" lon="5.4527">
        <ele>263.9</ele>
        <time>2012-05-12T07:03:56.091Z</time>
      </trkpt>
      <trkpt lat="43.21442" lon="5.45276">
        <ele>262.4</ele>
        <time>2012-05-12T07:03:58.790Z</time>
      </trkpt>
      <trkpt lat="43.21443" lon="5.45283">
        <ele>262.8</ele>
        <time>2012-05-12T07:04:02.205Z</time>
      </trkpt>
      <trkpt lat="43.21446" lon="5.45289">
        <ele>265.5</ele>
        <time>2012-05-12T07:04:05.100Z</time>
      </trkpt>
      <trkpt lat="43.21447" lon="5.45296">
        <ele>263.6</ele>
        <time>2012-05-12T07:04:09.089Z</time>
      </trkpt>
      <trkpt lat="43.2145" lon="5.45301">
        <ele>261.6</ele>
        <time>2012-05-12T07:04:12.077Z</time>
      </trkpt>
      <trkpt lat="43.21453" lon="5.45308">
        <ele>260.9</ele>
        <time>2012-05-12T07:04:16.082Z</time>
      </trkpt>
      <trkpt lat="43.21456" lon="5.45314">
        <ele>260.7</ele>
        <time>2012-05-12T07:04:18.789Z</time>
      </trkpt>
      <trkpt lat="43.21456" lon="5.45322">
        <ele>258</ele>
        <time>2012-05-12T07:04:24.079Z</time>
      </trkpt>
      <trkpt lat="43.21458" lon="5.45332">
        <ele>257.1</ele>
        <time>2012-05-12T07:04:28.206Z</time>
      </trkpt>
      <trkpt lat="43.21452" lon="5.45334">
        <ele>259.2</ele>
        <time>2012-05-12T07:04:30.631Z</time>
      </trkpt>
      <trkpt lat="43.21456" lon="5.45339">
        <ele>259.1</ele>
        <time>2012-05-12T07:04:36.090Z</time>
      </trkpt>
      <trkpt lat="43.2146" lon="5.45344">
        <ele>257.6</ele>
        <time>2012-05-12T07:04:40.188Z</time>
      </trkpt>
      <trkpt lat="43.21461" lon="5.45351">
        <ele>254.4</ele>
        <time>2012-05-12T07:04:44.077Z</time>
      </trkpt>
      <trkpt lat="43.21464" lon="5.45357">
        <ele>255.5</ele>
        <time>2012-05-12T07:04:48.081Z</time>
      </trkpt>
      <trkpt lat="43.21466" lon="5.45362">
        <ele>253.3</ele>
        <time>2012-05-12T07:04:52.075Z</time>
      </trkpt>
      <trkpt lat="43.21466" lon="5.45371">
        <ele>254.4</ele>
        <time>2012-05-12T07:04:56.078Z</time>
      </trkpt>
      <trkpt lat="43.21466" lon="5.45377">
        <ele>254.5</ele>
        <time>2012-05-12T07:04:59.092Z</time>
      </trkpt>
      <trkpt lat="43.21467" lon="5.45384">
        <ele>255.3</ele>
        <time>2012-05-12T07:05:01.254Z</time>
      </trkpt>
      <trkpt lat="43.21465" lon="5.4539">
        <ele>252.6</ele>
        <time>2012-05-12T07:05:06.085Z</time>
      </trkpt>
      <trkpt lat="43.21461" lon="5.45393">
        <ele>252.7</ele>
        <time>2012-05-12T07:05:11.082Z</time>
      </trkpt>
      <trkpt lat="43.21458" lon="5.454">
        <ele>252.6</ele>
        <time>2012-05-12T07:05:16.081Z</time>
      </trkpt>
      <trkpt lat="43.21453" lon="5.45406">
        <ele>254.2</ele>
        <time>2012-05-12T07:05:19.789Z</time>
      </trkpt>
      <trkpt lat="43.21449" lon="5.45416">
        <ele>252.9</ele>
        <time>2012-05-12T07:05:29.299Z</time>
      </trkpt>
      <trkpt lat="43.21446" lon="5.45422">
        <ele>255.2</ele>
        <time>2012-05-12T07:05:32.721Z</time>
      </trkpt>
      <trkpt lat="43.21446" lon="5.45429">
        <ele>256.8</ele>
        <time>2012-05-12T07:05:36.252Z</time>
      </trkpt>
      <trkpt lat="43.21445" lon="5.45437">
        <ele>256.7</ele>
        <time>2012-05-12T07:05:39.802Z</time>
      </trkpt>
      <trkpt lat="43.2144" lon="5.45441">
        <ele>260.1</ele>
        <time>2012-05-12T07:05:41.251Z</time>
      </trkpt>
      <trkpt lat="43.21439" lon="5.45447">
        <ele>257.7</ele>
        <time>2012-05-12T07:05:48.092Z</time>
      </trkpt>
      <trkpt lat="43.21437" lon="5.45454">
        <ele>258.8</ele>
        <time>2012-05-12T07:05:51.090Z</time>
      </trkpt>
      <trkpt lat="43.21435" lon="5.4546">
        <ele>262.3</ele>
        <time>2012-05-12T07:05:56.091Z</time>
      </trkpt>
      <trkpt lat="43.2143" lon="5.45462">
        <ele>269.3</ele>
        <time>2012-05-12T07:06:02.077Z</time>
      </trkpt>
      <trkpt lat="43.21426" lon="5.45467">
        <ele>265</ele>
        <time>2012-05-12T07:06:06.094Z</time>
      </trkpt>
      <trkpt lat="43.21425" lon="5.45474">
        <ele>264.5</ele>
        <time>2012-05-12T07:06:11.275Z</time>
      </trkpt>
      <trkpt lat="43.21425" lon="5.45482">
        <ele>265.3</ele>
        <time>2012-05-12T07:06:14.231Z</time>
      </trkpt>
      <trkpt lat="43.21423" lon="5.45494">
        <ele>264.2</ele>
        <time>2012-05-12T07:06:18.080Z</time>
      </trkpt>
      <trkpt lat="43.2142" lon="5.45498">
        <ele>264.9</ele>
        <time>2012-05-12T07:06:20.079Z</time>
      </trkpt>
      <trkpt lat="43.2142" lon="5.45506">
        <ele>262.9</ele>
        <time>2012-05-12T07:06:26.075Z</time>
      </trkpt>
      <trkpt lat="43.21416" lon="5.45512">
        <ele>266.1</ele>
        <time>2012-05-12T07:06:30.860Z</time>
      </trkpt>
      <trkpt lat="43.2142" lon="5.45508">
        <ele>258.5</ele>
        <time>2012-05-12T07:06:40.787Z</time>
      </trkpt>
      <trkpt lat="43.21415" lon="5.45507">
        <ele>256.9</ele>
        <time>2012-05-12T07:06:48.080Z</time>
      </trkpt>
      <trkpt lat="43.2141" lon="5.45506">
        <ele>256.2</ele>
        <time>2012-05-12T07:06:50.793Z</time>
      </trkpt>
      <trkpt lat="43.21404" lon="5.45502">
        <ele>254.1</ele>
        <time>2012-05-12T07:06:53.085Z</time>
      </trkpt>
      <trkpt lat="43.214" lon="5.45503">
        <ele>255.3</ele>
        <time>2012-05-12T07:06:59.091Z</time>
      </trkpt>
      <trkpt lat="43.21396" lon="5.45508">
        <ele>250.1</ele>
        <time>2012-05-12T07:07:11.092Z</time>
      </trkpt>
      <trkpt lat="43.21391" lon="5.45509">
        <ele>249.7</ele>
        <time>2012-05-12T07:07:14.080Z</time>
      </trkpt>
      <trkpt lat="43.21391" lon="5.45517">
        <ele>249</ele>
        <time>2012-05-12T07:07:18.080Z</time>
      </trkpt>
      <trkpt lat="43.21389" lon="5.45523">
        <ele>253</ele>
        <time>2012-05-12T07:07:22.087Z</time>
      </trkpt>
      <trkpt lat="43.21391" lon="5.4553">
        <ele>251.7</ele>
        <time>2012-05-12T07:07:26.089Z</time>
      </trkpt>
      <trkpt lat="43.21394" lon="5.45538">
        <ele>250.8</ele>
        <time>2012-05-12T07:07:30.243Z</time>
      </trkpt>
      <trkpt lat="43.21391" lon="5.45543">
        <ele>251.7</ele>
        <time>2012-05-12T07:07:32.076Z</time>
      </trkpt>
      <trkpt lat="43.21393" lon="5.45551">
        <ele>251.1</ele>
        <time>2012-05-12T07:07:35.188Z</time>
      </trkpt>
      <trkpt lat="43.21395" lon="5.45557">
        <ele>247</ele>
        <time>2012-05-12T07:07:43.078Z</time>
      </trkpt>
      <trkpt lat="43.21395" lon="5.45563">
        <ele>246.3</ele>
        <time>2012-05-12T07:07:46.079Z</time>
      </trkpt>
      <trkpt lat="43.21397" lon="5.4557">
        <ele>245.6</ele>
        <time>2012-05-12T07:07:50.790Z</time>
      </trkpt>
      <trkpt lat="43.21399" lon="5.45577">
        <ele>245.5</ele>
        <time>2012-05-12T07:07:54.447Z</time>
      </trkpt>
      <trkpt lat="43.214" lon="5.45584">
        <ele>245.1</ele>
        <time>2012-05-12T07:07:56.976Z</time>
      </trkpt>
      <trkpt lat="43.21398" lon="5.45594">
        <ele>244.5</ele>
        <time>2012-05-12T07:08:00.092Z</time>
      </trkpt>
      <trkpt lat="43.21399" lon="5.456">
        <ele>243.9</ele>
        <time>2012-05-12T07:08:03.194Z</time>
      </trkpt>
      <trkpt lat="43.214" lon="5.4561">
        <ele>245.5</ele>
        <time>2012-05-12T07:08:09.794Z</time>
      </trkpt>
      <trkpt lat="43.21398" lon="5.45616">
        <ele>248.7</ele>
        <time>2012-05-12T07:08:13.337Z</time>
      </trkpt>
      <trkpt lat="43.214" lon="5.45623">
        <ele>247.9</ele>
        <time>2012-05-12T07:08:16.787Z</time>
      </trkpt>
      <trkpt lat="43.21404" lon="5.4563">
        <ele>249.7</ele>
        <time>2012-05-12T07:08:20.787Z</time>
      </trkpt>
      <trkpt lat="43.21405" lon="5.45638">
        <ele>249</ele>
        <time>2012-05-12T07:08:24.787Z</time>
      </trkpt>
      <trkpt lat="43.21405" lon="5.45646">
        <ele>249.9</ele>
        <time>2012-05-12T07:08:29.209Z</time>
      </trkpt>
      <trkpt lat="43.21401" lon="5.45651">
        <ele>250.3</ele>
        <time>2012-05-12T07:08:32.209Z</time>
      </trkpt>
      <trkpt lat="43.21404" lon="5.45656">
        <ele>249.5</ele>
        <time>2012-05-12T07:08:37.209Z</time>
      </trkpt>
      <trkpt lat="43.21395" lon="5.45652">
        <ele>251.3</ele>
        <time>2012-05-12T07:08:41.635Z</time>
      </trkpt>
      <trkpt lat="43.21392" lon="5.45659">
        <ele>254.4</ele>
        <time>2012-05-12T07:08:45.278Z</time>
      </trkpt>
      <trkpt lat="43.21387" lon="5.4566">
        <ele>250.5</ele>
        <time>2012-05-12T07:08:51.280Z</time>
      </trkpt>
      <trkpt lat="43.21384" lon="5.45664">
        <ele>242.9</ele>
        <time>2012-05-12T07:08:58.091Z</time>
      </trkpt>
      <trkpt lat="43.21379" lon="5.45669">
        <ele>242</ele>
        <time>2012-05-12T07:09:02.235Z</time>
      </trkpt>
      <trkpt lat="43.21376" lon="5.45662">
        <ele>238.7</ele>
        <time>2012-05-12T07:09:07.183Z</time>
      </trkpt>
      <trkpt lat="43.21375" lon="5.4567">
        <ele>237.8</ele>
        <time>2012-05-12T07:09:08.570Z</time>
      </trkpt>
      <trkpt lat="43.21371" lon="5.45672">
        <ele>237.5</ele>
        <time>2012-05-12T07:09:11.078Z</time>
      </trkpt>
      <trkpt lat="43.21368" lon="5.45677">
        <ele>234.2</ele>
        <time>2012-05-12T07:09:15.094Z</time>
      </trkpt>
      <trkpt lat="43.21366" lon="5.45683">
        <ele>233.7</ele>
        <time>2012-05-12T07:09:19.792Z</time>
      </trkpt>
      <trkpt lat="43.21361" lon="5.45685">
        <ele>232.8</ele>
        <time>2012-05-12T07:09:23.363Z</time>
      </trkpt>
      <trkpt lat="43.21357" lon="5.45689">
        <ele>231.5</ele>
        <time>2012-05-12T07:09:26.241Z</time>
      </trkpt>
      <trkpt lat="43.21353" lon="5.45685">
        <ele>221.7</ele>
        <time>2012-05-12T07:09:48.791Z</time>
      </trkpt>
      <trkpt lat="43.21348" lon="5.45685">
        <ele>219.8</ele>
        <time>2012-05-12T07:10:01.082Z</time>
      </trkpt>
      <trkpt lat="43.21344" lon="5.45691">
        <ele>201.9</ele>
        <time>2012-05-12T07:10:20.091Z</time>
      </trkpt>
      <trkpt lat="43.21338" lon="5.45697">
        <ele>202.3</ele>
        <time>2012-05-12T07:10:30.659Z</time>
      </trkpt>
      <trkpt lat="43.21339" lon="5.4569">
        <ele>201.9</ele>
        <time>2012-05-12T07:10:32.105Z</time>
      </trkpt>
      <trkpt lat="43.21339" lon="5.45697">
        <ele>198.3</ele>
        <time>2012-05-12T07:10:38.086Z</time>
      </trkpt>
      <trkpt lat="43.21333" lon="5.45695">
        <ele>200.2</ele>
        <time>2012-05-12T07:10:55.078Z</time>
      </trkpt>
      <trkpt lat="43.21332" lon="5.45702">
        <ele>197.7</ele>
        <time>2012-05-12T07:10:59.095Z</time>
      </trkpt>
      <trkpt lat="43.21329" lon="5.45708">
        <ele>196.4</ele>
        <time>2012-05-12T07:11:05.210Z</time>
      </trkpt>
      <trkpt lat="43.21328" lon="5.45715">
        <ele>194.4</ele>
        <time>2012-05-12T07:11:10.210Z</time>
      </trkpt>
      <trkpt lat="43.21327" lon="5.45721">
        <ele>192.9</ele>
        <time>2012-05-12T07:11:14.075Z</time>
      </trkpt>
      <trkpt lat="43.21326" lon="5.4573">
        <ele>192.4</ele>
        <time>2012-05-12T07:11:19.092Z</time>
      </trkpt>
      <trkpt lat="43.21326" lon="5.45738">
        <ele>192.2</ele>
        <time>2012-05-12T07:11:22.094Z</time>
      </trkpt>
      <trkpt lat="43.21324" lon="5.45744">
        <ele>191</ele>
        <time>2012-05-12T07:11:24.096Z</time>
      </trkpt>
      <trkpt lat="43.21326" lon="5.4575">
        <ele>189.2</ele>
        <time>2012-05-12T07:11:28.151Z</time>
      </trkpt>
      <trkpt lat="43.21326" lon="5.45758">
        <ele>188.3</ele>
        <time>2012-05-12T07:11:32.093Z</time>
      </trkpt>
      <trkpt lat="43.21315" lon="5.45762">
        <ele>190.2</ele>
        <time>2012-05-12T07:11:35.641Z</time>
      </trkpt>
      <trkpt lat="43.21314" lon="5.45768">
        <ele>190</ele>
        <time>2012-05-12T07:11:38.788Z</time>
      </trkpt>
      <trkpt lat="43.21319" lon="5.45771">
        <ele>190.2</ele>
        <time>2012-05-12T07:11:40.788Z</time>
      </trkpt>
      <trkpt lat="43.21322" lon="5.45775">
        <ele>188.9</ele>
        <time>2012-05-12T07:11:43.074Z</time>
      </trkpt>
      <trkpt lat="43.21325" lon="5.45781">
        <ele>188.2</ele>
        <time>2012-05-12T07:11:48.246Z</time>
      </trkpt>
      <trkpt lat="43.21318" lon="5.45785">
        <ele>190.7</ele>
        <time>2012-05-12T07:11:49.095Z</time>
      </trkpt>
      <trkpt lat="43.21323" lon="5.45793">
        <ele>190</ele>
        <time>2012-05-12T07:11:52.097Z</time>
      </trkpt>
      <trkpt lat="43.21328" lon="5.45796">
        <ele>188.4</ele>
        <time>2012-05-12T07:11:54.090Z</time>
      </trkpt>
      <trkpt lat="43.21332" lon="5.45801">
        <ele>187.9</ele>
        <time>2012-05-12T07:11:56.808Z</time>
      </trkpt>
      <trkpt lat="43.21329" lon="5.45806">
        <ele>187.2</ele>
        <time>2012-05-12T07:12:01.103Z</time>
      </trkpt>
      <trkpt lat="43.21325" lon="5.4581">
        <ele>185.8</ele>
        <time>2012-05-12T07:12:03.096Z</time>
      </trkpt>
      <trkpt lat="43.2132" lon="5.4581">
        <ele>181.7</ele>
        <time>2012-05-12T07:12:11.093Z</time>
      </trkpt>
      <trkpt lat="43.21318" lon="5.45818">
        <ele>178.6</ele>
        <time>2012-05-12T07:12:16.097Z</time>
      </trkpt>
      <trkpt lat="43.21313" lon="5.45824">
        <ele>178.7</ele>
        <time>2012-05-12T07:12:19.097Z</time>
      </trkpt>
      <trkpt lat="43.21309" lon="5.4583">
        <ele>176.7</ele>
        <time>2012-05-12T07:12:25.097Z</time>
      </trkpt>
      <trkpt lat="43.21302" lon="5.45852">
        <ele>178.1</ele>
        <time>2012-05-12T07:12:43.331Z</time>
      </trkpt>
      <trkpt lat="43.21296" lon="5.45855">
        <ele>182.5</ele>
        <time>2012-05-12T07:12:43.758Z</time>
      </trkpt>
      <trkpt lat="43.21297" lon="5.45862">
        <ele>183</ele>
        <time>2012-05-12T07:12:47.077Z</time>
      </trkpt>
      <trkpt lat="43.21295" lon="5.45869">
        <ele>182.6</ele>
        <time>2012-05-12T07:12:50.089Z</time>
      </trkpt>
      <trkpt lat="43.21291" lon="5.45875">
        <ele>183.6</ele>
        <time>2012-05-12T07:12:55.096Z</time>
      </trkpt>
      <trkpt lat="43.2129" lon="5.45881">
        <ele>186.4</ele>
        <time>2012-05-12T07:13:00.093Z</time>
      </trkpt>
      <trkpt lat="43.21286" lon="5.4589">
        <ele>185.7</ele>
        <time>2012-05-12T07:13:05.088Z</time>
      </trkpt>
      <trkpt lat="43.21285" lon="5.45896">
        <ele>183.2</ele>
        <time>2012-05-12T07:13:08.080Z</time>
      </trkpt>
      <trkpt lat="43.2128" lon="5.459">
        <ele>183.6</ele>
        <time>2012-05-12T07:13:11.093Z</time>
      </trkpt>
      <trkpt lat="43.21276" lon="5.45907">
        <ele>179.6</ele>
        <time>2012-05-12T07:13:14.091Z</time>
      </trkpt>
      <trkpt lat="43.2127" lon="5.45911">
        <ele>178</ele>
        <time>2012-05-12T07:13:20.078Z</time>
      </trkpt>
      <trkpt lat="43.21269" lon="5.45918">
        <ele>176.7</ele>
        <time>2012-05-12T07:13:24.092Z</time>
      </trkpt>
      <trkpt lat="43.21265" lon="5.45926">
        <ele>176.1</ele>
        <time>2012-05-12T07:13:28.271Z</time>
      </trkpt>
      <trkpt lat="43.21264" lon="5.45932">
        <ele>176.1</ele>
        <time>2012-05-12T07:13:33.080Z</time>
      </trkpt>
      <trkpt lat="43.21262" lon="5.45938">
        <ele>175.1</ele>
        <time>2012-05-12T07:13:36.082Z</time>
      </trkpt>
      <trkpt lat="43.21258" lon="5.45943">
        <ele>174.2</ele>
        <time>2012-05-12T07:13:39.806Z</time>
      </trkpt>
      <trkpt lat="43.21256" lon="5.4595">
        <ele>173.8</ele>
        <time>2012-05-12T07:13:43.136Z</time>
      </trkpt>
      <trkpt lat="43.21252" lon="5.45953">
        <ele>174.3</ele>
        <time>2012-05-12T07:13:47.437Z</time>
      </trkpt>
      <trkpt lat="43.21258" lon="5.45954">
        <ele>166.3</ele>
        <time>2012-05-12T07:13:47.961Z</time>
      </trkpt>
      <trkpt lat="43.21254" lon="5.45959">
        <ele>167.2</ele>
        <time>2012-05-12T07:13:51.805Z</time>
      </trkpt>
      <trkpt lat="43.21249" lon="5.45961">
        <ele>167.2</ele>
        <time>2012-05-12T07:13:56.087Z</time>
      </trkpt>
      <trkpt lat="43.21248" lon="5.45969">
        <ele>165.4</ele>
        <time>2012-05-12T07:13:59.787Z</time>
      </trkpt>
      <trkpt lat="43.21246" lon="5.45974">
        <ele>165.9</ele>
        <time>2012-05-12T07:14:02.787Z</time>
      </trkpt>
      <trkpt lat="43.21242" lon="5.45979">
        <ele>165.2</ele>
        <time>2012-05-12T07:14:05.089Z</time>
      </trkpt>
      <trkpt lat="43.21239" lon="5.45984">
        <ele>164.6</ele>
        <time>2012-05-12T07:14:10.789Z</time>
      </trkpt>
      <trkpt lat="43.21234" lon="5.45989">
        <ele>162.4</ele>
        <time>2012-05-12T07:14:15.078Z</time>
      </trkpt>
      <trkpt lat="43.21227" lon="5.46008">
        <ele>162.2</ele>
        <time>2012-05-12T07:14:29.714Z</time>
      </trkpt>
      <trkpt lat="43.21222" lon="5.46011">
        <ele>163.1</ele>
        <time>2012-05-12T07:14:36.273Z</time>
      </trkpt>
      <trkpt lat="43.21218" lon="5.46011">
        <ele>162.3</ele>
        <time>2012-05-12T07:14:39.273Z</time>
      </trkpt>
      <trkpt lat="43.21213" lon="5.46012">
        <ele>163.8</ele>
        <time>2012-05-12T07:14:42.273Z</time>
      </trkpt>
      <trkpt lat="43.21212" lon="5.46018">
        <ele>163.8</ele>
        <time>2012-05-12T07:14:45.273Z</time>
      </trkpt>
      <trkpt lat="43.21208" lon="5.46024">
        <ele>162</ele>
        <time>2012-05-12T07:14:49.090Z</time>
      </trkpt>
      <trkpt lat="43.21205" lon="5.46027">
        <ele>163.3</ele>
        <time>2012-05-12T07:14:55.094Z</time>
      </trkpt>
      <trkpt lat="43.212" lon="5.46032">
        <ele>163.1</ele>
        <time>2012-05-12T07:14:59.091Z</time>
      </trkpt>
      <trkpt lat="43.21197" lon="5.46037">
        <ele>164</ele>
        <time>2012-05-12T07:15:02.087Z</time>
      </trkpt>
      <trkpt lat="43.21194" lon="5.46043">
        <ele>164.1</ele>
        <time>2012-05-12T07:15:04.096Z</time>
      </trkpt>
      <trkpt lat="43.2119" lon="5.46047">
        <ele>162.1</ele>
        <time>2012-05-12T07:15:07.096Z</time>
      </trkpt>
      <trkpt lat="43.21185" lon="5.4605">
        <ele>159.8</ele>
        <time>2012-05-12T07:15:12.093Z</time>
      </trkpt>
      <trkpt lat="43.21182" lon="5.46056">
        <ele>158.9</ele>
        <time>2012-05-12T07:15:14.235Z</time>
      </trkpt>
      <trkpt lat="43.21178" lon="5.46052">
        <ele>160.9</ele>
        <time>2012-05-12T07:15:16.095Z</time>
      </trkpt>
      <trkpt lat="43.21172" lon="5.46054">
        <ele>163.4</ele>
        <time>2012-05-12T07:15:20.090Z</time>
      </trkpt>
      <trkpt lat="43.21168" lon="5.4606">
        <ele>166.2</ele>
        <time>2012-05-12T07:15:23.089Z</time>
      </trkpt>
      <trkpt lat="43.21161" lon="5.4607">
        <ele>165.6</ele>
        <time>2012-05-12T07:15:28.548Z</time>
      </trkpt>
      <trkpt lat="43.21165" lon="5.4608">
        <ele>160</ele>
        <time>2012-05-12T07:15:29.969Z</time>
      </trkpt>
      <trkpt lat="43.2116" lon="5.4608">
        <ele>157.5</ele>
        <time>2012-05-12T07:15:33.097Z</time>
      </trkpt>
      <trkpt lat="43.21156" lon="5.46081">
        <ele>159.3</ele>
        <time>2012-05-12T07:15:38.254Z</time>
      </trkpt>
      <trkpt lat="43.2115" lon="5.46082">
        <ele>159.7</ele>
        <time>2012-05-12T07:15:43.081Z</time>
      </trkpt>
      <trkpt lat="43.21145" lon="5.46085">
        <ele>160.2</ele>
        <time>2012-05-12T07:15:47.193Z</time>
      </trkpt>
      <trkpt lat="43.2114" lon="5.46087">
        <ele>161</ele>
        <time>2012-05-12T07:15:48.346Z</time>
      </trkpt>
      <trkpt lat="43.21137" lon="5.46093">
        <ele>161.5</ele>
        <time>2012-05-12T07:16:02.736Z</time>
      </trkpt>
      <trkpt lat="43.21132" lon="5.46098">
        <ele>160.5</ele>
        <time>2012-05-12T07:16:46.109Z</time>
      </trkpt>
      <trkpt lat="43.21127" lon="5.46099">
        <ele>162.3</ele>
        <time>2012-05-12T07:16:48.597Z</time>
      </trkpt>
      <trkpt lat="43.21127" lon="5.46106">
        <ele>162.3</ele>
        <time>2012-05-12T07:16:50.087Z</time>
      </trkpt>
      <trkpt lat="43.21129" lon="5.46111">
        <ele>159.1</ele>
        <time>2012-05-12T07:16:52.174Z</time>
      </trkpt>
      <trkpt lat="43.21126" lon="5.46118">
        <ele>159.2</ele>
        <time>2012-05-12T07:17:11.178Z</time>
      </trkpt>
      <trkpt lat="43.21121" lon="5.46119">
        <ele>162.4</ele>
        <time>2012-05-12T07:17:13.086Z</time>
      </trkpt>
      <trkpt lat="43.2112" lon="5.4613">
        <ele>161.6</ele>
        <time>2012-05-12T07:17:17.086Z</time>
      </trkpt>
      <trkpt lat="43.21117" lon="5.46138">
        <ele>163.6</ele>
        <time>2012-05-12T07:17:21.307Z</time>
      </trkpt>
      <trkpt lat="43.21118" lon="5.46143">
        <ele>161.7</ele>
        <time>2012-05-12T07:17:25.077Z</time>
      </trkpt>
      <trkpt lat="43.21105" lon="5.46155">
        <ele>159.7</ele>
        <time>2012-05-12T07:17:36.473Z</time>
      </trkpt>
      <trkpt lat="43.21105" lon="5.46162">
        <ele>161.3</ele>
        <time>2012-05-12T07:17:39.088Z</time>
      </trkpt>
      <trkpt lat="43.21106" lon="5.46169">
        <ele>159.8</ele>
        <time>2012-05-12T07:17:41.089Z</time>
      </trkpt>
      <trkpt lat="43.21103" lon="5.46179">
        <ele>159.1</ele>
        <time>2012-05-12T07:17:44.259Z</time>
      </trkpt>
      <trkpt lat="43.21107" lon="5.46182">
        <ele>155.2</ele>
        <time>2012-05-12T07:17:49.789Z</time>
      </trkpt>
      <trkpt lat="43.21106" lon="5.4619">
        <ele>154.6</ele>
        <time>2012-05-12T07:17:51.296Z</time>
      </trkpt>
      <trkpt lat="43.21107" lon="5.46198">
        <ele>156.3</ele>
        <time>2012-05-12T07:17:55.091Z</time>
      </trkpt>
      <trkpt lat="43.21109" lon="5.46206">
        <ele>158</ele>
        <time>2012-05-12T07:18:00.086Z</time>
      </trkpt>
      <trkpt lat="43.21108" lon="5.46213">
        <ele>157.7</ele>
        <time>2012-05-12T07:18:04.266Z</time>
      </trkpt>
      <trkpt lat="43.21103" lon="5.46215">
        <ele>157.3</ele>
        <time>2012-05-12T07:18:17.277Z</time>
      </trkpt>
      <trkpt lat="43.21104" lon="5.46222">
        <ele>159</ele>
        <time>2012-05-12T07:18:19.277Z</time>
      </trkpt>
      <trkpt lat="43.21104" lon="5.46229">
        <ele>160.2</ele>
        <time>2012-05-12T07:18:20.277Z</time>
      </trkpt>
      <trkpt lat="43.21105" lon="5.46236">
        <ele>160.9</ele>
        <time>2012-05-12T07:18:21.277Z</time>
      </trkpt>
      <trkpt lat="43.21114" lon="5.46247">
        <ele>156.4</ele>
        <time>2012-05-12T07:18:22.748Z</time>
      </trkpt>
      <trkpt lat="43.21113" lon="5.46253">
        <ele>156.9</ele>
        <time>2012-05-12T07:18:24.092Z</time>
      </trkpt>
      <trkpt lat="43.21102" lon="5.46254">
        <ele>155.8</ele>
        <time>2012-05-12T07:18:30.239Z</time>
      </trkpt>
      <trkpt lat="43.21108" lon="5.46265">
        <ele>151.9</ele>
        <time>2012-05-12T07:18:31.785Z</time>
      </trkpt>
      <trkpt lat="43.21102" lon="5.46262">
        <ele>149.4</ele>
        <time>2012-05-12T07:18:36.097Z</time>
      </trkpt>
      <trkpt lat="43.21095" lon="5.46265">
        <ele>149.3</ele>
        <time>2012-05-12T07:18:40.079Z</time>
      </trkpt>
      <trkpt lat="43.21096" lon="5.46272">
        <ele>146.9</ele>
        <time>2012-05-12T07:18:42.088Z</time>
      </trkpt>
      <trkpt lat="43.21092" lon="5.46276">
        <ele>150.3</ele>
        <time>2012-05-12T07:18:46.095Z</time>
      </trkpt>
      <trkpt lat="43.21088" lon="5.46282">
        <ele>146.6</ele>
        <time>2012-05-12T07:18:51.088Z</time>
      </trkpt>
      <trkpt lat="43.21083" lon="5.46286">
        <ele>143.1</ele>
        <time>2012-05-12T07:18:54.077Z</time>
      </trkpt>
      <trkpt lat="43.21082" lon="5.46295">
        <ele>141.5</ele>
        <time>2012-05-12T07:19:02.826Z</time>
      </trkpt>
      <trkpt lat="43.21078" lon="5.46298">
        <ele>140.5</ele>
        <time>2012-05-12T07:19:15.323Z</time>
      </trkpt>
      <trkpt lat="43.21074" lon="5.46303">
        <ele>139.9</ele>
        <time>2012-05-12T07:19:19.323Z</time>
      </trkpt>
      <trkpt lat="43.21069" lon="5.46298">
        <ele>139.6</ele>
        <time>2012-05-12T07:19:23.016Z</time>
      </trkpt>
      <trkpt lat="43.21073" lon="5.4631">
        <ele>136.2</ele>
        <time>2012-05-12T07:19:23.856Z</time>
      </trkpt>
      <trkpt lat="43.21084" lon="5.46319">
        <ele>132.1</ele>
        <time>2012-05-12T07:19:30.733Z</time>
      </trkpt>
      <trkpt lat="43.21078" lon="5.46316">
        <ele>136.5</ele>
        <time>2012-05-12T07:19:31.792Z</time>
      </trkpt>
      <trkpt lat="43.21074" lon="5.46313">
        <ele>136.8</ele>
        <time>2012-05-12T07:19:32.792Z</time>
      </trkpt>
      <trkpt lat="43.21071" lon="5.4632">
        <ele>133.3</ele>
        <time>2012-05-12T07:19:45.097Z</time>
      </trkpt>
      <trkpt lat="43.21066" lon="5.46324">
        <ele>133.7</ele>
        <time>2012-05-12T07:19:50.390Z</time>
      </trkpt>
      <trkpt lat="43.2106" lon="5.46319">
        <ele>134.5</ele>
        <time>2012-05-12T07:19:54.225Z</time>
      </trkpt>
      <trkpt lat="43.21056" lon="5.46315">
        <ele>133.6</ele>
        <time>2012-05-12T07:19:56.806Z</time>
      </trkpt>
      <trkpt lat="43.21061" lon="5.4632">
        <ele>136.1</ele>
        <time>2012-05-12T07:19:58.094Z</time>
      </trkpt>
      <trkpt lat="43.21057" lon="5.46331">
        <ele>134.5</ele>
        <time>2012-05-12T07:20:04.133Z</time>
      </trkpt>
      <trkpt lat="43.21054" lon="5.46337">
        <ele>133.6</ele>
        <time>2012-05-12T07:20:08.253Z</time>
      </trkpt>
      <trkpt lat="43.21042" lon="5.4632">
        <ele>131.9</ele>
        <time>2012-05-12T07:20:15.793Z</time>
      </trkpt>
      <trkpt lat="43.21037" lon="5.46316">
        <ele>130.5</ele>
        <time>2012-05-12T07:20:16.259Z</time>
      </trkpt>
      <trkpt lat="43.21031" lon="5.46322">
        <ele>130.1</ele>
        <time>2012-05-12T07:20:20.078Z</time>
      </trkpt>
      <trkpt lat="43.21029" lon="5.46317">
        <ele>129.9</ele>
        <time>2012-05-12T07:20:30.329Z</time>
      </trkpt>
      <trkpt lat="43.21027" lon="5.46322">
        <ele>128.6</ele>
        <time>2012-05-12T07:20:31.795Z</time>
      </trkpt>
      <trkpt lat="43.21024" lon="5.46317">
        <ele>127.7</ele>
        <time>2012-05-12T07:20:33.081Z</time>
      </trkpt>
      <trkpt lat="43.2103" lon="5.46329">
        <ele>119.3</ele>
        <time>2012-05-12T07:20:35.095Z</time>
      </trkpt>
      <trkpt lat="43.2103" lon="5.46337">
        <ele>118.7</ele>
        <time>2012-05-12T07:20:37.090Z</time>
      </trkpt>
      <trkpt lat="43.21029" lon="5.46344">
        <ele>117.1</ele>
        <time>2012-05-12T07:20:41.790Z</time>
      </trkpt>
      <trkpt lat="43.21033" lon="5.46347">
        <ele>113</ele>
        <time>2012-05-12T07:20:53.724Z</time>
      </trkpt>
      <trkpt lat="43.21027" lon="5.46346">
        <ele>115.7</ele>
        <time>2012-05-12T07:21:04.087Z</time>
      </trkpt>
      <trkpt lat="43.21029" lon="5.46352">
        <ele>116.8</ele>
        <time>2012-05-12T07:21:05.091Z</time>
      </trkpt>
      <trkpt lat="43.21025" lon="5.46346">
        <ele>117.6</ele>
        <time>2012-05-12T07:21:06.077Z</time>
      </trkpt>
      <trkpt lat="43.21019" lon="5.46347">
        <ele>116.2</ele>
        <time>2012-05-12T07:21:22.852Z</time>
      </trkpt>
      <trkpt lat="43.21013" lon="5.46355">
        <ele>116</ele>
        <time>2012-05-12T07:21:29.221Z</time>
      </trkpt>
      <trkpt lat="43.21007" lon="5.46349">
        <ele>116.8</ele>
        <time>2012-05-12T07:21:37.089Z</time>
      </trkpt>
      <trkpt lat="43.21002" lon="5.46349">
        <ele>116.6</ele>
        <time>2012-05-12T07:21:40.220Z</time>
      </trkpt>
      <trkpt lat="43.20997" lon="5.46356">
        <ele>114.1</ele>
        <time>2012-05-12T07:21:42.756Z</time>
      </trkpt>
      <trkpt lat="43.20993" lon="5.4636">
        <ele>112.4</ele>
        <time>2012-05-12T07:21:52.098Z</time>
      </trkpt>
      <trkpt lat="43.2099" lon="5.46366">
        <ele>110.5</ele>
        <time>2012-05-12T07:21:56.086Z</time>
      </trkpt>
      <trkpt lat="43.20986" lon="5.46384">
        <ele>106.8</ele>
        <time>2012-05-12T07:21:59.281Z</time>
      </trkpt>
      <trkpt lat="43.20987" lon="5.46392">
        <ele>107.3</ele>
        <time>2012-05-12T07:22:00.075Z</time>
      </trkpt>
      <trkpt lat="43.20983" lon="5.46396">
        <ele>105.5</ele>
        <time>2012-05-12T07:22:06.080Z</time>
      </trkpt>
      <trkpt lat="43.20984" lon="5.46403">
        <ele>104.8</ele>
        <time>2012-05-12T07:22:09.217Z</time>
      </trkpt>
      <trkpt lat="43.20978" lon="5.46404">
        <ele>105.4</ele>
        <time>2012-05-12T07:22:14.167Z</time>
      </trkpt>
      <trkpt lat="43.20974" lon="5.46395">
        <ele>108.2</ele>
        <time>2012-05-12T07:22:16.090Z</time>
      </trkpt>
      <trkpt lat="43.20968" lon="5.46394">
        <ele>107.6</ele>
        <time>2012-05-12T07:22:19.796Z</time>
      </trkpt>
      <trkpt lat="43.20963" lon="5.46395">
        <ele>109.2</ele>
        <time>2012-05-12T07:22:25.395Z</time>
      </trkpt>
      <trkpt lat="43.20963" lon="5.46401">
        <ele>108.7</ele>
        <time>2012-05-12T07:22:32.229Z</time>
      </trkpt>
      <trkpt lat="43.20964" lon="5.46408">
        <ele>108.3</ele>
        <time>2012-05-12T07:22:33.674Z</time>
      </trkpt>
      <trkpt lat="43.20962" lon="5.46415">
        <ele>111.9</ele>
        <time>2012-05-12T07:22:44.789Z</time>
      </trkpt>
      <trkpt lat="43.2096" lon="5.46421">
        <ele>110.8</ele>
        <time>2012-05-12T07:22:53.789Z</time>
      </trkpt>
      <trkpt lat="43.20957" lon="5.46426">
        <ele>113.4</ele>
        <time>2012-05-12T07:22:56.078Z</time>
      </trkpt>
      <trkpt lat="43.20954" lon="5.46433">
        <ele>113.2</ele>
        <time>2012-05-12T07:22:58.809Z</time>
      </trkpt>
      <trkpt lat="43.20951" lon="5.46437">
        <ele>113.1</ele>
        <time>2012-05-12T07:23:06.809Z</time>
      </trkpt>
      <trkpt lat="43.20949" lon="5.46449">
        <ele>121</ele>
        <time>2012-05-12T07:23:32.794Z</time>
      </trkpt>
      <trkpt lat="43.20946" lon="5.46453">
        <ele>120.8</ele>
        <time>2012-05-12T07:23:36.794Z</time>
      </trkpt>
      <trkpt lat="43.20943" lon="5.46461">
        <ele>120.6</ele>
        <time>2012-05-12T07:23:41.840Z</time>
      </trkpt>
      <trkpt lat="43.20942" lon="5.46468">
        <ele>120.7</ele>
        <time>2012-05-12T07:23:47.805Z</time>
      </trkpt>
      <trkpt lat="43.20936" lon="5.46468">
        <ele>119.2</ele>
        <time>2012-05-12T07:23:53.934Z</time>
      </trkpt>
      <trkpt lat="43.20934" lon="5.46476">
        <ele>117.4</ele>
        <time>2012-05-12T07:23:57.390Z</time>
      </trkpt>
      <trkpt lat="43.20933" lon="5.46482">
        <ele>115.6</ele>
        <time>2012-05-12T07:24:01.214Z</time>
      </trkpt>
      <trkpt lat="43.20922" lon="5.46486">
        <ele>106.4</ele>
        <time>2012-05-12T07:24:06.693Z</time>
      </trkpt>
      <trkpt lat="43.20924" lon="5.46494">
        <ele>105.9</ele>
        <time>2012-05-12T07:24:09.180Z</time>
      </trkpt>
      <trkpt lat="43.20924" lon="5.46501">
        <ele>106.1</ele>
        <time>2012-05-12T07:24:15.346Z</time>
      </trkpt>
      <trkpt lat="43.20924" lon="5.46508">
        <ele>106.4</ele>
        <time>2012-05-12T07:24:18.132Z</time>
      </trkpt>
      <trkpt lat="43.20926" lon="5.46514">
        <ele>107.2</ele>
        <time>2012-05-12T07:24:24.338Z</time>
      </trkpt>
      <trkpt lat="43.2093" lon="5.46519">
        <ele>105.6</ele>
        <time>2012-05-12T07:24:30.255Z</time>
      </trkpt>
      <trkpt lat="43.20931" lon="5.46527">
        <ele>105.2</ele>
        <time>2012-05-12T07:24:33.872Z</time>
      </trkpt>
      <trkpt lat="43.20926" lon="5.46533">
        <ele>107.7</ele>
        <time>2012-05-12T07:24:38.752Z</time>
      </trkpt>
      <trkpt lat="43.20919" lon="5.46542">
        <ele>110</ele>
        <time>2012-05-12T07:24:46.237Z</time>
      </trkpt>
      <trkpt lat="43.20925" lon="5.46544">
        <ele>109.7</ele>
        <time>2012-05-12T07:24:56.225Z</time>
      </trkpt>
      <trkpt lat="43.20926" lon="5.46551">
        <ele>109.4</ele>
        <time>2012-05-12T07:24:59.289Z</time>
      </trkpt>
      <trkpt lat="43.20925" lon="5.4656">
        <ele>111</ele>
        <time>2012-05-12T07:25:02.077Z</time>
      </trkpt>
      <trkpt lat="43.20923" lon="5.46567">
        <ele>112.6</ele>
        <time>2012-05-12T07:25:06.792Z</time>
      </trkpt>
      <trkpt lat="43.2092" lon="5.46573">
        <ele>113.7</ele>
        <time>2012-05-12T07:25:08.455Z</time>
      </trkpt>
      <trkpt lat="43.20924" lon="5.46577">
        <ele>113.9</ele>
        <time>2012-05-12T07:25:11.455Z</time>
      </trkpt>
      <trkpt lat="43.20926" lon="5.46583">
        <ele>117.5</ele>
        <time>2012-05-12T07:25:17.455Z</time>
      </trkpt>
      <trkpt lat="43.20913" lon="5.46585">
        <ele>130.1</ele>
        <time>2012-05-12T07:25:19.518Z</time>
      </trkpt>
      <trkpt lat="43.20915" lon="5.46591">
        <ele>130.3</ele>
        <time>2012-05-12T07:25:27.595Z</time>
      </trkpt>
      <trkpt lat="43.20915" lon="5.46598">
        <ele>132.7</ele>
        <time>2012-05-12T07:25:32.584Z</time>
      </trkpt>
      <trkpt lat="43.20916" lon="5.46604">
        <ele>128.2</ele>
        <time>2012-05-12T07:25:36.712Z</time>
      </trkpt>
      <trkpt lat="43.2091" lon="5.4661">
        <ele>136.4</ele>
        <time>2012-05-12T07:25:38.077Z</time>
      </trkpt>
      <trkpt lat="43.20914" lon="5.46615">
        <ele>134.9</ele>
        <time>2012-05-12T07:25:43.280Z</time>
      </trkpt>
      <trkpt lat="43.20904" lon="5.46618">
        <ele>139.8</ele>
        <time>2012-05-12T07:25:43.767Z</time>
      </trkpt>
      <trkpt lat="43.20906" lon="5.46623">
        <ele>138.8</ele>
        <time>2012-05-12T07:25:48.277Z</time>
      </trkpt>
      <trkpt lat="43.20911" lon="5.46624">
        <ele>137.7</ele>
        <time>2012-05-12T07:25:51.799Z</time>
      </trkpt>
      <trkpt lat="43.20914" lon="5.4663">
        <ele>133.4</ele>
        <time>2012-05-12T07:26:04.287Z</time>
      </trkpt>
      <trkpt lat="43.20918" lon="5.46634">
        <ele>129.5</ele>
        <time>2012-05-12T07:26:08.085Z</time>
      </trkpt>
      <trkpt lat="43.20919" lon="5.46641">
        <ele>124.7</ele>
        <time>2012-05-12T07:26:19.080Z</time>
      </trkpt>
      <trkpt lat="43.2092" lon="5.4665">
        <ele>120.1</ele>
        <time>2012-05-12T07:26:24.805Z</time>
      </trkpt>
      <trkpt lat="43.20923" lon="5.46656">
        <ele>117.4</ele>
        <time>2012-05-12T07:26:30.265Z</time>
      </trkpt>
      <trkpt lat="43.20914" lon="5.46656">
        <ele>116</ele>
        <time>2012-05-12T07:26:30.710Z</time>
      </trkpt>
      <trkpt lat="43.2092" lon="5.46656">
        <ele>112.8</ele>
        <time>2012-05-12T07:26:33.790Z</time>
      </trkpt>
      <trkpt lat="43.20914" lon="5.46665">
        <ele>112.5</ele>
        <time>2012-05-12T07:26:38.737Z</time>
      </trkpt>
      <trkpt lat="43.20921" lon="5.46661">
        <ele>112.6</ele>
        <time>2012-05-12T07:26:41.791Z</time>
      </trkpt>
      <trkpt lat="43.20925" lon="5.46657">
        <ele>110.9</ele>
        <time>2012-05-12T07:26:49.791Z</time>
      </trkpt>
      <trkpt lat="43.20928" lon="5.46664">
        <ele>102.5</ele>
        <time>2012-05-12T07:27:11.356Z</time>
      </trkpt>
      <trkpt lat="43.20924" lon="5.46673">
        <ele>96.9</ele>
        <time>2012-05-12T07:27:30.252Z</time>
      </trkpt>
      <trkpt lat="43.20927" lon="5.46685">
        <ele>93.7</ele>
        <time>2012-05-12T07:27:40.252Z</time>
      </trkpt>
      <trkpt lat="43.20924" lon="5.46696">
        <ele>93.7</ele>
        <time>2012-05-12T07:27:42.699Z</time>
      </trkpt>
      <trkpt lat="43.2092" lon="5.46701">
        <ele>96.4</ele>
        <time>2012-05-12T07:27:48.807Z</time>
      </trkpt>
      <trkpt lat="43.20911" lon="5.46701">
        <ele>90</ele>
        <time>2012-05-12T07:27:55.793Z</time>
      </trkpt>
      <trkpt lat="43.20916" lon="5.467">
        <ele>91.6</ele>
        <time>2012-05-12T07:28:03.265Z</time>
      </trkpt>
      <trkpt lat="43.20919" lon="5.46708">
        <ele>87.5</ele>
        <time>2012-05-12T07:28:36.092Z</time>
      </trkpt>
      <trkpt lat="43.20917" lon="5.46715">
        <ele>91.5</ele>
        <time>2012-05-12T07:28:40.789Z</time>
      </trkpt>
      <trkpt lat="43.20917" lon="5.46722">
        <ele>88.9</ele>
        <time>2012-05-12T07:29:02.241Z</time>
      </trkpt>
      <trkpt lat="43.2092" lon="5.46728">
        <ele>84</ele>
        <time>2012-05-12T07:29:05.710Z</time>
      </trkpt>
      <trkpt lat="43.20921" lon="5.46734">
        <ele>84.7</ele>
        <time>2012-05-12T07:29:07.710Z</time>
      </trkpt>
      <trkpt lat="43.2092" lon="5.46742">
        <ele>83.5</ele>
        <time>2012-05-12T07:29:11.340Z</time>
      </trkpt>
      <trkpt lat="43.20917" lon="5.46752">
        <ele>83.5</ele>
        <time>2012-05-12T07:29:15.079Z</time>
      </trkpt>
      <trkpt lat="43.20913" lon="5.46758">
        <ele>85.4</ele>
        <time>2012-05-12T07:29:17.781Z</time>
      </trkpt>
      <trkpt lat="43.20911" lon="5.46764">
        <ele>86.7</ele>
        <time>2012-05-12T07:29:21.089Z</time>
      </trkpt>
      <trkpt lat="43.20914" lon="5.46768">
        <ele>85.3</ele>
        <time>2012-05-12T07:29:23.074Z</time>
      </trkpt>
      <trkpt lat="43.2091" lon="5.4677">
        <ele>86.3</ele>
        <time>2012-05-12T07:29:25.700Z</time>
      </trkpt>
      <trkpt lat="43.20915" lon="5.46775">
        <ele>85</ele>
        <time>2012-05-12T07:29:29.201Z</time>
      </trkpt>
      <trkpt lat="43.20902" lon="5.46776">
        <ele>85.2</ele>
        <time>2012-05-12T07:29:30.688Z</time>
      </trkpt>
      <trkpt lat="43.20907" lon="5.46777">
        <ele>83.6</ele>
        <time>2012-05-12T07:29:41.306Z</time>
      </trkpt>
      <trkpt lat="43.20914" lon="5.46775">
        <ele>86.4</ele>
        <time>2012-05-12T07:29:50.074Z</time>
      </trkpt>
      <trkpt lat="43.20908" lon="5.46786">
        <ele>88.7</ele>
        <time>2012-05-12T07:29:54.236Z</time>
      </trkpt>
      <trkpt lat="43.20912" lon="5.46781">
        <ele>90.3</ele>
        <time>2012-05-12T07:29:58.198Z</time>
      </trkpt>
      <trkpt lat="43.20916" lon="5.46786">
        <ele>89.6</ele>
        <time>2012-05-12T07:30:04.225Z</time>
      </trkpt>
      <trkpt lat="43.20916" lon="5.46792">
        <ele>90.9</ele>
        <time>2012-05-12T07:30:09.244Z</time>
      </trkpt>
      <trkpt lat="43.20911" lon="5.4679">
        <ele>91</ele>
        <time>2012-05-12T07:30:10.333Z</time>
      </trkpt>
      <trkpt lat="43.20913" lon="5.46797">
        <ele>90.3</ele>
        <time>2012-05-12T07:30:13.733Z</time>
      </trkpt>
      <trkpt lat="43.20917" lon="5.468">
        <ele>88.1</ele>
        <time>2012-05-12T07:30:18.733Z</time>
      </trkpt>
      <trkpt lat="43.20911" lon="5.46799">
        <ele>81.9</ele>
        <time>2012-05-12T07:30:21.157Z</time>
      </trkpt>
      <trkpt lat="43.20913" lon="5.46804">
        <ele>80.5</ele>
        <time>2012-05-12T07:30:26.221Z</time>
      </trkpt>
      <trkpt lat="43.20918" lon="5.46804">
        <ele>79.7</ele>
        <time>2012-05-12T07:30:32.243Z</time>
      </trkpt>
      <trkpt lat="43.20922" lon="5.46802">
        <ele>77.8</ele>
        <time>2012-05-12T07:30:46.278Z</time>
      </trkpt>
      <trkpt lat="43.20913" lon="5.46805">
        <ele>76</ele>
        <time>2012-05-12T07:30:50.783Z</time>
      </trkpt>
      <trkpt lat="43.20912" lon="5.46798">
        <ele>73.5</ele>
        <time>2012-05-12T07:30:55.191Z</time>
      </trkpt>
      <trkpt lat="43.20904" lon="5.46802">
        <ele>71.5</ele>
        <time>2012-05-12T07:30:57.797Z</time>
      </trkpt>
      <trkpt lat="43.20903" lon="5.46813">
        <ele>72.8</ele>
        <time>2012-05-12T07:31:01.764Z</time>
      </trkpt>
      <trkpt lat="43.20907" lon="5.46812">
        <ele>71.7</ele>
        <time>2012-05-12T07:31:04.073Z</time>
      </trkpt>
      <trkpt lat="43.20912" lon="5.46819">
        <ele>70.2</ele>
        <time>2012-05-12T07:31:08.805Z</time>
      </trkpt>
      <trkpt lat="43.20915" lon="5.46827">
        <ele>68.1</ele>
        <time>2012-05-12T07:31:10.805Z</time>
      </trkpt>
      <trkpt lat="43.20913" lon="5.46836">
        <ele>67.5</ele>
        <time>2012-05-12T07:31:17.805Z</time>
      </trkpt>
      <trkpt lat="43.2091" lon="5.46842">
        <ele>68.2</ele>
        <time>2012-05-12T07:31:19.805Z</time>
      </trkpt>
      <trkpt lat="43.20909" lon="5.46851">
        <ele>68.9</ele>
        <time>2012-05-12T07:31:23.805Z</time>
      </trkpt>
      <trkpt lat="43.20913" lon="5.4686">
        <ele>66.4</ele>
        <time>2012-05-12T07:31:28.075Z</time>
      </trkpt>
      <trkpt lat="43.20917" lon="5.46863">
        <ele>62.7</ele>
        <time>2012-05-12T07:31:37.254Z</time>
      </trkpt>
      <trkpt lat="43.20919" lon="5.46872">
        <ele>61.7</ele>
        <time>2012-05-12T07:31:43.254Z</time>
      </trkpt>
      <trkpt lat="43.20923" lon="5.46879">
        <ele>61.4</ele>
        <time>2012-05-12T07:31:45.254Z</time>
      </trkpt>
      <trkpt lat="43.20921" lon="5.46886">
        <ele>60.2</ele>
        <time>2012-05-12T07:31:46.254Z</time>
      </trkpt>
      <trkpt lat="43.20921" lon="5.46895">
        <ele>64</ele>
        <time>2012-05-12T07:32:17.118Z</time>
      </trkpt>
      <trkpt lat="43.20921" lon="5.46904">
        <ele>65.1</ele>
        <time>2012-05-12T07:32:19.118Z</time>
      </trkpt>
      <trkpt lat="43.20922" lon="5.46912">
        <ele>66.2</ele>
        <time>2012-05-12T07:32:23.118Z</time>
      </trkpt>
      <trkpt lat="43.20918" lon="5.46924">
        <ele>66.3</ele>
        <time>2012-05-12T07:32:29.281Z</time>
      </trkpt>
      <trkpt lat="43.20918" lon="5.46931">
        <ele>66.4</ele>
        <time>2012-05-12T07:32:44.655Z</time>
      </trkpt>
      <trkpt lat="43.20913" lon="5.46954">
        <ele>70.1</ele>
        <time>2012-05-12T07:33:03.558Z</time>
      </trkpt>
      <trkpt lat="43.20909" lon="5.46953">
        <ele>68.8</ele>
        <time>2012-05-12T07:33:06.212Z</time>
      </trkpt>
      <trkpt lat="43.2091" lon="5.46964">
        <ele>69.9</ele>
        <time>2012-05-12T07:33:09.212Z</time>
      </trkpt>
      <trkpt lat="43.20915" lon="5.46966">
        <ele>66</ele>
        <time>2012-05-12T07:33:15.212Z</time>
      </trkpt>
      <trkpt lat="43.20908" lon="5.46972">
        <ele>68.1</ele>
        <time>2012-05-12T07:34:01.714Z</time>
      </trkpt>
      <trkpt lat="43.20912" lon="5.46984">
        <ele>66.1</ele>
        <time>2012-05-12T07:34:03.117Z</time>
      </trkpt>
      <trkpt lat="43.20912" lon="5.46997">
        <ele>65</ele>
        <time>2012-05-12T07:34:06.763Z</time>
      </trkpt>
      <trkpt lat="43.20919" lon="5.46999">
        <ele>66.1</ele>
        <time>2012-05-12T07:34:10.482Z</time>
      </trkpt>
      <trkpt lat="43.20923" lon="5.47005">
        <ele>66.5</ele>
        <time>2012-05-12T07:34:12.482Z</time>
      </trkpt>
      <trkpt lat="43.20921" lon="5.46998">
        <ele>65.9</ele>
        <time>2012-05-12T07:34:24.482Z</time>
      </trkpt>
      <trkpt lat="43.20916" lon="5.46994">
        <ele>66.8</ele>
        <time>2012-05-12T07:35:55.692Z</time>
      </trkpt>
      <trkpt lat="43.20914" lon="5.47001">
        <ele>68.2</ele>
        <time>2012-05-12T07:35:57.692Z</time>
      </trkpt>
      <trkpt lat="43.20908" lon="5.46995">
        <ele>67.6</ele>
        <time>2012-05-12T07:35:59.692Z</time>
      </trkpt>
      <trkpt lat="43.20908" lon="5.47002">
        <ele>71.2</ele>
        <time>2012-05-12T07:36:25.692Z</time>
      </trkpt>
      <trkpt lat="43.2089" lon="5.47009">
        <ele>73.2</ele>
        <time>2012-05-12T07:36:29.230Z</time>
      </trkpt>
      <trkpt lat="43.20895" lon="5.4701">
        <ele>77.8</ele>
        <time>2012-05-12T07:36:47.230Z</time>
      </trkpt>
      <trkpt lat="43.20892" lon="5.47016">
        <ele>82.2</ele>
        <time>2012-05-12T07:37:41.178Z</time>
      </trkpt>
      <trkpt lat="43.20891" lon="5.47024">
        <ele>94.4</ele>
        <time>2012-05-12T07:37:53.091Z</time>
      </trkpt>
      <trkpt lat="43.20891" lon="5.47031">
        <ele>90.4</ele>
        <time>2012-05-12T07:38:10.276Z</time>
      </trkpt>
      <trkpt lat="43.20897" lon="5.47033">
        <ele>95.7</ele>
        <time>2012-05-12T07:39:26.766Z</time>
      </trkpt>
      <trkpt lat="43.20902" lon="5.47039">
        <ele>97.2</ele>
        <time>2012-05-12T07:39:28.766Z</time>
      </trkpt>
      <trkpt lat="43.20907" lon="5.47042">
        <ele>99</ele>
        <time>2012-05-12T07:39:30.766Z</time>
      </trkpt>
      <trkpt lat="43.20911" lon="5.47038">
        <ele>101.8</ele>
        <time>2012-05-12T07:39:33.766Z</time>
      </trkpt>
      <trkpt lat="43.20915" lon="5.47042">
        <ele>102.4</ele>
        <time>2012-05-12T07:39:35.766Z</time>
      </trkpt>
      <trkpt lat="43.20918" lon="5.47047">
        <ele>102.6</ele>
        <time>2012-05-12T07:39:37.766Z</time>
      </trkpt>
      <trkpt lat="43.20921" lon="5.47054">
        <ele>104.3</ele>
        <time>2012-05-12T07:39:39.766Z</time>
      </trkpt>
      <trkpt lat="43.20921" lon="5.47045">
        <ele>105.5</ele>
        <time>2012-05-12T07:39:44.766Z</time>
      </trkpt>
      <trkpt lat="43.20924" lon="5.47051">
        <ele>109.6</ele>
        <time>2012-05-12T07:39:49.352Z</time>
      </trkpt>
      <trkpt lat="43.2093" lon="5.47066">
        <ele>120.4</ele>
        <time>2012-05-12T07:41:47.214Z</time>
      </trkpt>
      <trkpt lat="43.20936" lon="5.47067">
        <ele>121.6</ele>
        <time>2012-05-12T07:41:49.214Z</time>
      </trkpt>
      <trkpt lat="43.20937" lon="5.47073">
        <ele>121.3</ele>
        <time>2012-05-12T07:41:51.214Z</time>
      </trkpt>
      <trkpt lat="43.20942" lon="5.47073">
        <ele>124.1</ele>
        <time>2012-05-12T07:42:04.919Z</time>
      </trkpt>
      <trkpt lat="43.20943" lon="5.47079">
        <ele>125.8</ele>
        <time>2012-05-12T07:42:05.919Z</time>
      </trkpt>
      <trkpt lat="43.20949" lon="5.47082">
        <ele>126.7</ele>
        <time>2012-05-12T07:42:43.203Z</time>
      </trkpt>
      <trkpt lat="43.20954" lon="5.47079">
        <ele>132.1</ele>
        <time>2012-05-12T07:42:49.203Z</time>
      </trkpt>
      <trkpt lat="43.20956" lon="5.47085">
        <ele>132.4</ele>
        <time>2012-05-12T07:42:52.203Z</time>
      </trkpt>
      <trkpt lat="43.20957" lon="5.47076">
        <ele>137</ele>
        <time>2012-05-12T07:43:04.793Z</time>
      </trkpt>
      <trkpt lat="43.20963" lon="5.4708">
        <ele>142.8</ele>
        <time>2012-05-12T07:43:35.793Z</time>
      </trkpt>
      <trkpt lat="43.20965" lon="5.47091">
        <ele>143.2</ele>
        <time>2012-05-12T07:43:36.199Z</time>
      </trkpt>
      <trkpt lat="43.2097" lon="5.47088">
        <ele>146.1</ele>
        <time>2012-05-12T07:43:41.313Z</time>
      </trkpt>
      <trkpt lat="43.20976" lon="5.47089">
        <ele>151.1</ele>
        <time>2012-05-12T07:43:50.313Z</time>
      </trkpt>
      <trkpt lat="43.20981" lon="5.47089">
        <ele>151.1</ele>
        <time>2012-05-12T07:44:02.313Z</time>
      </trkpt>
      <trkpt lat="43.20984" lon="5.47084">
        <ele>151.2</ele>
        <time>2012-05-12T07:44:06.313Z</time>
      </trkpt>
      <trkpt lat="43.2099" lon="5.4708">
        <ele>154.7</ele>
        <time>2012-05-12T07:44:56.791Z</time>
      </trkpt>
      <trkpt lat="43.20995" lon="5.4708">
        <ele>152.9</ele>
        <time>2012-05-12T07:44:58.791Z</time>
      </trkpt>
      <trkpt lat="43.21001" lon="5.47081">
        <ele>155</ele>
        <time>2012-05-12T07:45:00.791Z</time>
      </trkpt>
      <trkpt lat="43.21005" lon="5.4708">
        <ele>157.4</ele>
        <time>2012-05-12T07:45:02.791Z</time>
      </trkpt>
      <trkpt lat="43.21009" lon="5.47084">
        <ele>156.9</ele>
        <time>2012-05-12T07:45:05.090Z</time>
      </trkpt>
      <trkpt lat="43.21012" lon="5.47078">
        <ele>156.7</ele>
        <time>2012-05-12T07:45:07.403Z</time>
      </trkpt>
      <trkpt lat="43.21016" lon="5.47079">
        <ele>165</ele>
        <time>2012-05-12T07:45:18.803Z</time>
      </trkpt>
      <trkpt lat="43.21019" lon="5.47088">
        <ele>164.8</ele>
        <time>2012-05-12T07:45:21.286Z</time>
      </trkpt>
      <trkpt lat="43.21019" lon="5.47081">
        <ele>169.7</ele>
        <time>2012-05-12T07:45:26.453Z</time>
      </trkpt>
      <trkpt lat="43.21016" lon="5.47075">
        <ele>171.8</ele>
        <time>2012-05-12T07:45:33.919Z</time>
      </trkpt>
      <trkpt lat="43.21022" lon="5.47076">
        <ele>172.8</ele>
        <time>2012-05-12T07:45:46.919Z</time>
      </trkpt>
      <trkpt lat="43.21026" lon="5.47079">
        <ele>175.9</ele>
        <time>2012-05-12T07:45:51.919Z</time>
      </trkpt>
      <trkpt lat="43.2103" lon="5.47068">
        <ele>180.6</ele>
        <time>2012-05-12T07:46:49.799Z</time>
      </trkpt>
      <trkpt lat="43.21034" lon="5.4706">
        <ele>182.2</ele>
        <time>2012-05-12T07:46:50.799Z</time>
      </trkpt>
      <trkpt lat="43.21037" lon="5.47054">
        <ele>182.9</ele>
        <time>2012-05-12T07:46:51.799Z</time>
      </trkpt>
      <trkpt lat="43.21039" lon="5.47048">
        <ele>182.6</ele>
        <time>2012-05-12T07:46:52.799Z</time>
      </trkpt>
      <trkpt lat="43.21044" lon="5.47049">
        <ele>185.6</ele>
        <time>2012-05-12T07:46:58.799Z</time>
      </trkpt>
      <trkpt lat="43.21043" lon="5.47042">
        <ele>189</ele>
        <time>2012-05-12T07:47:05.799Z</time>
      </trkpt>
      <trkpt lat="43.2105" lon="5.47039">
        <ele>190.2</ele>
        <time>2012-05-12T07:47:46.435Z</time>
      </trkpt>
      <trkpt lat="43.21056" lon="5.47033">
        <ele>191.7</ele>
        <time>2012-05-12T07:47:47.435Z</time>
      </trkpt>
      <trkpt lat="43.21059" lon="5.47026">
        <ele>191.2</ele>
        <time>2012-05-12T07:47:48.435Z</time>
      </trkpt>
      <trkpt lat="43.21065" lon="5.47029">
        <ele>194.7</ele>
        <time>2012-05-12T07:47:50.435Z</time>
      </trkpt>
      <trkpt lat="43.21069" lon="5.4703">
        <ele>198.4</ele>
        <time>2012-05-12T07:47:52.435Z</time>
      </trkpt>
      <trkpt lat="43.21075" lon="5.47027">
        <ele>206.9</ele>
        <time>2012-05-12T07:48:01.435Z</time>
      </trkpt>
      <trkpt lat="43.2108" lon="5.4703">
        <ele>212.1</ele>
        <time>2012-05-12T07:48:06.435Z</time>
      </trkpt>
      <trkpt lat="43.2108" lon="5.47023">
        <ele>216.1</ele>
        <time>2012-05-12T07:48:26.435Z</time>
      </trkpt>
      <trkpt lat="43.21085" lon="5.47019">
        <ele>221</ele>
        <time>2012-05-12T07:48:38.435Z</time>
      </trkpt>
      <trkpt lat="43.21089" lon="5.47014">
        <ele>223.9</ele>
        <time>2012-05-12T07:48:50.435Z</time>
      </trkpt>
      <trkpt lat="43.21082" lon="5.47002">
        <ele>226.9</ele>
        <time>2012-05-12T07:49:50.875Z</time>
      </trkpt>
      <trkpt lat="43.21088" lon="5.47006">
        <ele>225.9</ele>
        <time>2012-05-12T07:49:51.875Z</time>
      </trkpt>
      <trkpt lat="43.21093" lon="5.47008">
        <ele>230.4</ele>
        <time>2012-05-12T07:49:56.875Z</time>
      </trkpt>
      <trkpt lat="43.21089" lon="5.47011">
        <ele>232.4</ele>
        <time>2012-05-12T07:50:22.959Z</time>
      </trkpt>
      <trkpt lat="43.21093" lon="5.47017">
        <ele>233.9</ele>
        <time>2012-05-12T07:50:26.787Z</time>
      </trkpt>
      <trkpt lat="43.21096" lon="5.4701">
        <ele>234.5</ele>
        <time>2012-05-12T07:50:27.787Z</time>
      </trkpt>
      <trkpt lat="43.21095" lon="5.47003">
        <ele>237</ele>
        <time>2012-05-12T07:50:29.787Z</time>
      </trkpt>
      <trkpt lat="43.21098" lon="5.46998">
        <ele>242.7</ele>
        <time>2012-05-12T07:51:17.787Z</time>
      </trkpt>
      <trkpt lat="43.21096" lon="5.47004">
        <ele>244</ele>
        <time>2012-05-12T07:51:19.787Z</time>
      </trkpt>
      <trkpt lat="43.21097" lon="5.4701">
        <ele>248.7</ele>
        <time>2012-05-12T07:51:36.500Z</time>
      </trkpt>
      <trkpt lat="43.21098" lon="5.47016">
        <ele>250.8</ele>
        <time>2012-05-12T07:51:38.500Z</time>
      </trkpt>
      <trkpt lat="43.21098" lon="5.47022">
        <ele>250.9</ele>
        <time>2012-05-12T07:51:45.500Z</time>
      </trkpt>
      <trkpt lat="43.21103" lon="5.47024">
        <ele>250.9</ele>
        <time>2012-05-12T07:51:52.500Z</time>
      </trkpt>
      <trkpt lat="43.21107" lon="5.47025">
        <ele>254.1</ele>
        <time>2012-05-12T07:52:00.500Z</time>
      </trkpt>
      <trkpt lat="43.21105" lon="5.47031">
        <ele>252.6</ele>
        <time>2012-05-12T07:52:02.462Z</time>
      </trkpt>
      <trkpt lat="43.21107" lon="5.47041">
        <ele>258</ele>
        <time>2012-05-12T07:52:20.462Z</time>
      </trkpt>
      <trkpt lat="43.2111" lon="5.47046">
        <ele>257.8</ele>
        <time>2012-05-12T07:52:22.462Z</time>
      </trkpt>
      <trkpt lat="43.21113" lon="5.47051">
        <ele>263.4</ele>
        <time>2012-05-12T07:53:01.462Z</time>
      </trkpt>
      <trkpt lat="43.21117" lon="5.47058">
        <ele>265.8</ele>
        <time>2012-05-12T07:53:03.462Z</time>
      </trkpt>
      <trkpt lat="43.21118" lon="5.47048">
        <ele>272</ele>
        <time>2012-05-12T07:53:10.365Z</time>
      </trkpt>
      <trkpt lat="43.21119" lon="5.47041">
        <ele>271.3</ele>
        <time>2012-05-12T07:53:12.210Z</time>
      </trkpt>
      <trkpt lat="43.21125" lon="5.47042">
        <ele>273.1</ele>
        <time>2012-05-12T07:53:15.210Z</time>
      </trkpt>
      <trkpt lat="43.21129" lon="5.47038">
        <ele>274.1</ele>
        <time>2012-05-12T07:53:18.210Z</time>
      </trkpt>
      <trkpt lat="43.21134" lon="5.47037">
        <ele>280.3</ele>
        <time>2012-05-12T07:53:52.201Z</time>
      </trkpt>
      <trkpt lat="43.2114" lon="5.47037">
        <ele>280.1</ele>
        <time>2012-05-12T07:53:56.201Z</time>
      </trkpt>
      <trkpt lat="43.21139" lon="5.47046">
        <ele>279.3</ele>
        <time>2012-05-12T07:53:57.201Z</time>
      </trkpt>
      <trkpt lat="43.21143" lon="5.47038">
        <ele>278.5</ele>
        <time>2012-05-12T07:54:00.201Z</time>
      </trkpt>
      <trkpt lat="43.21145" lon="5.47031">
        <ele>278</ele>
        <time>2012-05-12T07:54:02.391Z</time>
      </trkpt>
      <trkpt lat="43.21148" lon="5.47026">
        <ele>282.2</ele>
        <time>2012-05-12T07:54:05.791Z</time>
      </trkpt>
      <trkpt lat="43.2115" lon="5.47031">
        <ele>287</ele>
        <time>2012-05-12T07:54:40.791Z</time>
      </trkpt>
      <trkpt lat="43.21151" lon="5.47038">
        <ele>292.1</ele>
        <time>2012-05-12T07:54:53.791Z</time>
      </trkpt>
      <trkpt lat="43.2115" lon="5.47045">
        <ele>293.7</ele>
        <time>2012-05-12T07:54:57.791Z</time>
      </trkpt>
      <trkpt lat="43.21148" lon="5.47052">
        <ele>295.5</ele>
        <time>2012-05-12T07:55:06.791Z</time>
      </trkpt>
      <trkpt lat="43.21149" lon="5.47058">
        <ele>294.2</ele>
        <time>2012-05-12T07:55:11.791Z</time>
      </trkpt>
      <trkpt lat="43.21153" lon="5.47057">
        <ele>290.9</ele>
        <time>2012-05-12T07:55:25.199Z</time>
      </trkpt>
      <trkpt lat="43.21158" lon="5.47049">
        <ele>292.5</ele>
        <time>2012-05-12T07:55:30.203Z</time>
      </trkpt>
      <trkpt lat="43.21163" lon="5.47046">
        <ele>290.9</ele>
        <time>2012-05-12T07:55:32.203Z</time>
      </trkpt>
      <trkpt lat="43.21163" lon="5.47053">
        <ele>292.7</ele>
        <time>2012-05-12T07:55:40.203Z</time>
      </trkpt>
      <trkpt lat="43.21162" lon="5.47064">
        <ele>291.8</ele>
        <time>2012-05-12T07:55:47.203Z</time>
      </trkpt>
      <trkpt lat="43.21162" lon="5.47072">
        <ele>291.5</ele>
        <time>2012-05-12T07:55:50.203Z</time>
      </trkpt>
      <trkpt lat="43.21161" lon="5.47065">
        <ele>292.9</ele>
        <time>2012-05-12T07:55:59.707Z</time>
      </trkpt>
      <trkpt lat="43.21158" lon="5.47057">
        <ele>288.2</ele>
        <time>2012-05-12T07:56:02.592Z</time>
      </trkpt>
      <trkpt lat="43.21161" lon="5.47066">
        <ele>287.6</ele>
        <time>2012-05-12T07:56:04.757Z</time>
      </trkpt>
      <trkpt lat="43.21165" lon="5.47072">
        <ele>289.6</ele>
        <time>2012-05-12T07:56:07.288Z</time>
      </trkpt>
      <trkpt lat="43.21169" lon="5.47068">
        <ele>289.4</ele>
        <time>2012-05-12T07:56:10.288Z</time>
      </trkpt>
      <trkpt lat="43.21172" lon="5.47064">
        <ele>290.1</ele>
        <time>2012-05-12T07:56:12.288Z</time>
      </trkpt>
      <trkpt lat="43.21175" lon="5.47057">
        <ele>291.2</ele>
        <time>2012-05-12T07:56:14.288Z</time>
      </trkpt>
      <trkpt lat="43.21176" lon="5.47051">
        <ele>292.6</ele>
        <time>2012-05-12T07:56:15.288Z</time>
      </trkpt>
      <trkpt lat="43.21178" lon="5.47056">
        <ele>293.1</ele>
        <time>2012-05-12T07:56:41.215Z</time>
      </trkpt>
      <trkpt lat="43.21176" lon="5.47064">
        <ele>292.6</ele>
        <time>2012-05-12T07:56:44.215Z</time>
      </trkpt>
      <trkpt lat="43.21179" lon="5.47058">
        <ele>292.8</ele>
        <time>2012-05-12T07:56:45.215Z</time>
      </trkpt>
      <trkpt lat="43.2118" lon="5.47066">
        <ele>297.1</ele>
        <time>2012-05-12T07:57:03.215Z</time>
      </trkpt>
      <trkpt lat="43.21184" lon="5.47064">
        <ele>297.5</ele>
        <time>2012-05-12T07:57:35.487Z</time>
      </trkpt>
      <trkpt lat="43.21187" lon="5.47057">
        <ele>298.6</ele>
        <time>2012-05-12T07:57:44.286Z</time>
      </trkpt>
      <trkpt lat="43.21192" lon="5.47045">
        <ele>299.7</ele>
        <time>2012-05-12T07:57:56.286Z</time>
      </trkpt>
      <trkpt lat="43.21194" lon="5.47038">
        <ele>299.9</ele>
        <time>2012-05-12T07:57:57.286Z</time>
      </trkpt>
      <trkpt lat="43.21198" lon="5.4703">
        <ele>300.1</ele>
        <time>2012-05-12T07:57:59.286Z</time>
      </trkpt>
      <trkpt lat="43.212" lon="5.47024">
        <ele>300.8</ele>
        <time>2012-05-12T07:58:07.286Z</time>
      </trkpt>
      <trkpt lat="43.21198" lon="5.47031">
        <ele>304.5</ele>
        <time>2012-05-12T07:58:14.286Z</time>
      </trkpt>
      <trkpt lat="43.21202" lon="5.47025">
        <ele>306.6</ele>
        <time>2012-05-12T07:58:35.263Z</time>
      </trkpt>
      <trkpt lat="43.21204" lon="5.4702">
        <ele>306.9</ele>
        <time>2012-05-12T07:58:36.263Z</time>
      </trkpt>
      <trkpt lat="43.21206" lon="5.47014">
        <ele>307.6</ele>
        <time>2012-05-12T07:58:43.263Z</time>
      </trkpt>
      <trkpt lat="43.21205" lon="5.47006">
        <ele>304.9</ele>
        <time>2012-05-12T07:58:55.647Z</time>
      </trkpt>
      <trkpt lat="43.21212" lon="5.46999">
        <ele>303.3</ele>
        <time>2012-05-12T07:58:57.767Z</time>
      </trkpt>
      <trkpt lat="43.21218" lon="5.46999">
        <ele>308.1</ele>
        <time>2012-05-12T07:59:50.767Z</time>
      </trkpt>
      <trkpt lat="43.21221" lon="5.47004">
        <ele>309.1</ele>
        <time>2012-05-12T07:59:53.767Z</time>
      </trkpt>
      <trkpt lat="43.21225" lon="5.47009">
        <ele>311.6</ele>
        <time>2012-05-12T07:59:56.767Z</time>
      </trkpt>
      <trkpt lat="43.21228" lon="5.47013">
        <ele>310.8</ele>
        <time>2012-05-12T07:59:58.767Z</time>
      </trkpt>
      <trkpt lat="43.21234" lon="5.47009">
        <ele>310</ele>
        <time>2012-05-12T08:00:02.767Z</time>
      </trkpt>
      <trkpt lat="43.21238" lon="5.47015">
        <ele>309.6</ele>
        <time>2012-05-12T08:00:07.767Z</time>
      </trkpt>
      <trkpt lat="43.21242" lon="5.4701">
        <ele>309.1</ele>
        <time>2012-05-12T08:00:10.767Z</time>
      </trkpt>
      <trkpt lat="43.21248" lon="5.47006">
        <ele>309.8</ele>
        <time>2012-05-12T08:00:22.767Z</time>
      </trkpt>
      <trkpt lat="43.21245" lon="5.47012">
        <ele>312.5</ele>
        <time>2012-05-12T08:01:08.767Z</time>
      </trkpt>
      <trkpt lat="43.21248" lon="5.47004">
        <ele>313.1</ele>
        <time>2012-05-12T08:02:07.767Z</time>
      </trkpt>
      <trkpt lat="43.21253" lon="5.46998">
        <ele>313.4</ele>
        <time>2012-05-12T08:02:09.767Z</time>
      </trkpt>
      <trkpt lat="43.21257" lon="5.46996">
        <ele>314</ele>
        <time>2012-05-12T08:02:12.767Z</time>
      </trkpt>
      <trkpt lat="43.21262" lon="5.46993">
        <ele>314.5</ele>
        <time>2012-05-12T08:02:16.767Z</time>
      </trkpt>
      <trkpt lat="43.21262" lon="5.47">
        <ele>320.7</ele>
        <time>2012-05-12T08:03:52.258Z</time>
      </trkpt>
      <trkpt lat="43.21266" lon="5.46997">
        <ele>330.3</ele>
        <time>2012-05-12T08:04:02.967Z</time>
      </trkpt>
      <trkpt lat="43.2127" lon="5.46994">
        <ele>331.5</ele>
        <time>2012-05-12T08:04:12.056Z</time>
      </trkpt>
      <trkpt lat="43.21274" lon="5.46998">
        <ele>337.7</ele>
        <time>2012-05-12T08:04:25.750Z</time>
      </trkpt>
      <trkpt lat="43.21283" lon="5.46997">
        <ele>338.3</ele>
        <time>2012-05-12T08:04:29.209Z</time>
      </trkpt>
      <trkpt lat="43.21288" lon="5.46997">
        <ele>350.2</ele>
        <time>2012-05-12T08:04:59.787Z</time>
      </trkpt>
      <trkpt lat="43.21292" lon="5.46988">
        <ele>353.7</ele>
        <time>2012-05-12T08:05:37.319Z</time>
      </trkpt>
      <trkpt lat="43.21292" lon="5.46996">
        <ele>356.1</ele>
        <time>2012-05-12T08:05:45.319Z</time>
      </trkpt>
      <trkpt lat="43.21294" lon="5.46988">
        <ele>359.4</ele>
        <time>2012-05-12T08:09:23.289Z</time>
      </trkpt>
      <trkpt lat="43.213" lon="5.46986">
        <ele>360.5</ele>
        <time>2012-05-12T08:09:43.089Z</time>
      </trkpt>
      <trkpt lat="43.21296" lon="5.4699">
        <ele>361.7</ele>
        <time>2012-05-12T08:10:09.089Z</time>
      </trkpt>
      <trkpt lat="43.21291" lon="5.46995">
        <ele>364</ele>
        <time>2012-05-12T08:10:54.210Z</time>
      </trkpt>
      <trkpt lat="43.21293" lon="5.47002">
        <ele>366.2</ele>
        <time>2012-05-12T08:11:04.210Z</time>
      </trkpt>
      <trkpt lat="43.213" lon="5.46996">
        <ele>366.5</ele>
        <time>2012-05-12T08:11:12.210Z</time>
      </trkpt>
      <trkpt lat="43.21303" lon="5.47002">
        <ele>370</ele>
        <time>2012-05-12T08:11:42.226Z</time>
      </trkpt>
      <trkpt lat="43.2131" lon="5.47">
        <ele>376</ele>
        <time>2012-05-12T08:14:15.793Z</time>
      </trkpt>
      <trkpt lat="43.21313" lon="5.46994">
        <ele>377.1</ele>
        <time>2012-05-12T08:14:31.192Z</time>
      </trkpt>
      <trkpt lat="43.21318" lon="5.46994">
        <ele>377.8</ele>
        <time>2012-05-12T08:14:42.297Z</time>
      </trkpt>
      <trkpt lat="43.21322" lon="5.46989">
        <ele>377.3</ele>
        <time>2012-05-12T08:14:46.624Z</time>
      </trkpt>
      <trkpt lat="43.21326" lon="5.46992">
        <ele>376.8</ele>
        <time>2012-05-12T08:14:50.792Z</time>
      </trkpt>
      <trkpt lat="43.21333" lon="5.46988">
        <ele>381</ele>
        <time>2012-05-12T08:15:39.357Z</time>
      </trkpt>
      <trkpt lat="43.21332" lon="5.46995">
        <ele>381.3</ele>
        <time>2012-05-12T08:15:44.708Z</time>
      </trkpt>
      <trkpt lat="43.21338" lon="5.46992">
        <ele>382.9</ele>
        <time>2012-05-12T08:16:07.372Z</time>
      </trkpt>
      <trkpt lat="43.21342" lon="5.4699">
        <ele>388.9</ele>
        <time>2012-05-12T08:16:13.372Z</time>
      </trkpt>
      <trkpt lat="43.21346" lon="5.46992">
        <ele>392.9</ele>
        <time>2012-05-12T08:16:29.683Z</time>
      </trkpt>
      <trkpt lat="43.21351" lon="5.4699">
        <ele>400.4</ele>
        <time>2012-05-12T08:17:30.232Z</time>
      </trkpt>
      <trkpt lat="43.21355" lon="5.46986">
        <ele>405.4</ele>
        <time>2012-05-12T08:17:39.074Z</time>
      </trkpt>
      <trkpt lat="43.21355" lon="5.46977">
        <ele>407.3</ele>
        <time>2012-05-12T08:17:42.791Z</time>
      </trkpt>
      <trkpt lat="43.21357" lon="5.4697">
        <ele>407.4</ele>
        <time>2012-05-12T08:17:49.805Z</time>
      </trkpt>
      <trkpt lat="43.2136" lon="5.46963">
        <ele>406.9</ele>
        <time>2012-05-12T08:17:55.078Z</time>
      </trkpt>
      <trkpt lat="43.21364" lon="5.46958">
        <ele>408</ele>
        <time>2012-05-12T08:18:01.206Z</time>
      </trkpt>
      <trkpt lat="43.21369" lon="5.4696">
        <ele>406.2</ele>
        <time>2012-05-12T08:18:07.196Z</time>
      </trkpt>
      <trkpt lat="43.21372" lon="5.46955">
        <ele>407.4</ele>
        <time>2012-05-12T08:18:14.190Z</time>
      </trkpt>
      <trkpt lat="43.21376" lon="5.46956">
        <ele>409.2</ele>
        <time>2012-05-12T08:18:22.803Z</time>
      </trkpt>
      <trkpt lat="43.21378" lon="5.46948">
        <ele>408.2</ele>
        <time>2012-05-12T08:18:32.669Z</time>
      </trkpt>
      <trkpt lat="43.21382" lon="5.46944">
        <ele>406.8</ele>
        <time>2012-05-12T08:18:39.517Z</time>
      </trkpt>
      <trkpt lat="43.21386" lon="5.46939">
        <ele>410.2</ele>
        <time>2012-05-12T08:19:00.084Z</time>
      </trkpt>
      <trkpt lat="43.21391" lon="5.46936">
        <ele>407.9</ele>
        <time>2012-05-12T08:19:05.081Z</time>
      </trkpt>
      <trkpt lat="43.21392" lon="5.46929">
        <ele>410.2</ele>
        <time>2012-05-12T08:19:16.896Z</time>
      </trkpt>
      <trkpt lat="43.21395" lon="5.46932">
        <ele>410</ele>
        <time>2012-05-12T08:19:18.080Z</time>
      </trkpt>
      <trkpt lat="43.21393" lon="5.46926">
        <ele>409.2</ele>
        <time>2012-05-12T08:19:21.794Z</time>
      </trkpt>
      <trkpt lat="43.21394" lon="5.46917">
        <ele>409.1</ele>
        <time>2012-05-12T08:19:24.261Z</time>
      </trkpt>
      <trkpt lat="43.21398" lon="5.46917">
        <ele>408.2</ele>
        <time>2012-05-12T08:19:30.171Z</time>
      </trkpt>
      <trkpt lat="43.21395" lon="5.46912">
        <ele>406.5</ele>
        <time>2012-05-12T08:19:30.616Z</time>
      </trkpt>
      <trkpt lat="43.2139" lon="5.4691">
        <ele>410.1</ele>
        <time>2012-05-12T08:19:34.078Z</time>
      </trkpt>
      <trkpt lat="43.21395" lon="5.46912">
        <ele>410.3</ele>
        <time>2012-05-12T08:19:39.231Z</time>
      </trkpt>
      <trkpt lat="43.21398" lon="5.46908">
        <ele>428.1</ele>
        <time>2012-05-12T08:20:22.281Z</time>
      </trkpt>
      <trkpt lat="43.21401" lon="5.46901">
        <ele>432.9</ele>
        <time>2012-05-12T08:20:29.331Z</time>
      </trkpt>
      <trkpt lat="43.21403" lon="5.46894">
        <ele>431.6</ele>
        <time>2012-05-12T08:20:32.078Z</time>
      </trkpt>
      <trkpt lat="43.21401" lon="5.46888">
        <ele>432.3</ele>
        <time>2012-05-12T08:20:36.961Z</time>
      </trkpt>
      <trkpt lat="43.21399" lon="5.4688">
        <ele>436</ele>
        <time>2012-05-12T08:20:42.091Z</time>
      </trkpt>
      <trkpt lat="43.21402" lon="5.46874">
        <ele>437.7</ele>
        <time>2012-05-12T08:20:50.093Z</time>
      </trkpt>
      <trkpt lat="43.21408" lon="5.46872">
        <ele>435.9</ele>
        <time>2012-05-12T08:20:57.266Z</time>
      </trkpt>
      <trkpt lat="43.21412" lon="5.46866">
        <ele>434.7</ele>
        <time>2012-05-12T08:21:07.248Z</time>
      </trkpt>
      <trkpt lat="43.21416" lon="5.46859">
        <ele>438.5</ele>
        <time>2012-05-12T08:21:14.788Z</time>
      </trkpt>
      <trkpt lat="43.21419" lon="5.46855">
        <ele>440</ele>
        <time>2012-05-12T08:21:22.697Z</time>
      </trkpt>
      <trkpt lat="43.21423" lon="5.46849">
        <ele>442.2</ele>
        <time>2012-05-12T08:21:28.362Z</time>
      </trkpt>
      <trkpt lat="43.21429" lon="5.46848">
        <ele>441.1</ele>
        <time>2012-05-12T08:21:32.362Z</time>
      </trkpt>
      <trkpt lat="43.21434" lon="5.46847">
        <ele>440.9</ele>
        <time>2012-05-12T08:21:35.362Z</time>
      </trkpt>
      <trkpt lat="43.21437" lon="5.4684">
        <ele>440.9</ele>
        <time>2012-05-12T08:21:39.096Z</time>
      </trkpt>
      <trkpt lat="43.2144" lon="5.46834">
        <ele>439.8</ele>
        <time>2012-05-12T08:21:45.137Z</time>
      </trkpt>
      <trkpt lat="43.21444" lon="5.46829">
        <ele>439.8</ele>
        <time>2012-05-12T08:21:49.137Z</time>
      </trkpt>
      <trkpt lat="43.21445" lon="5.46822">
        <ele>439.7</ele>
        <time>2012-05-12T08:21:55.673Z</time>
      </trkpt>
      <trkpt lat="43.2145" lon="5.4682">
        <ele>438.1</ele>
        <time>2012-05-12T08:21:59.673Z</time>
      </trkpt>
      <trkpt lat="43.21454" lon="5.46816">
        <ele>437.8</ele>
        <time>2012-05-12T08:22:05.673Z</time>
      </trkpt>
      <trkpt lat="43.21458" lon="5.46812">
        <ele>437.8</ele>
        <time>2012-05-12T08:22:09.673Z</time>
      </trkpt>
      <trkpt lat="43.21463" lon="5.4681">
        <ele>439.3</ele>
        <time>2012-05-12T08:22:14.673Z</time>
      </trkpt>
      <trkpt lat="43.21467" lon="5.46807">
        <ele>438.6</ele>
        <time>2012-05-12T08:22:17.673Z</time>
      </trkpt>
      <trkpt lat="43.21471" lon="5.46812">
        <ele>446.1</ele>
        <time>2012-05-12T08:22:26.087Z</time>
      </trkpt>
      <trkpt lat="43.21475" lon="5.46815">
        <ele>445</ele>
        <time>2012-05-12T08:22:31.174Z</time>
      </trkpt>
      <trkpt lat="43.21478" lon="5.46808">
        <ele>440.4</ele>
        <time>2012-05-12T08:22:36.702Z</time>
      </trkpt>
      <trkpt lat="43.21483" lon="5.46807">
        <ele>440.3</ele>
        <time>2012-05-12T08:26:53.204Z</time>
      </trkpt>
      <trkpt lat="43.21487" lon="5.46804">
        <ele>440.4</ele>
        <time>2012-05-12T08:26:58.344Z</time>
      </trkpt>
      <trkpt lat="43.2149" lon="5.46797">
        <ele>440.2</ele>
        <time>2012-05-12T08:27:03.227Z</time>
      </trkpt>
      <trkpt lat="43.21495" lon="5.46791">
        <ele>440</ele>
        <time>2012-05-12T08:27:07.792Z</time>
      </trkpt>
      <trkpt lat="43.215" lon="5.46789">
        <ele>439.3</ele>
        <time>2012-05-12T08:27:10.258Z</time>
      </trkpt>
      <trkpt lat="43.21503" lon="5.46784">
        <ele>438</ele>
        <time>2012-05-12T08:27:13.368Z</time>
      </trkpt>
      <trkpt lat="43.21507" lon="5.4678">
        <ele>436.5</ele>
        <time>2012-05-12T08:27:21.419Z</time>
      </trkpt>
      <trkpt lat="43.21512" lon="5.46776">
        <ele>436.2</ele>
        <time>2012-05-12T08:27:26.419Z</time>
      </trkpt>
      <trkpt lat="43.21517" lon="5.46773">
        <ele>436.3</ele>
        <time>2012-05-12T08:27:30.419Z</time>
      </trkpt>
      <trkpt lat="43.2152" lon="5.46768">
        <ele>436.8</ele>
        <time>2012-05-12T08:27:32.419Z</time>
      </trkpt>
      <trkpt lat="43.21526" lon="5.46769">
        <ele>437.5</ele>
        <time>2012-05-12T08:27:38.419Z</time>
      </trkpt>
      <trkpt lat="43.21528" lon="5.46762">
        <ele>437.7</ele>
        <time>2012-05-12T08:27:46.773Z</time>
      </trkpt>
      <trkpt lat="43.21532" lon="5.46758">
        <ele>438.7</ele>
        <time>2012-05-12T08:27:54.198Z</time>
      </trkpt>
      <trkpt lat="43.21538" lon="5.46751">
        <ele>437.5</ele>
        <time>2012-05-12T08:27:56.198Z</time>
      </trkpt>
      <trkpt lat="43.21542" lon="5.46745">
        <ele>436.6</ele>
        <time>2012-05-12T08:27:58.791Z</time>
      </trkpt>
      <trkpt lat="43.21544" lon="5.46739">
        <ele>438.8</ele>
        <time>2012-05-12T08:28:15.707Z</time>
      </trkpt>
      <trkpt lat="43.2155" lon="5.46734">
        <ele>438.3</ele>
        <time>2012-05-12T08:28:17.707Z</time>
      </trkpt>
      <trkpt lat="43.21554" lon="5.46732">
        <ele>437.3</ele>
        <time>2012-05-12T08:28:19.707Z</time>
      </trkpt>
      <trkpt lat="43.21559" lon="5.46727">
        <ele>438.2</ele>
        <time>2012-05-12T08:28:23.707Z</time>
      </trkpt>
      <trkpt lat="43.21565" lon="5.46725">
        <ele>436.7</ele>
        <time>2012-05-12T08:28:30.508Z</time>
      </trkpt>
      <trkpt lat="43.21568" lon="5.46719">
        <ele>437.4</ele>
        <time>2012-05-12T08:28:33.508Z</time>
      </trkpt>
      <trkpt lat="43.21571" lon="5.46714">
        <ele>436.4</ele>
        <time>2012-05-12T08:28:36.508Z</time>
      </trkpt>
      <trkpt lat="43.21572" lon="5.46708">
        <ele>437.2</ele>
        <time>2012-05-12T08:28:40.508Z</time>
      </trkpt>
      <trkpt lat="43.21574" lon="5.46701">
        <ele>436.5</ele>
        <time>2012-05-12T08:28:42.508Z</time>
      </trkpt>
      <trkpt lat="43.21579" lon="5.46695">
        <ele>435.4</ele>
        <time>2012-05-12T08:28:45.508Z</time>
      </trkpt>
      <trkpt lat="43.2158" lon="5.46687">
        <ele>438.3</ele>
        <time>2012-05-12T08:28:51.033Z</time>
      </trkpt>
      <trkpt lat="43.21578" lon="5.46693">
        <ele>437.6</ele>
        <time>2012-05-12T08:28:55.076Z</time>
      </trkpt>
      <trkpt lat="43.21583" lon="5.46694">
        <ele>438.4</ele>
        <time>2012-05-12T08:29:01.207Z</time>
      </trkpt>
      <trkpt lat="43.21582" lon="5.46687">
        <ele>438.6</ele>
        <time>2012-05-12T08:29:06.989Z</time>
      </trkpt>
      <trkpt lat="43.21582" lon="5.4668">
        <ele>438.2</ele>
        <time>2012-05-12T08:29:10.125Z</time>
      </trkpt>
      <trkpt lat="43.21578" lon="5.46676">
        <ele>437.4</ele>
        <time>2012-05-12T08:29:17.125Z</time>
      </trkpt>
      <trkpt lat="43.21574" lon="5.46672">
        <ele>439</ele>
        <time>2012-05-12T08:29:24.137Z</time>
      </trkpt>
      <trkpt lat="43.21569" lon="5.46675">
        <ele>439.2</ele>
        <time>2012-05-12T08:29:26.115Z</time>
      </trkpt>
      <trkpt lat="43.2157" lon="5.46667">
        <ele>440.6</ele>
        <time>2012-05-12T08:29:32.171Z</time>
      </trkpt>
      <trkpt lat="43.21564" lon="5.46667">
        <ele>441.3</ele>
        <time>2012-05-12T08:29:35.171Z</time>
      </trkpt>
      <trkpt lat="43.21566" lon="5.4666">
        <ele>441.5</ele>
        <time>2012-05-12T08:29:38.171Z</time>
      </trkpt>
      <trkpt lat="43.21562" lon="5.46665">
        <ele>441.6</ele>
        <time>2012-05-12T08:29:42.171Z</time>
      </trkpt>
      <trkpt lat="43.21557" lon="5.46666">
        <ele>442.2</ele>
        <time>2012-05-12T08:29:54.171Z</time>
      </trkpt>
      <trkpt lat="43.21551" lon="5.46664">
        <ele>448</ele>
        <time>2012-05-12T08:29:58.590Z</time>
      </trkpt>
      <trkpt lat="43.2155" lon="5.46657">
        <ele>449</ele>
        <time>2012-05-12T08:30:09.792Z</time>
      </trkpt>
      <trkpt lat="43.21544" lon="5.46658">
        <ele>448.2</ele>
        <time>2012-05-12T08:30:14.792Z</time>
      </trkpt>
      <trkpt lat="43.21539" lon="5.46657">
        <ele>450.3</ele>
        <time>2012-05-12T08:30:21.792Z</time>
      </trkpt>
      <trkpt lat="43.21533" lon="5.46659">
        <ele>449.7</ele>
        <time>2012-05-12T08:30:25.076Z</time>
      </trkpt>
      <trkpt lat="43.21528" lon="5.46659">
        <ele>450</ele>
        <time>2012-05-12T08:30:30.649Z</time>
      </trkpt>
      <trkpt lat="43.21526" lon="5.46653">
        <ele>448.9</ele>
        <time>2012-05-12T08:30:41.792Z</time>
      </trkpt>
      <trkpt lat="43.21522" lon="5.46648">
        <ele>446.7</ele>
        <time>2012-05-12T08:30:50.791Z</time>
      </trkpt>
      <trkpt lat="43.21517" lon="5.4665">
        <ele>445.6</ele>
        <time>2012-05-12T08:30:57.382Z</time>
      </trkpt>
      <trkpt lat="43.21512" lon="5.46651">
        <ele>445.7</ele>
        <time>2012-05-12T08:31:00.382Z</time>
      </trkpt>
      <trkpt lat="43.21504" lon="5.46649">
        <ele>450.7</ele>
        <time>2012-05-12T08:31:05.084Z</time>
      </trkpt>
      <trkpt lat="43.215" lon="5.46648">
        <ele>453.1</ele>
        <time>2012-05-12T08:31:09.074Z</time>
      </trkpt>
      <trkpt lat="43.21495" lon="5.4665">
        <ele>453.8</ele>
        <time>2012-05-12T08:31:13.790Z</time>
      </trkpt>
      <trkpt lat="43.21488" lon="5.46649">
        <ele>453.7</ele>
        <time>2012-05-12T08:31:20.802Z</time>
      </trkpt>
      <trkpt lat="43.21483" lon="5.46651">
        <ele>454</ele>
        <time>2012-05-12T08:31:23.802Z</time>
      </trkpt>
      <trkpt lat="43.21478" lon="5.46652">
        <ele>454.5</ele>
        <time>2012-05-12T08:31:26.802Z</time>
      </trkpt>
      <trkpt lat="43.21473" lon="5.46649">
        <ele>452.4</ele>
        <time>2012-05-12T08:31:31.922Z</time>
      </trkpt>
      <trkpt lat="43.21469" lon="5.46651">
        <ele>450.1</ele>
        <time>2012-05-12T08:31:36.322Z</time>
      </trkpt>
      <trkpt lat="43.21464" lon="5.46651">
        <ele>448.8</ele>
        <time>2012-05-12T08:31:40.843Z</time>
      </trkpt>
      <trkpt lat="43.2146" lon="5.4665">
        <ele>448.4</ele>
        <time>2012-05-12T08:31:51.271Z</time>
      </trkpt>
      <trkpt lat="43.21456" lon="5.46646">
        <ele>447.6</ele>
        <time>2012-05-12T08:31:58.208Z</time>
      </trkpt>
      <trkpt lat="43.21457" lon="5.4664">
        <ele>443.4</ele>
        <time>2012-05-12T08:32:06.102Z</time>
      </trkpt>
      <trkpt lat="43.21454" lon="5.46632">
        <ele>445.9</ele>
        <time>2012-05-12T08:32:34.488Z</time>
      </trkpt>
      <trkpt lat="43.2145" lon="5.46629">
        <ele>446.1</ele>
        <time>2012-05-12T08:32:40.835Z</time>
      </trkpt>
      <trkpt lat="43.21445" lon="5.46628">
        <ele>450.1</ele>
        <time>2012-05-12T08:32:47.788Z</time>
      </trkpt>
      <trkpt lat="43.2144" lon="5.46625">
        <ele>450.3</ele>
        <time>2012-05-12T08:32:53.788Z</time>
      </trkpt>
      <trkpt lat="43.21436" lon="5.46627">
        <ele>451.5</ele>
        <time>2012-05-12T08:33:02.224Z</time>
      </trkpt>
      <trkpt lat="43.21432" lon="5.46623">
        <ele>451.7</ele>
        <time>2012-05-12T08:33:06.224Z</time>
      </trkpt>
      <trkpt lat="43.21427" lon="5.46619">
        <ele>455</ele>
        <time>2012-05-12T08:33:12.224Z</time>
      </trkpt>
      <trkpt lat="43.21421" lon="5.46622">
        <ele>455.2</ele>
        <time>2012-05-12T08:33:17.091Z</time>
      </trkpt>
      <trkpt lat="43.21417" lon="5.46619">
        <ele>453.6</ele>
        <time>2012-05-12T08:33:26.286Z</time>
      </trkpt>
      <trkpt lat="43.2141" lon="5.46619">
        <ele>453.2</ele>
        <time>2012-05-12T08:33:30.650Z</time>
      </trkpt>
      <trkpt lat="43.21407" lon="5.46614">
        <ele>454.4</ele>
        <time>2012-05-12T08:33:36.582Z</time>
      </trkpt>
      <trkpt lat="43.21411" lon="5.46609">
        <ele>457.9</ele>
        <time>2012-05-12T08:33:46.393Z</time>
      </trkpt>
      <trkpt lat="43.21406" lon="5.46612">
        <ele>460.8</ele>
        <time>2012-05-12T08:34:04.219Z</time>
      </trkpt>
      <trkpt lat="43.21402" lon="5.46609">
        <ele>464.8</ele>
        <time>2012-05-12T08:34:32.371Z</time>
      </trkpt>
      <trkpt lat="43.214" lon="5.46616">
        <ele>474</ele>
        <time>2012-05-12T08:34:40.079Z</time>
      </trkpt>
      <trkpt lat="43.21395" lon="5.46612">
        <ele>471.4</ele>
        <time>2012-05-12T08:34:42.077Z</time>
      </trkpt>
      <trkpt lat="43.21389" lon="5.46611">
        <ele>472.1</ele>
        <time>2012-05-12T08:34:44.092Z</time>
      </trkpt>
      <trkpt lat="43.21383" lon="5.46614">
        <ele>471.4</ele>
        <time>2012-05-12T08:34:48.234Z</time>
      </trkpt>
      <trkpt lat="43.21377" lon="5.46614">
        <ele>466.5</ele>
        <time>2012-05-12T08:34:52.258Z</time>
      </trkpt>
      <trkpt lat="43.21372" lon="5.46618">
        <ele>468.5</ele>
        <time>2012-05-12T08:35:00.415Z</time>
      </trkpt>
      <trkpt lat="43.21367" lon="5.46622">
        <ele>471.4</ele>
        <time>2012-05-12T08:35:05.228Z</time>
      </trkpt>
      <trkpt lat="43.21362" lon="5.46619">
        <ele>473.3</ele>
        <time>2012-05-12T08:35:12.789Z</time>
      </trkpt>
      <trkpt lat="43.21356" lon="5.4662">
        <ele>473.2</ele>
        <time>2012-05-12T08:35:17.095Z</time>
      </trkpt>
      <trkpt lat="43.21351" lon="5.46618">
        <ele>473.3</ele>
        <time>2012-05-12T08:35:20.242Z</time>
      </trkpt>
      <trkpt lat="43.21346" lon="5.46613">
        <ele>473.4</ele>
        <time>2012-05-12T08:35:31.080Z</time>
      </trkpt>
      <trkpt lat="43.21342" lon="5.46608">
        <ele>473.4</ele>
        <time>2012-05-12T08:35:41.810Z</time>
      </trkpt>
      <trkpt lat="43.21338" lon="5.46607">
        <ele>469.8</ele>
        <time>2012-05-12T08:36:29.339Z</time>
      </trkpt>
      <trkpt lat="43.21332" lon="5.46608">
        <ele>467.4</ele>
        <time>2012-05-12T08:36:45.908Z</time>
      </trkpt>
      <trkpt lat="43.21327" lon="5.46608">
        <ele>468.2</ele>
        <time>2012-05-12T08:36:48.111Z</time>
      </trkpt>
      <trkpt lat="43.21323" lon="5.4661">
        <ele>466.4</ele>
        <time>2012-05-12T08:36:51.257Z</time>
      </trkpt>
      <trkpt lat="43.21318" lon="5.46606">
        <ele>465.8</ele>
        <time>2012-05-12T08:36:53.777Z</time>
      </trkpt>
      <trkpt lat="43.21312" lon="5.46607">
        <ele>462.4</ele>
        <time>2012-05-12T08:37:00.092Z</time>
      </trkpt>
      <trkpt lat="43.21308" lon="5.46607">
        <ele>460.7</ele>
        <time>2012-05-12T08:37:05.787Z</time>
      </trkpt>
      <trkpt lat="43.21302" lon="5.46607">
        <ele>458</ele>
        <time>2012-05-12T08:37:07.291Z</time>
      </trkpt>
      <trkpt lat="43.21306" lon="5.46606">
        <ele>458.9</ele>
        <time>2012-05-12T08:37:27.282Z</time>
      </trkpt>
      <trkpt lat="43.213" lon="5.46608">
        <ele>460.3</ele>
        <time>2012-05-12T08:37:30.813Z</time>
      </trkpt>
      <trkpt lat="43.21305" lon="5.46608">
        <ele>464</ele>
        <time>2012-05-12T08:38:49.792Z</time>
      </trkpt>
      <trkpt lat="43.21305" lon="5.46601">
        <ele>462.5</ele>
        <time>2012-05-12T08:38:55.261Z</time>
      </trkpt>
      <trkpt lat="43.21305" lon="5.46594">
        <ele>461.3</ele>
        <time>2012-05-12T08:39:01.092Z</time>
      </trkpt>
      <trkpt lat="43.21306" lon="5.46586">
        <ele>456.4</ele>
        <time>2012-05-12T08:39:09.070Z</time>
      </trkpt>
      <trkpt lat="43.21313" lon="5.46585">
        <ele>458.2</ele>
        <time>2012-05-12T08:39:12.090Z</time>
      </trkpt>
      <trkpt lat="43.21319" lon="5.46584">
        <ele>459.6</ele>
        <time>2012-05-12T08:39:16.784Z</time>
      </trkpt>
      <trkpt lat="43.21324" lon="5.46583">
        <ele>462.4</ele>
        <time>2012-05-12T08:39:18.894Z</time>
      </trkpt>
      <trkpt lat="43.21329" lon="5.46582">
        <ele>462.3</ele>
        <time>2012-05-12T08:39:24.294Z</time>
      </trkpt>
      <trkpt lat="43.21332" lon="5.46577">
        <ele>462.9</ele>
        <time>2012-05-12T08:39:29.274Z</time>
      </trkpt>
      <trkpt lat="43.21336" lon="5.4657">
        <ele>461.5</ele>
        <time>2012-05-12T08:39:32.274Z</time>
      </trkpt>
      <trkpt lat="43.2134" lon="5.46565">
        <ele>460.9</ele>
        <time>2012-05-12T08:39:36.274Z</time>
      </trkpt>
      <trkpt lat="43.21346" lon="5.46559">
        <ele>458.3</ele>
        <time>2012-05-12T08:39:36.778Z</time>
      </trkpt>
      <trkpt lat="43.21341" lon="5.46559">
        <ele>456.6</ele>
        <time>2012-05-12T08:39:39.774Z</time>
      </trkpt>
      <trkpt lat="43.21342" lon="5.4655">
        <ele>456.9</ele>
        <time>2012-05-12T08:39:50.799Z</time>
      </trkpt>
      <trkpt lat="43.21346" lon="5.46543">
        <ele>456.7</ele>
        <time>2012-05-12T08:39:55.055Z</time>
      </trkpt>
      <trkpt lat="43.21347" lon="5.46536">
        <ele>456.6</ele>
        <time>2012-05-12T08:39:57.802Z</time>
      </trkpt>
      <trkpt lat="43.2135" lon="5.4653">
        <ele>457.5</ele>
        <time>2012-05-12T08:40:02.035Z</time>
      </trkpt>
      <trkpt lat="43.21356" lon="5.46526">
        <ele>457.1</ele>
        <time>2012-05-12T08:40:06.035Z</time>
      </trkpt>
      <trkpt lat="43.2136" lon="5.46526">
        <ele>453.3</ele>
        <time>2012-05-12T08:40:09.035Z</time>
      </trkpt>
      <trkpt lat="43.21365" lon="5.46526">
        <ele>452.1</ele>
        <time>2012-05-12T08:40:13.035Z</time>
      </trkpt>
      <trkpt lat="43.2137" lon="5.46532">
        <ele>451</ele>
        <time>2012-05-12T08:40:15.523Z</time>
      </trkpt>
      <trkpt lat="43.21375" lon="5.46535">
        <ele>451</ele>
        <time>2012-05-12T08:40:19.388Z</time>
      </trkpt>
      <trkpt lat="43.21378" lon="5.4653">
        <ele>447.9</ele>
        <time>2012-05-12T08:40:26.377Z</time>
      </trkpt>
      <trkpt lat="43.21378" lon="5.46524">
        <ele>442.8</ele>
        <time>2012-05-12T08:40:51.386Z</time>
      </trkpt>
      <trkpt lat="43.21378" lon="5.46508">
        <ele>441.7</ele>
        <time>2012-05-12T08:40:59.076Z</time>
      </trkpt>
      <trkpt lat="43.21384" lon="5.46508">
        <ele>441.6</ele>
        <time>2012-05-12T08:41:02.786Z</time>
      </trkpt>
      <trkpt lat="43.21388" lon="5.46511">
        <ele>441.9</ele>
        <time>2012-05-12T08:41:04.786Z</time>
      </trkpt>
      <trkpt lat="43.21391" lon="5.46516">
        <ele>441.1</ele>
        <time>2012-05-12T08:41:07.091Z</time>
      </trkpt>
      <trkpt lat="43.21396" lon="5.46517">
        <ele>440.7</ele>
        <time>2012-05-12T08:41:09.790Z</time>
      </trkpt>
      <trkpt lat="43.214" lon="5.46514">
        <ele>441.5</ele>
        <time>2012-05-12T08:41:14.790Z</time>
      </trkpt>
      <trkpt lat="43.21405" lon="5.46516">
        <ele>440.7</ele>
        <time>2012-05-12T08:41:19.790Z</time>
      </trkpt>
      <trkpt lat="43.2141" lon="5.46521">
        <ele>440.8</ele>
        <time>2012-05-12T08:41:24.790Z</time>
      </trkpt>
      <trkpt lat="43.21414" lon="5.46519">
        <ele>440.4</ele>
        <time>2012-05-12T08:41:32.790Z</time>
      </trkpt>
      <trkpt lat="43.21419" lon="5.46517">
        <ele>439</ele>
        <time>2012-05-12T08:41:35.447Z</time>
      </trkpt>
      <trkpt lat="43.21423" lon="5.46513">
        <ele>433.6</ele>
        <time>2012-05-12T08:41:42.789Z</time>
      </trkpt>
      <trkpt lat="43.21428" lon="5.46507">
        <ele>430</ele>
        <time>2012-05-12T08:41:45.262Z</time>
      </trkpt>
      <trkpt lat="43.21428" lon="5.46499">
        <ele>428.5</ele>
        <time>2012-05-12T08:41:51.224Z</time>
      </trkpt>
      <trkpt lat="43.2143" lon="5.46494">
        <ele>428.6</ele>
        <time>2012-05-12T08:41:59.079Z</time>
      </trkpt>
      <trkpt lat="43.21434" lon="5.46489">
        <ele>425.3</ele>
        <time>2012-05-12T08:42:13.790Z</time>
      </trkpt>
      <trkpt lat="43.21438" lon="5.46484">
        <ele>423</ele>
        <time>2012-05-12T08:42:19.790Z</time>
      </trkpt>
      <trkpt lat="43.21443" lon="5.46481">
        <ele>422.4</ele>
        <time>2012-05-12T08:42:23.790Z</time>
      </trkpt>
      <trkpt lat="43.21447" lon="5.46477">
        <ele>422.2</ele>
        <time>2012-05-12T08:42:27.790Z</time>
      </trkpt>
      <trkpt lat="43.21452" lon="5.46475">
        <ele>421.3</ele>
        <time>2012-05-12T08:42:32.790Z</time>
      </trkpt>
      <trkpt lat="43.21456" lon="5.46473">
        <ele>421.6</ele>
        <time>2012-05-12T08:42:36.790Z</time>
      </trkpt>
      <trkpt lat="43.21461" lon="5.46475">
        <ele>418.5</ele>
        <time>2012-05-12T08:42:39.790Z</time>
      </trkpt>
      <trkpt lat="43.21464" lon="5.46469">
        <ele>414.2</ele>
        <time>2012-05-12T08:42:42.296Z</time>
      </trkpt>
      <trkpt lat="43.21468" lon="5.46466">
        <ele>413</ele>
        <time>2012-05-12T08:42:47.434Z</time>
      </trkpt>
      <trkpt lat="43.21468" lon="5.46459">
        <ele>414.1</ele>
        <time>2012-05-12T08:42:51.434Z</time>
      </trkpt>
      <trkpt lat="43.21469" lon="5.46452">
        <ele>414.2</ele>
        <time>2012-05-12T08:42:56.434Z</time>
      </trkpt>
      <trkpt lat="43.21466" lon="5.46444">
        <ele>413.2</ele>
        <time>2012-05-12T08:43:01.434Z</time>
      </trkpt>
      <trkpt lat="43.2146" lon="5.46442">
        <ele>412.3</ele>
        <time>2012-05-12T08:43:04.340Z</time>
      </trkpt>
      <trkpt lat="43.21457" lon="5.46436">
        <ele>412.4</ele>
        <time>2012-05-12T08:43:08.614Z</time>
      </trkpt>
      <trkpt lat="43.21453" lon="5.46433">
        <ele>412.2</ele>
        <time>2012-05-12T08:43:12.614Z</time>
      </trkpt>
      <trkpt lat="43.2145" lon="5.46428">
        <ele>412.9</ele>
        <time>2012-05-12T08:43:19.614Z</time>
      </trkpt>
      <trkpt lat="43.21447" lon="5.46423">
        <ele>413.2</ele>
        <time>2012-05-12T08:43:22.614Z</time>
      </trkpt>
      <trkpt lat="43.21448" lon="5.46414">
        <ele>412.9</ele>
        <time>2012-05-12T08:43:25.265Z</time>
      </trkpt>
      <trkpt lat="43.21451" lon="5.46407">
        <ele>410.9</ele>
        <time>2012-05-12T08:43:34.179Z</time>
      </trkpt>
      <trkpt lat="43.2145" lon="5.464">
        <ele>411.4</ele>
        <time>2012-05-12T08:43:37.221Z</time>
      </trkpt>
      <trkpt lat="43.2145" lon="5.46392">
        <ele>409.1</ele>
        <time>2012-05-12T08:43:43.788Z</time>
      </trkpt>
      <trkpt lat="43.21458" lon="5.46382">
        <ele>404.2</ele>
        <time>2012-05-12T08:43:47.314Z</time>
      </trkpt>
      <trkpt lat="43.21455" lon="5.46375">
        <ele>403.9</ele>
        <time>2012-05-12T08:43:57.250Z</time>
      </trkpt>
      <trkpt lat="43.21458" lon="5.4637">
        <ele>404.1</ele>
        <time>2012-05-12T08:44:00.250Z</time>
      </trkpt>
      <trkpt lat="43.21462" lon="5.46364">
        <ele>405</ele>
        <time>2012-05-12T08:44:03.250Z</time>
      </trkpt>
      <trkpt lat="43.21467" lon="5.46359">
        <ele>404.9</ele>
        <time>2012-05-12T08:44:07.250Z</time>
      </trkpt>
      <trkpt lat="43.2147" lon="5.46354">
        <ele>404.8</ele>
        <time>2012-05-12T08:44:11.250Z</time>
      </trkpt>
      <trkpt lat="43.21471" lon="5.46348">
        <ele>404.6</ele>
        <time>2012-05-12T08:44:15.250Z</time>
      </trkpt>
      <trkpt lat="43.21473" lon="5.46342">
        <ele>403.1</ele>
        <time>2012-05-12T08:44:21.250Z</time>
      </trkpt>
      <trkpt lat="43.21472" lon="5.46335">
        <ele>403.1</ele>
        <time>2012-05-12T08:44:24.077Z</time>
      </trkpt>
      <trkpt lat="43.2147" lon="5.46329">
        <ele>402.6</ele>
        <time>2012-05-12T08:44:30.120Z</time>
      </trkpt>
      <trkpt lat="43.21465" lon="5.46327">
        <ele>402</ele>
        <time>2012-05-12T08:44:32.120Z</time>
      </trkpt>
      <trkpt lat="43.21459" lon="5.46326">
        <ele>406.4</ele>
        <time>2012-05-12T08:44:34.131Z</time>
      </trkpt>
      <trkpt lat="43.21454" lon="5.46321">
        <ele>404.4</ele>
        <time>2012-05-12T08:44:39.116Z</time>
      </trkpt>
      <trkpt lat="43.21451" lon="5.46316">
        <ele>403.8</ele>
        <time>2012-05-12T08:44:46.116Z</time>
      </trkpt>
      <trkpt lat="43.21446" lon="5.46312">
        <ele>398.4</ele>
        <time>2012-05-12T08:45:01.116Z</time>
      </trkpt>
      <trkpt lat="43.21452" lon="5.46306">
        <ele>396.7</ele>
        <time>2012-05-12T08:45:01.563Z</time>
      </trkpt>
      <trkpt lat="43.21446" lon="5.46308">
        <ele>393.6</ele>
        <time>2012-05-12T08:45:03.073Z</time>
      </trkpt>
      <trkpt lat="43.21445" lon="5.46302">
        <ele>389.8</ele>
        <time>2012-05-12T08:45:10.229Z</time>
      </trkpt>
      <trkpt lat="43.21445" lon="5.46294">
        <ele>390.6</ele>
        <time>2012-05-12T08:45:16.081Z</time>
      </trkpt>
      <trkpt lat="43.21442" lon="5.46288">
        <ele>388.7</ele>
        <time>2012-05-12T08:45:19.789Z</time>
      </trkpt>
      <trkpt lat="43.21439" lon="5.46284">
        <ele>383.9</ele>
        <time>2012-05-12T08:45:23.078Z</time>
      </trkpt>
      <trkpt lat="43.21438" lon="5.46277">
        <ele>380.4</ele>
        <time>2012-05-12T08:45:25.791Z</time>
      </trkpt>
      <trkpt lat="43.21438" lon="5.4627">
        <ele>379</ele>
        <time>2012-05-12T08:45:37.079Z</time>
      </trkpt>
      <trkpt lat="43.21437" lon="5.46264">
        <ele>382.2</ele>
        <time>2012-05-12T08:45:39.077Z</time>
      </trkpt>
      <trkpt lat="43.21432" lon="5.4626">
        <ele>383.7</ele>
        <time>2012-05-12T08:45:40.076Z</time>
      </trkpt>
      <trkpt lat="43.21437" lon="5.46257">
        <ele>386.7</ele>
        <time>2012-05-12T08:45:45.735Z</time>
      </trkpt>
      <trkpt lat="43.21437" lon="5.46249">
        <ele>388.2</ele>
        <time>2012-05-12T08:45:52.080Z</time>
      </trkpt>
      <trkpt lat="43.21438" lon="5.46243">
        <ele>386.7</ele>
        <time>2012-05-12T08:45:55.096Z</time>
      </trkpt>
      <trkpt lat="43.21434" lon="5.46238">
        <ele>384.1</ele>
        <time>2012-05-12T08:45:57.091Z</time>
      </trkpt>
      <trkpt lat="43.21432" lon="5.4623">
        <ele>382.8</ele>
        <time>2012-05-12T08:46:03.076Z</time>
      </trkpt>
      <trkpt lat="43.21433" lon="5.46223">
        <ele>382.7</ele>
        <time>2012-05-12T08:46:06.074Z</time>
      </trkpt>
      <trkpt lat="43.21434" lon="5.46216">
        <ele>383.7</ele>
        <time>2012-05-12T08:46:12.789Z</time>
      </trkpt>
      <trkpt lat="43.21436" lon="5.46207">
        <ele>380</ele>
        <time>2012-05-12T08:46:19.223Z</time>
      </trkpt>
      <trkpt lat="43.21432" lon="5.46205">
        <ele>377.9</ele>
        <time>2012-05-12T08:46:19.665Z</time>
      </trkpt>
      <trkpt lat="43.21436" lon="5.462">
        <ele>378.9</ele>
        <time>2012-05-12T08:46:24.795Z</time>
      </trkpt>
      <trkpt lat="43.2144" lon="5.46198">
        <ele>379.6</ele>
        <time>2012-05-12T08:46:27.795Z</time>
      </trkpt>
      <trkpt lat="43.21444" lon="5.46195">
        <ele>379.7</ele>
        <time>2012-05-12T08:46:29.795Z</time>
      </trkpt>
      <trkpt lat="43.21449" lon="5.46195">
        <ele>381.1</ele>
        <time>2012-05-12T08:46:31.795Z</time>
      </trkpt>
      <trkpt lat="43.21454" lon="5.46196">
        <ele>381.7</ele>
        <time>2012-05-12T08:46:35.795Z</time>
      </trkpt>
      <trkpt lat="43.21459" lon="5.46198">
        <ele>382</ele>
        <time>2012-05-12T08:46:39.795Z</time>
      </trkpt>
      <trkpt lat="43.21464" lon="5.46198">
        <ele>382.5</ele>
        <time>2012-05-12T08:46:42.795Z</time>
      </trkpt>
      <trkpt lat="43.21466" lon="5.46192">
        <ele>384</ele>
        <time>2012-05-12T08:46:47.795Z</time>
      </trkpt>
      <trkpt lat="43.21472" lon="5.46187">
        <ele>384.5</ele>
        <time>2012-05-12T08:46:54.285Z</time>
      </trkpt>
      <trkpt lat="43.21477" lon="5.46186">
        <ele>385.1</ele>
        <time>2012-05-12T08:46:58.285Z</time>
      </trkpt>
      <trkpt lat="43.21482" lon="5.46187">
        <ele>384.6</ele>
        <time>2012-05-12T08:47:03.285Z</time>
      </trkpt>
      <trkpt lat="43.21485" lon="5.46181">
        <ele>386.4</ele>
        <time>2012-05-12T08:47:06.285Z</time>
      </trkpt>
      <trkpt lat="43.21488" lon="5.46176">
        <ele>386.9</ele>
        <time>2012-05-12T08:47:11.285Z</time>
      </trkpt>
      <trkpt lat="43.21493" lon="5.46174">
        <ele>388.2</ele>
        <time>2012-05-12T08:47:17.285Z</time>
      </trkpt>
      <trkpt lat="43.21498" lon="5.46171">
        <ele>388.6</ele>
        <time>2012-05-12T08:47:22.285Z</time>
      </trkpt>
      <trkpt lat="43.21505" lon="5.46167">
        <ele>388.5</ele>
        <time>2012-05-12T08:47:29.253Z</time>
      </trkpt>
      <trkpt lat="43.2151" lon="5.46168">
        <ele>389.5</ele>
        <time>2012-05-12T08:47:35.253Z</time>
      </trkpt>
      <trkpt lat="43.21515" lon="5.46165">
        <ele>391.7</ele>
        <time>2012-05-12T08:47:41.122Z</time>
      </trkpt>
      <trkpt lat="43.21523" lon="5.46156">
        <ele>384.1</ele>
        <time>2012-05-12T08:47:41.724Z</time>
      </trkpt>
      <trkpt lat="43.21522" lon="5.46149">
        <ele>386.3</ele>
        <time>2012-05-12T08:47:48.078Z</time>
      </trkpt>
      <trkpt lat="43.21523" lon="5.46141">
        <ele>388.6</ele>
        <time>2012-05-12T08:47:55.074Z</time>
      </trkpt>
      <trkpt lat="43.21526" lon="5.46136">
        <ele>387.4</ele>
        <time>2012-05-12T08:48:01.233Z</time>
      </trkpt>
      <trkpt lat="43.21528" lon="5.46129">
        <ele>388</ele>
        <time>2012-05-12T08:48:06.233Z</time>
      </trkpt>
      <trkpt lat="43.21529" lon="5.46122">
        <ele>388.1</ele>
        <time>2012-05-12T08:48:09.233Z</time>
      </trkpt>
      <trkpt lat="43.21529" lon="5.46114">
        <ele>389</ele>
        <time>2012-05-12T08:48:13.233Z</time>
      </trkpt>
      <trkpt lat="43.21529" lon="5.46108">
        <ele>389.6</ele>
        <time>2012-05-12T08:48:18.233Z</time>
      </trkpt>
      <trkpt lat="43.21527" lon="5.46102">
        <ele>390.6</ele>
        <time>2012-05-12T08:48:23.233Z</time>
      </trkpt>
      <trkpt lat="43.21528" lon="5.46095">
        <ele>391.4</ele>
        <time>2012-05-12T08:48:26.233Z</time>
      </trkpt>
      <trkpt lat="43.21532" lon="5.4608">
        <ele>382.8</ele>
        <time>2012-05-12T08:48:31.649Z</time>
      </trkpt>
      <trkpt lat="43.21531" lon="5.46086">
        <ele>382.9</ele>
        <time>2012-05-12T08:48:35.114Z</time>
      </trkpt>
      <trkpt lat="43.2153" lon="5.46079">
        <ele>383.7</ele>
        <time>2012-05-12T08:48:42.114Z</time>
      </trkpt>
      <trkpt lat="43.21531" lon="5.46073">
        <ele>382.9</ele>
        <time>2012-05-12T08:48:47.789Z</time>
      </trkpt>
      <trkpt lat="43.21533" lon="5.46065">
        <ele>383.8</ele>
        <time>2012-05-12T08:48:52.077Z</time>
      </trkpt>
      <trkpt lat="43.21532" lon="5.46058">
        <ele>385.3</ele>
        <time>2012-05-12T08:49:00.789Z</time>
      </trkpt>
      <trkpt lat="43.2154" lon="5.4605">
        <ele>383</ele>
        <time>2012-05-12T08:49:03.294Z</time>
      </trkpt>
      <trkpt lat="43.21544" lon="5.46053">
        <ele>385.1</ele>
        <time>2012-05-12T08:49:18.238Z</time>
      </trkpt>
      <trkpt lat="43.21549" lon="5.46057">
        <ele>384.5</ele>
        <time>2012-05-12T08:49:22.238Z</time>
      </trkpt>
      <trkpt lat="43.21552" lon="5.46063">
        <ele>390.7</ele>
        <time>2012-05-12T08:49:29.095Z</time>
      </trkpt>
      <trkpt lat="43.21557" lon="5.46062">
        <ele>390.2</ele>
        <time>2012-05-12T08:49:32.095Z</time>
      </trkpt>
      <trkpt lat="43.21561" lon="5.46064">
        <ele>390.8</ele>
        <time>2012-05-12T08:49:37.095Z</time>
      </trkpt>
      <trkpt lat="43.21567" lon="5.46065">
        <ele>394.5</ele>
        <time>2012-05-12T08:49:41.079Z</time>
      </trkpt>
      <trkpt lat="43.21572" lon="5.46064">
        <ele>393.7</ele>
        <time>2012-05-12T08:50:08.791Z</time>
      </trkpt>
      <trkpt lat="43.21578" lon="5.46066">
        <ele>390.2</ele>
        <time>2012-05-12T08:50:12.076Z</time>
      </trkpt>
      <trkpt lat="43.21583" lon="5.4607">
        <ele>391.3</ele>
        <time>2012-05-12T08:50:16.074Z</time>
      </trkpt>
      <trkpt lat="43.21587" lon="5.46066">
        <ele>396.7</ele>
        <time>2012-05-12T08:50:19.178Z</time>
      </trkpt>
      <trkpt lat="43.21593" lon="5.46068">
        <ele>397.7</ele>
        <time>2012-05-12T08:50:26.083Z</time>
      </trkpt>
      <trkpt lat="43.21598" lon="5.46066">
        <ele>400.8</ele>
        <time>2012-05-12T08:50:28.225Z</time>
      </trkpt>
      <trkpt lat="43.21603" lon="5.46062">
        <ele>398.3</ele>
        <time>2012-05-12T08:50:34.076Z</time>
      </trkpt>
      <trkpt lat="43.21606" lon="5.46057">
        <ele>397.9</ele>
        <time>2012-05-12T08:50:37.790Z</time>
      </trkpt>
      <trkpt lat="43.21611" lon="5.46056">
        <ele>396.8</ele>
        <time>2012-05-12T08:50:40.790Z</time>
      </trkpt>
      <trkpt lat="43.21617" lon="5.46053">
        <ele>399.2</ele>
        <time>2012-05-12T08:50:43.790Z</time>
      </trkpt>
      <trkpt lat="43.21622" lon="5.46051">
        <ele>402.3</ele>
        <time>2012-05-12T08:50:47.790Z</time>
      </trkpt>
      <trkpt lat="43.21628" lon="5.46052">
        <ele>398.7</ele>
        <time>2012-05-12T08:50:52.790Z</time>
      </trkpt>
      <trkpt lat="43.21633" lon="5.46056">
        <ele>396.9</ele>
        <time>2012-05-12T08:50:57.790Z</time>
      </trkpt>
      <trkpt lat="43.21637" lon="5.4606">
        <ele>397</ele>
        <time>2012-05-12T08:51:01.790Z</time>
      </trkpt>
      <trkpt lat="43.2164" lon="5.46064">
        <ele>394.6</ele>
        <time>2012-05-12T08:51:05.790Z</time>
      </trkpt>
      <trkpt lat="43.21646" lon="5.46064">
        <ele>394.6</ele>
        <time>2012-05-12T08:51:09.790Z</time>
      </trkpt>
      <trkpt lat="43.21651" lon="5.46066">
        <ele>392.3</ele>
        <time>2012-05-12T08:51:13.790Z</time>
      </trkpt>
      <trkpt lat="43.21656" lon="5.46068">
        <ele>392.5</ele>
        <time>2012-05-12T08:51:16.790Z</time>
      </trkpt>
      <trkpt lat="43.2166" lon="5.4607">
        <ele>396.6</ele>
        <time>2012-05-12T08:51:19.790Z</time>
      </trkpt>
      <trkpt lat="43.21665" lon="5.46068">
        <ele>396.4</ele>
        <time>2012-05-12T08:51:23.790Z</time>
      </trkpt>
      <trkpt lat="43.21668" lon="5.46063">
        <ele>394.4</ele>
        <time>2012-05-12T08:51:28.435Z</time>
      </trkpt>
      <trkpt lat="43.21671" lon="5.46059">
        <ele>388.3</ele>
        <time>2012-05-12T08:51:34.435Z</time>
      </trkpt>
      <trkpt lat="43.21675" lon="5.46056">
        <ele>389.4</ele>
        <time>2012-05-12T08:51:41.435Z</time>
      </trkpt>
      <trkpt lat="43.21681" lon="5.46055">
        <ele>389.7</ele>
        <time>2012-05-12T08:51:46.435Z</time>
      </trkpt>
      <trkpt lat="43.21686" lon="5.46056">
        <ele>390.4</ele>
        <time>2012-05-12T08:51:50.435Z</time>
      </trkpt>
      <trkpt lat="43.21692" lon="5.46055">
        <ele>391.7</ele>
        <time>2012-05-12T08:51:54.435Z</time>
      </trkpt>
      <trkpt lat="43.21698" lon="5.46053">
        <ele>391.9</ele>
        <time>2012-05-12T08:52:00.435Z</time>
      </trkpt>
      <trkpt lat="43.21702" lon="5.46048">
        <ele>392.9</ele>
        <time>2012-05-12T08:52:03.435Z</time>
      </trkpt>
      <trkpt lat="43.21704" lon="5.46041">
        <ele>394.3</ele>
        <time>2012-05-12T08:52:09.435Z</time>
      </trkpt>
      <trkpt lat="43.21704" lon="5.46034">
        <ele>393.6</ele>
        <time>2012-05-12T08:52:14.435Z</time>
      </trkpt>
      <trkpt lat="43.21701" lon="5.46027">
        <ele>393.5</ele>
        <time>2012-05-12T08:52:19.435Z</time>
      </trkpt>
      <trkpt lat="43.21698" lon="5.46022">
        <ele>391.5</ele>
        <time>2012-05-12T08:52:22.435Z</time>
      </trkpt>
      <trkpt lat="43.21696" lon="5.46015">
        <ele>388.7</ele>
        <time>2012-05-12T08:52:26.435Z</time>
      </trkpt>
      <trkpt lat="43.21694" lon="5.46009">
        <ele>389.1</ele>
        <time>2012-05-12T08:52:30.392Z</time>
      </trkpt>
      <trkpt lat="43.21692" lon="5.46002">
        <ele>389.3</ele>
        <time>2012-05-12T08:52:37.392Z</time>
      </trkpt>
      <trkpt lat="43.21688" lon="5.45996">
        <ele>386.9</ele>
        <time>2012-05-12T08:52:49.392Z</time>
      </trkpt>
      <trkpt lat="43.21687" lon="5.45989">
        <ele>390.1</ele>
        <time>2012-05-12T08:52:54.392Z</time>
      </trkpt>
      <trkpt lat="43.21685" lon="5.45983">
        <ele>393</ele>
        <time>2012-05-12T08:52:59.392Z</time>
      </trkpt>
      <trkpt lat="43.21684" lon="5.45977">
        <ele>394.4</ele>
        <time>2012-05-12T08:53:03.392Z</time>
      </trkpt>
      <trkpt lat="43.21684" lon="5.4597">
        <ele>396.7</ele>
        <time>2012-05-12T08:53:08.392Z</time>
      </trkpt>
      <trkpt lat="43.21684" lon="5.45963">
        <ele>398.5</ele>
        <time>2012-05-12T08:53:12.392Z</time>
      </trkpt>
      <trkpt lat="43.21682" lon="5.45958">
        <ele>402.5</ele>
        <time>2012-05-12T08:53:18.392Z</time>
      </trkpt>
      <trkpt lat="43.21681" lon="5.45951">
        <ele>402.2</ele>
        <time>2012-05-12T08:53:23.392Z</time>
      </trkpt>
      <trkpt lat="43.21683" lon="5.45945">
        <ele>403</ele>
        <time>2012-05-12T08:53:29.274Z</time>
      </trkpt>
      <trkpt lat="43.21684" lon="5.45938">
        <ele>404</ele>
        <time>2012-05-12T08:53:35.274Z</time>
      </trkpt>
      <trkpt lat="43.21687" lon="5.45933">
        <ele>404.1</ele>
        <time>2012-05-12T08:53:38.274Z</time>
      </trkpt>
      <trkpt lat="43.2169" lon="5.45926">
        <ele>406.2</ele>
        <time>2012-05-12T08:53:43.274Z</time>
      </trkpt>
      <trkpt lat="43.2169" lon="5.4592">
        <ele>400.2</ele>
        <time>2012-05-12T08:53:48.274Z</time>
      </trkpt>
      <trkpt lat="43.21693" lon="5.45915">
        <ele>402.9</ele>
        <time>2012-05-12T08:53:52.274Z</time>
      </trkpt>
      <trkpt lat="43.21692" lon="5.45907">
        <ele>406</ele>
        <time>2012-05-12T08:53:57.274Z</time>
      </trkpt>
      <trkpt lat="43.21692" lon="5.459">
        <ele>408.4</ele>
        <time>2012-05-12T08:54:01.274Z</time>
      </trkpt>
      <trkpt lat="43.21695" lon="5.45894">
        <ele>408.1</ele>
        <time>2012-05-12T08:54:05.274Z</time>
      </trkpt>
      <trkpt lat="43.21699" lon="5.45891">
        <ele>409.2</ele>
        <time>2012-05-12T08:54:10.274Z</time>
      </trkpt>
      <trkpt lat="43.21704" lon="5.45892">
        <ele>406.7</ele>
        <time>2012-05-12T08:54:16.274Z</time>
      </trkpt>
      <trkpt lat="43.21708" lon="5.45893">
        <ele>404.8</ele>
        <time>2012-05-12T08:54:21.274Z</time>
      </trkpt>
      <trkpt lat="43.21713" lon="5.45891">
        <ele>405.8</ele>
        <time>2012-05-12T08:54:26.274Z</time>
      </trkpt>
      <trkpt lat="43.21718" lon="5.4589">
        <ele>404.3</ele>
        <time>2012-05-12T08:54:33.147Z</time>
      </trkpt>
      <trkpt lat="43.21722" lon="5.4589">
        <ele>405.8</ele>
        <time>2012-05-12T08:54:38.147Z</time>
      </trkpt>
      <trkpt lat="43.21728" lon="5.45892">
        <ele>403.6</ele>
        <time>2012-05-12T08:54:43.147Z</time>
      </trkpt>
      <trkpt lat="43.21732" lon="5.4589">
        <ele>404.5</ele>
        <time>2012-05-12T08:54:47.147Z</time>
      </trkpt>
      <trkpt lat="43.21737" lon="5.4589">
        <ele>405</ele>
        <time>2012-05-12T08:54:53.147Z</time>
      </trkpt>
      <trkpt lat="43.21741" lon="5.45884">
        <ele>406.6</ele>
        <time>2012-05-12T08:54:57.147Z</time>
      </trkpt>
      <trkpt lat="43.21746" lon="5.45882">
        <ele>408.7</ele>
        <time>2012-05-12T08:55:04.147Z</time>
      </trkpt>
      <trkpt lat="43.2175" lon="5.45879">
        <ele>406.3</ele>
        <time>2012-05-12T08:55:10.147Z</time>
      </trkpt>
      <trkpt lat="43.21755" lon="5.45876">
        <ele>407.6</ele>
        <time>2012-05-12T08:55:15.147Z</time>
      </trkpt>
      <trkpt lat="43.2176" lon="5.45878">
        <ele>408.1</ele>
        <time>2012-05-12T08:55:21.147Z</time>
      </trkpt>
      <trkpt lat="43.21765" lon="5.4588">
        <ele>409.5</ele>
        <time>2012-05-12T08:55:26.147Z</time>
      </trkpt>
      <trkpt lat="43.21769" lon="5.45877">
        <ele>409.8</ele>
        <time>2012-05-12T08:55:32.251Z</time>
      </trkpt>
      <trkpt lat="43.21774" lon="5.45876">
        <ele>406.8</ele>
        <time>2012-05-12T08:55:34.251Z</time>
      </trkpt>
      <trkpt lat="43.21778" lon="5.45873">
        <ele>407.4</ele>
        <time>2012-05-12T08:55:49.251Z</time>
      </trkpt>
      <trkpt lat="43.21781" lon="5.45868">
        <ele>408.7</ele>
        <time>2012-05-12T08:55:57.251Z</time>
      </trkpt>
      <trkpt lat="43.21784" lon="5.45863">
        <ele>409.4</ele>
        <time>2012-05-12T08:56:07.251Z</time>
      </trkpt>
      <trkpt lat="43.21788" lon="5.45857">
        <ele>410.9</ele>
        <time>2012-05-12T08:56:12.251Z</time>
      </trkpt>
      <trkpt lat="43.21785" lon="5.45852">
        <ele>412.1</ele>
        <time>2012-05-12T08:56:23.792Z</time>
      </trkpt>
      <trkpt lat="43.21782" lon="5.45858">
        <ele>413.3</ele>
        <time>2012-05-12T08:56:38.185Z</time>
      </trkpt>
      <trkpt lat="43.21787" lon="5.45853">
        <ele>417.1</ele>
        <time>2012-05-12T08:56:46.208Z</time>
      </trkpt>
      <trkpt lat="43.21789" lon="5.45846">
        <ele>419</ele>
        <time>2012-05-12T08:56:48.208Z</time>
      </trkpt>
      <trkpt lat="43.21791" lon="5.45839">
        <ele>418.8</ele>
        <time>2012-05-12T08:56:51.115Z</time>
      </trkpt>
      <trkpt lat="43.2179" lon="5.45833">
        <ele>419.4</ele>
        <time>2012-05-12T08:56:55.392Z</time>
      </trkpt>
      <trkpt lat="43.21789" lon="5.45826">
        <ele>419.3</ele>
        <time>2012-05-12T08:57:00.292Z</time>
      </trkpt>
      <trkpt lat="43.21789" lon="5.45819">
        <ele>418.5</ele>
        <time>2012-05-12T08:57:12.077Z</time>
      </trkpt>
      <trkpt lat="43.21792" lon="5.45814">
        <ele>418.7</ele>
        <time>2012-05-12T08:57:20.775Z</time>
      </trkpt>
      <trkpt lat="43.21797" lon="5.4581">
        <ele>421.2</ele>
        <time>2012-05-12T08:57:26.092Z</time>
      </trkpt>
      <trkpt lat="43.21804" lon="5.45804">
        <ele>418</ele>
        <time>2012-05-12T08:57:30.454Z</time>
      </trkpt>
      <trkpt lat="43.21806" lon="5.4581">
        <ele>417.8</ele>
        <time>2012-05-12T08:57:43.323Z</time>
      </trkpt>
      <trkpt lat="43.2181" lon="5.45807">
        <ele>413.3</ele>
        <time>2012-05-12T08:57:46.790Z</time>
      </trkpt>
      <trkpt lat="43.21814" lon="5.45806">
        <ele>414.8</ele>
        <time>2012-05-12T08:57:49.075Z</time>
      </trkpt>
      <trkpt lat="43.21821" lon="5.45805">
        <ele>425</ele>
        <time>2012-05-12T08:58:14.080Z</time>
      </trkpt>
      <trkpt lat="43.21819" lon="5.45799">
        <ele>426.1</ele>
        <time>2012-05-12T08:58:19.792Z</time>
      </trkpt>
      <trkpt lat="43.21816" lon="5.45793">
        <ele>423.9</ele>
        <time>2012-05-12T08:58:32.768Z</time>
      </trkpt>
      <trkpt lat="43.21818" lon="5.45787">
        <ele>423.7</ele>
        <time>2012-05-12T08:58:51.305Z</time>
      </trkpt>
      <trkpt lat="43.21813" lon="5.45785">
        <ele>423.3</ele>
        <time>2012-05-12T08:58:58.286Z</time>
      </trkpt>
      <trkpt lat="43.21807" lon="5.45791">
        <ele>420.4</ele>
        <time>2012-05-12T08:59:03.796Z</time>
      </trkpt>
      <trkpt lat="43.21804" lon="5.45786">
        <ele>421.5</ele>
        <time>2012-05-12T08:59:09.075Z</time>
      </trkpt>
      <trkpt lat="43.21799" lon="5.45784">
        <ele>419.5</ele>
        <time>2012-05-12T08:59:15.088Z</time>
      </trkpt>
      <trkpt lat="43.21792" lon="5.45784">
        <ele>422.8</ele>
        <time>2012-05-12T09:00:12.696Z</time>
      </trkpt>
      <trkpt lat="43.21791" lon="5.45777">
        <ele>420.3</ele>
        <time>2012-05-12T09:00:15.132Z</time>
      </trkpt>
      <trkpt lat="43.21787" lon="5.45778">
        <ele>420.4</ele>
        <time>2012-05-12T09:00:31.650Z</time>
      </trkpt>
      <trkpt lat="43.21781" lon="5.45774">
        <ele>420.3</ele>
        <time>2012-05-12T09:00:36.790Z</time>
      </trkpt>
      <trkpt lat="43.21776" lon="5.45777">
        <ele>422.1</ele>
        <time>2012-05-12T09:00:38.153Z</time>
      </trkpt>
      <trkpt lat="43.21779" lon="5.45772">
        <ele>421.9</ele>
        <time>2012-05-12T09:00:45.261Z</time>
      </trkpt>
      <trkpt lat="43.21779" lon="5.45763">
        <ele>422.5</ele>
        <time>2012-05-12T09:00:48.181Z</time>
      </trkpt>
      <trkpt lat="43.21775" lon="5.45768">
        <ele>427.1</ele>
        <time>2012-05-12T09:00:49.080Z</time>
      </trkpt>
      <trkpt lat="43.2177" lon="5.45766">
        <ele>429.5</ele>
        <time>2012-05-12T09:01:03.088Z</time>
      </trkpt>
      <trkpt lat="43.21764" lon="5.45767">
        <ele>429.5</ele>
        <time>2012-05-12T09:01:19.212Z</time>
      </trkpt>
      <trkpt lat="43.21764" lon="5.45759">
        <ele>429</ele>
        <time>2012-05-12T09:01:24.212Z</time>
      </trkpt>
      <trkpt lat="43.2176" lon="5.45766">
        <ele>430.2</ele>
        <time>2012-05-12T09:01:35.633Z</time>
      </trkpt>
      <trkpt lat="43.21757" lon="5.45761">
        <ele>429</ele>
        <time>2012-05-12T09:01:42.683Z</time>
      </trkpt>
      <trkpt lat="43.21752" lon="5.45755">
        <ele>434.4</ele>
        <time>2012-05-12T09:01:51.093Z</time>
      </trkpt>
      <trkpt lat="43.21748" lon="5.45752">
        <ele>435.6</ele>
        <time>2012-05-12T09:01:55.075Z</time>
      </trkpt>
      <trkpt lat="43.21744" lon="5.45756">
        <ele>436.2</ele>
        <time>2012-05-12T09:02:00.788Z</time>
      </trkpt>
      <trkpt lat="43.21738" lon="5.45756">
        <ele>430.1</ele>
        <time>2012-05-12T09:02:13.803Z</time>
      </trkpt>
      <trkpt lat="43.21732" lon="5.45759">
        <ele>430.1</ele>
        <time>2012-05-12T09:02:20.803Z</time>
      </trkpt>
      <trkpt lat="43.21728" lon="5.4576">
        <ele>430.5</ele>
        <time>2012-05-12T09:02:26.078Z</time>
      </trkpt>
      <trkpt lat="43.21723" lon="5.45762">
        <ele>431.4</ele>
        <time>2012-05-12T09:02:33.461Z</time>
      </trkpt>
      <trkpt lat="43.21716" lon="5.45764">
        <ele>432.5</ele>
        <time>2012-05-12T09:02:35.944Z</time>
      </trkpt>
      <trkpt lat="43.21713" lon="5.45757">
        <ele>431.5</ele>
        <time>2012-05-12T09:02:40.077Z</time>
      </trkpt>
      <trkpt lat="43.21715" lon="5.45764">
        <ele>410.7</ele>
        <time>2012-05-12T09:02:56.084Z</time>
      </trkpt>
      <trkpt lat="43.21713" lon="5.45758">
        <ele>401.2</ele>
        <time>2012-05-12T09:03:04.675Z</time>
      </trkpt>
      <trkpt lat="43.21709" lon="5.45763">
        <ele>385.2</ele>
        <time>2012-05-12T09:03:13.074Z</time>
      </trkpt>
      <trkpt lat="43.21709" lon="5.45756">
        <ele>375.9</ele>
        <time>2012-05-12T09:03:25.793Z</time>
      </trkpt>
      <trkpt lat="43.217" lon="5.45755">
        <ele>374.9</ele>
        <time>2012-05-12T09:03:32.426Z</time>
      </trkpt>
      <trkpt lat="43.21704" lon="5.45748">
        <ele>370.8</ele>
        <time>2012-05-12T09:03:37.826Z</time>
      </trkpt>
      <trkpt lat="43.21709" lon="5.45744">
        <ele>370.8</ele>
        <time>2012-05-12T09:03:41.081Z</time>
      </trkpt>
      <trkpt lat="43.21705" lon="5.45738">
        <ele>369.9</ele>
        <time>2012-05-12T09:03:48.190Z</time>
      </trkpt>
      <trkpt lat="43.21701" lon="5.45735">
        <ele>367</ele>
        <time>2012-05-12T09:03:50.086Z</time>
      </trkpt>
      <trkpt lat="43.21696" lon="5.45734">
        <ele>369.1</ele>
        <time>2012-05-12T09:03:52.090Z</time>
      </trkpt>
      <trkpt lat="43.21694" lon="5.45728">
        <ele>370.1</ele>
        <time>2012-05-12T09:03:56.072Z</time>
      </trkpt>
      <trkpt lat="43.21691" lon="5.45722">
        <ele>369.8</ele>
        <time>2012-05-12T09:03:59.582Z</time>
      </trkpt>
      <trkpt lat="43.21692" lon="5.45714">
        <ele>369.8</ele>
        <time>2012-05-12T09:04:08.091Z</time>
      </trkpt>
      <trkpt lat="43.21694" lon="5.45706">
        <ele>369.8</ele>
        <time>2012-05-12T09:04:10.073Z</time>
      </trkpt>
      <trkpt lat="43.2169" lon="5.457">
        <ele>370.4</ele>
        <time>2012-05-12T09:04:12.094Z</time>
      </trkpt>
      <trkpt lat="43.21683" lon="5.45698">
        <ele>371.3</ele>
        <time>2012-05-12T09:04:14.077Z</time>
      </trkpt>
      <trkpt lat="43.21678" lon="5.45699">
        <ele>370.9</ele>
        <time>2012-05-12T09:04:15.076Z</time>
      </trkpt>
      <trkpt lat="43.21674" lon="5.45694">
        <ele>370.1</ele>
        <time>2012-05-12T09:04:19.177Z</time>
      </trkpt>
      <trkpt lat="43.2167" lon="5.45689">
        <ele>368.2</ele>
        <time>2012-05-12T09:04:23.077Z</time>
      </trkpt>
      <trkpt lat="43.21667" lon="5.45684">
        <ele>367.4</ele>
        <time>2012-05-12T09:04:29.126Z</time>
      </trkpt>
      <trkpt lat="43.21668" lon="5.45677">
        <ele>363.8</ele>
        <time>2012-05-12T09:04:33.079Z</time>
      </trkpt>
      <trkpt lat="43.21665" lon="5.45671">
        <ele>363.3</ele>
        <time>2012-05-12T09:04:37.077Z</time>
      </trkpt>
      <trkpt lat="43.21661" lon="5.45666">
        <ele>356.7</ele>
        <time>2012-05-12T09:04:40.078Z</time>
      </trkpt>
      <trkpt lat="43.21657" lon="5.45662">
        <ele>353.5</ele>
        <time>2012-05-12T09:04:43.077Z</time>
      </trkpt>
      <trkpt lat="43.21656" lon="5.45655">
        <ele>351.4</ele>
        <time>2012-05-12T09:04:45.119Z</time>
      </trkpt>
      <trkpt lat="43.21654" lon="5.45648">
        <ele>348.8</ele>
        <time>2012-05-12T09:04:48.250Z</time>
      </trkpt>
      <trkpt lat="43.21653" lon="5.45641">
        <ele>346.4</ele>
        <time>2012-05-12T09:04:54.080Z</time>
      </trkpt>
      <trkpt lat="43.21652" lon="5.45632">
        <ele>346.6</ele>
        <time>2012-05-12T09:04:59.088Z</time>
      </trkpt>
      <trkpt lat="43.21651" lon="5.45626">
        <ele>346.4</ele>
        <time>2012-05-12T09:05:03.091Z</time>
      </trkpt>
      <trkpt lat="43.21651" lon="5.45619">
        <ele>346.3</ele>
        <time>2012-05-12T09:05:06.073Z</time>
      </trkpt>
      <trkpt lat="43.21652" lon="5.45611">
        <ele>342.9</ele>
        <time>2012-05-12T09:05:10.074Z</time>
      </trkpt>
      <trkpt lat="43.21651" lon="5.45605">
        <ele>343.9</ele>
        <time>2012-05-12T09:05:12.094Z</time>
      </trkpt>
      <trkpt lat="43.21648" lon="5.45597">
        <ele>343.5</ele>
        <time>2012-05-12T09:05:14.077Z</time>
      </trkpt>
      <trkpt lat="43.21647" lon="5.45589">
        <ele>343.1</ele>
        <time>2012-05-12T09:05:17.076Z</time>
      </trkpt>
      <trkpt lat="43.21646" lon="5.45582">
        <ele>342.4</ele>
        <time>2012-05-12T09:05:25.076Z</time>
      </trkpt>
      <trkpt lat="43.21643" lon="5.45576">
        <ele>339.4</ele>
        <time>2012-05-12T09:05:29.347Z</time>
      </trkpt>
      <trkpt lat="43.21646" lon="5.45566">
        <ele>334.8</ele>
        <time>2012-05-12T09:05:30.767Z</time>
      </trkpt>
      <trkpt lat="43.21641" lon="5.45562">
        <ele>334.1</ele>
        <time>2012-05-12T09:05:34.081Z</time>
      </trkpt>
      <trkpt lat="43.21638" lon="5.45557">
        <ele>333.3</ele>
        <time>2012-05-12T09:05:39.078Z</time>
      </trkpt>
      <trkpt lat="43.21635" lon="5.45551">
        <ele>331.4</ele>
        <time>2012-05-12T09:05:44.079Z</time>
      </trkpt>
      <trkpt lat="43.21631" lon="5.45546">
        <ele>328.9</ele>
        <time>2012-05-12T09:05:48.077Z</time>
      </trkpt>
      <trkpt lat="43.21629" lon="5.45537">
        <ele>330.3</ele>
        <time>2012-05-12T09:05:51.076Z</time>
      </trkpt>
      <trkpt lat="43.21628" lon="5.4553">
        <ele>331.5</ele>
        <time>2012-05-12T09:05:54.078Z</time>
      </trkpt>
      <trkpt lat="43.21628" lon="5.45522">
        <ele>333.1</ele>
        <time>2012-05-12T09:05:58.074Z</time>
      </trkpt>
      <trkpt lat="43.21627" lon="5.45514">
        <ele>334</ele>
        <time>2012-05-12T09:06:02.077Z</time>
      </trkpt>
      <trkpt lat="43.21627" lon="5.45507">
        <ele>336.3</ele>
        <time>2012-05-12T09:06:05.076Z</time>
      </trkpt>
      <trkpt lat="43.21628" lon="5.455">
        <ele>335.8</ele>
        <time>2012-05-12T09:06:10.074Z</time>
      </trkpt>
      <trkpt lat="43.21625" lon="5.45494">
        <ele>337.4</ele>
        <time>2012-05-12T09:06:15.084Z</time>
      </trkpt>
      <trkpt lat="43.21622" lon="5.45489">
        <ele>334.6</ele>
        <time>2012-05-12T09:06:19.083Z</time>
      </trkpt>
      <trkpt lat="43.21616" lon="5.45487">
        <ele>332.2</ele>
        <time>2012-05-12T09:06:23.077Z</time>
      </trkpt>
      <trkpt lat="43.21612" lon="5.45482">
        <ele>331.7</ele>
        <time>2012-05-12T09:06:26.072Z</time>
      </trkpt>
      <trkpt lat="43.2162" lon="5.45466">
        <ele>329</ele>
        <time>2012-05-12T09:06:30.553Z</time>
      </trkpt>
      <trkpt lat="43.21612" lon="5.45462">
        <ele>331.9</ele>
        <time>2012-05-12T09:06:32.074Z</time>
      </trkpt>
      <trkpt lat="43.21611" lon="5.45456">
        <ele>330.2</ele>
        <time>2012-05-12T09:06:38.803Z</time>
      </trkpt>
      <trkpt lat="43.21616" lon="5.45453">
        <ele>327.9</ele>
        <time>2012-05-12T09:06:45.791Z</time>
      </trkpt>
      <trkpt lat="43.21612" lon="5.45449">
        <ele>324.9</ele>
        <time>2012-05-12T09:06:47.219Z</time>
      </trkpt>
      <trkpt lat="43.21617" lon="5.45447">
        <ele>326</ele>
        <time>2012-05-12T09:06:49.093Z</time>
      </trkpt>
      <trkpt lat="43.21622" lon="5.45445">
        <ele>325.9</ele>
        <time>2012-05-12T09:06:53.715Z</time>
      </trkpt>
      <trkpt lat="43.21628" lon="5.45438">
        <ele>326.9</ele>
        <time>2012-05-12T09:06:55.184Z</time>
      </trkpt>
      <trkpt lat="43.21632" lon="5.45437">
        <ele>327</ele>
        <time>2012-05-12T09:06:58.797Z</time>
      </trkpt>
      <trkpt lat="43.21636" lon="5.45432">
        <ele>326.6</ele>
        <time>2012-05-12T09:07:07.797Z</time>
      </trkpt>
      <trkpt lat="43.21639" lon="5.45427">
        <ele>327</ele>
        <time>2012-05-12T09:07:12.797Z</time>
      </trkpt>
      <trkpt lat="43.21644" lon="5.45424">
        <ele>327.8</ele>
        <time>2012-05-12T09:07:17.086Z</time>
      </trkpt>
      <trkpt lat="43.21646" lon="5.45418">
        <ele>324.4</ele>
        <time>2012-05-12T09:07:28.145Z</time>
      </trkpt>
      <trkpt lat="43.21651" lon="5.45416">
        <ele>325.1</ele>
        <time>2012-05-12T09:07:35.145Z</time>
      </trkpt>
      <trkpt lat="43.21656" lon="5.45413">
        <ele>324.8</ele>
        <time>2012-05-12T09:07:37.774Z</time>
      </trkpt>
      <trkpt lat="43.2166" lon="5.45412">
        <ele>329</ele>
        <time>2012-05-12T09:07:43.154Z</time>
      </trkpt>
      <trkpt lat="43.21665" lon="5.4541">
        <ele>331.3</ele>
        <time>2012-05-12T09:07:49.154Z</time>
      </trkpt>
      <trkpt lat="43.2167" lon="5.45405">
        <ele>332.5</ele>
        <time>2012-05-12T09:07:54.674Z</time>
      </trkpt>
      <trkpt lat="43.21674" lon="5.45398">
        <ele>330.9</ele>
        <time>2012-05-12T09:08:01.073Z</time>
      </trkpt>
      <trkpt lat="43.21679" lon="5.45399">
        <ele>331.2</ele>
        <time>2012-05-12T09:08:17.170Z</time>
      </trkpt>
      <trkpt lat="43.21686" lon="5.45397">
        <ele>331.7</ele>
        <time>2012-05-12T09:08:21.170Z</time>
      </trkpt>
      <trkpt lat="43.21691" lon="5.45399">
        <ele>331.9</ele>
        <time>2012-05-12T09:08:26.170Z</time>
      </trkpt>
      <trkpt lat="43.21696" lon="5.454">
        <ele>333.6</ele>
        <time>2012-05-12T09:08:32.267Z</time>
      </trkpt>
      <trkpt lat="43.21702" lon="5.45402">
        <ele>334.1</ele>
        <time>2012-05-12T09:08:34.729Z</time>
      </trkpt>
      <trkpt lat="43.21707" lon="5.45396">
        <ele>337.9</ele>
        <time>2012-05-12T09:08:49.761Z</time>
      </trkpt>
      <trkpt lat="43.21711" lon="5.45393">
        <ele>337.9</ele>
        <time>2012-05-12T09:08:52.761Z</time>
      </trkpt>
      <trkpt lat="43.21714" lon="5.45388">
        <ele>337.8</ele>
        <time>2012-05-12T09:08:55.722Z</time>
      </trkpt>
      <trkpt lat="43.21717" lon="5.45393">
        <ele>341.3</ele>
        <time>2012-05-12T09:09:11.788Z</time>
      </trkpt>
      <trkpt lat="43.21721" lon="5.45396">
        <ele>342.6</ele>
        <time>2012-05-12T09:09:18.788Z</time>
      </trkpt>
      <trkpt lat="43.21727" lon="5.45392">
        <ele>342.6</ele>
        <time>2012-05-12T09:09:21.083Z</time>
      </trkpt>
      <trkpt lat="43.21734" lon="5.4539">
        <ele>342</ele>
        <time>2012-05-12T09:09:24.173Z</time>
      </trkpt>
      <trkpt lat="43.21738" lon="5.45391">
        <ele>343</ele>
        <time>2012-05-12T09:09:29.466Z</time>
      </trkpt>
      <trkpt lat="43.21744" lon="5.45392">
        <ele>343.1</ele>
        <time>2012-05-12T09:09:33.071Z</time>
      </trkpt>
      <trkpt lat="43.21747" lon="5.45398">
        <ele>346.3</ele>
        <time>2012-05-12T09:09:39.790Z</time>
      </trkpt>
      <trkpt lat="43.21752" lon="5.45392">
        <ele>345.2</ele>
        <time>2012-05-12T09:09:41.074Z</time>
      </trkpt>
      <trkpt lat="43.21756" lon="5.45396">
        <ele>343.3</ele>
        <time>2012-05-12T09:09:47.077Z</time>
      </trkpt>
      <trkpt lat="43.21761" lon="5.45397">
        <ele>343</ele>
        <time>2012-05-12T09:09:49.075Z</time>
      </trkpt>
      <trkpt lat="43.21767" lon="5.45399">
        <ele>341.3</ele>
        <time>2012-05-12T09:09:54.323Z</time>
      </trkpt>
      <trkpt lat="43.21771" lon="5.45401">
        <ele>344</ele>
        <time>2012-05-12T09:09:57.785Z</time>
      </trkpt>
      <trkpt lat="43.21776" lon="5.45404">
        <ele>343.2</ele>
        <time>2012-05-12T09:10:05.070Z</time>
      </trkpt>
      <trkpt lat="43.2178" lon="5.45407">
        <ele>343.9</ele>
        <time>2012-05-12T09:10:11.224Z</time>
      </trkpt>
      <trkpt lat="43.21785" lon="5.45408">
        <ele>348.1</ele>
        <time>2012-05-12T09:10:13.715Z</time>
      </trkpt>
      <trkpt lat="43.21787" lon="5.45413">
        <ele>345.6</ele>
        <time>2012-05-12T09:10:17.195Z</time>
      </trkpt>
      <trkpt lat="43.21792" lon="5.45415">
        <ele>345.2</ele>
        <time>2012-05-12T09:10:21.719Z</time>
      </trkpt>
      <trkpt lat="43.21797" lon="5.45416">
        <ele>345.2</ele>
        <time>2012-05-12T09:10:28.733Z</time>
      </trkpt>
      <trkpt lat="43.21804" lon="5.45416">
        <ele>345.3</ele>
        <time>2012-05-12T09:10:36.076Z</time>
      </trkpt>
      <trkpt lat="43.2181" lon="5.45421">
        <ele>342.2</ele>
        <time>2012-05-12T09:10:40.089Z</time>
      </trkpt>
      <trkpt lat="43.21815" lon="5.45426">
        <ele>341</ele>
        <time>2012-05-12T09:10:44.095Z</time>
      </trkpt>
      <trkpt lat="43.2182" lon="5.45427">
        <ele>340</ele>
        <time>2012-05-12T09:10:47.076Z</time>
      </trkpt>
      <trkpt lat="43.21825" lon="5.45429">
        <ele>341.3</ele>
        <time>2012-05-12T09:10:51.077Z</time>
      </trkpt>
      <trkpt lat="43.21831" lon="5.4543">
        <ele>342.5</ele>
        <time>2012-05-12T09:10:55.168Z</time>
      </trkpt>
      <trkpt lat="43.21836" lon="5.45432">
        <ele>343.7</ele>
        <time>2012-05-12T09:11:02.187Z</time>
      </trkpt>
      <trkpt lat="43.2184" lon="5.45436">
        <ele>343.2</ele>
        <time>2012-05-12T09:11:07.156Z</time>
      </trkpt>
      <trkpt lat="43.21845" lon="5.45436">
        <ele>342</ele>
        <time>2012-05-12T09:11:12.074Z</time>
      </trkpt>
      <trkpt lat="43.2185" lon="5.45435">
        <ele>343.1</ele>
        <time>2012-05-12T09:11:15.206Z</time>
      </trkpt>
      <trkpt lat="43.21855" lon="5.45433">
        <ele>343</ele>
        <time>2012-05-12T09:11:17.206Z</time>
      </trkpt>
      <trkpt lat="43.21861" lon="5.45432">
        <ele>344.4</ele>
        <time>2012-05-12T09:11:20.206Z</time>
      </trkpt>
      <trkpt lat="43.21868" lon="5.45432">
        <ele>344.4</ele>
        <time>2012-05-12T09:11:23.206Z</time>
      </trkpt>
      <trkpt lat="43.21872" lon="5.45428">
        <ele>348</ele>
        <time>2012-05-12T09:11:25.074Z</time>
      </trkpt>
      <trkpt lat="43.21877" lon="5.45424">
        <ele>349.6</ele>
        <time>2012-05-12T09:11:28.552Z</time>
      </trkpt>
      <trkpt lat="43.21883" lon="5.45424">
        <ele>348.9</ele>
        <time>2012-05-12T09:11:30.552Z</time>
      </trkpt>
      <trkpt lat="43.21889" lon="5.45424">
        <ele>349.9</ele>
        <time>2012-05-12T09:11:47.076Z</time>
      </trkpt>
      <trkpt lat="43.21895" lon="5.45418">
        <ele>350.3</ele>
        <time>2012-05-12T09:11:51.073Z</time>
      </trkpt>
      <trkpt lat="43.219" lon="5.45415">
        <ele>351</ele>
        <time>2012-05-12T09:11:54.113Z</time>
      </trkpt>
      <trkpt lat="43.21905" lon="5.45413">
        <ele>351.1</ele>
        <time>2012-05-12T09:11:56.727Z</time>
      </trkpt>
      <trkpt lat="43.21909" lon="5.45409">
        <ele>350.5</ele>
        <time>2012-05-12T09:12:00.209Z</time>
      </trkpt>
      <trkpt lat="43.21912" lon="5.45403">
        <ele>349.7</ele>
        <time>2012-05-12T09:12:04.085Z</time>
      </trkpt>
      <trkpt lat="43.21914" lon="5.45396">
        <ele>348.4</ele>
        <time>2012-05-12T09:12:07.073Z</time>
      </trkpt>
      <trkpt lat="43.21917" lon="5.4539">
        <ele>347</ele>
        <time>2012-05-12T09:12:11.089Z</time>
      </trkpt>
      <trkpt lat="43.21921" lon="5.45386">
        <ele>349.1</ele>
        <time>2012-05-12T09:12:14.170Z</time>
      </trkpt>
      <trkpt lat="43.21926" lon="5.45381">
        <ele>350.5</ele>
        <time>2012-05-12T09:12:14.574Z</time>
      </trkpt>
      <trkpt lat="43.21926" lon="5.45372">
        <ele>352.2</ele>
        <time>2012-05-12T09:12:20.792Z</time>
      </trkpt>
      <trkpt lat="43.21924" lon="5.45366">
        <ele>350.8</ele>
        <time>2012-05-12T09:12:25.792Z</time>
      </trkpt>
      <trkpt lat="43.21925" lon="5.4536">
        <ele>349.9</ele>
        <time>2012-05-12T09:12:33.089Z</time>
      </trkpt>
      <trkpt lat="43.2192" lon="5.45355">
        <ele>347.9</ele>
        <time>2012-05-12T09:12:39.240Z</time>
      </trkpt>
      <trkpt lat="43.21919" lon="5.45348">
        <ele>347.5</ele>
        <time>2012-05-12T09:12:42.091Z</time>
      </trkpt>
      <trkpt lat="43.21918" lon="5.4534">
        <ele>350.5</ele>
        <time>2012-05-12T09:12:45.079Z</time>
      </trkpt>
      <trkpt lat="43.21917" lon="5.45334">
        <ele>351.5</ele>
        <time>2012-05-12T09:12:51.073Z</time>
      </trkpt>
      <trkpt lat="43.21916" lon="5.45326">
        <ele>352.8</ele>
        <time>2012-05-12T09:12:57.795Z</time>
      </trkpt>
      <trkpt lat="43.21911" lon="5.4532">
        <ele>353.8</ele>
        <time>2012-05-12T09:13:03.081Z</time>
      </trkpt>
      <trkpt lat="43.21909" lon="5.45314">
        <ele>355</ele>
        <time>2012-05-12T09:13:08.080Z</time>
      </trkpt>
      <trkpt lat="43.21907" lon="5.45306">
        <ele>354.7</ele>
        <time>2012-05-12T09:13:12.074Z</time>
      </trkpt>
      <trkpt lat="43.21905" lon="5.453">
        <ele>354.8</ele>
        <time>2012-05-12T09:13:16.078Z</time>
      </trkpt>
      <trkpt lat="43.21902" lon="5.45293">
        <ele>357.7</ele>
        <time>2012-05-12T09:13:19.089Z</time>
      </trkpt>
      <trkpt lat="43.21898" lon="5.45283">
        <ele>359.3</ele>
        <time>2012-05-12T09:13:22.792Z</time>
      </trkpt>
      <trkpt lat="43.21894" lon="5.45277">
        <ele>355.1</ele>
        <time>2012-05-12T09:13:30.455Z</time>
      </trkpt>
      <trkpt lat="43.21894" lon="5.45271">
        <ele>356.3</ele>
        <time>2012-05-12T09:13:33.074Z</time>
      </trkpt>
      <trkpt lat="43.21891" lon="5.45261">
        <ele>360.7</ele>
        <time>2012-05-12T09:13:36.080Z</time>
      </trkpt>
      <trkpt lat="43.21887" lon="5.45256">
        <ele>359.8</ele>
        <time>2012-05-12T09:13:41.167Z</time>
      </trkpt>
      <trkpt lat="43.21886" lon="5.45249">
        <ele>361.8</ele>
        <time>2012-05-12T09:13:45.073Z</time>
      </trkpt>
      <trkpt lat="43.21885" lon="5.45243">
        <ele>359.6</ele>
        <time>2012-05-12T09:13:49.078Z</time>
      </trkpt>
      <trkpt lat="43.21881" lon="5.45236">
        <ele>361.7</ele>
        <time>2012-05-12T09:13:52.086Z</time>
      </trkpt>
      <trkpt lat="43.21881" lon="5.45228">
        <ele>361.2</ele>
        <time>2012-05-12T09:13:57.176Z</time>
      </trkpt>
      <trkpt lat="43.21882" lon="5.45222">
        <ele>361.4</ele>
        <time>2012-05-12T09:13:59.073Z</time>
      </trkpt>
      <trkpt lat="43.21882" lon="5.45215">
        <ele>362.1</ele>
        <time>2012-05-12T09:14:03.078Z</time>
      </trkpt>
      <trkpt lat="43.21879" lon="5.45207">
        <ele>364</ele>
        <time>2012-05-12T09:14:06.086Z</time>
      </trkpt>
      <trkpt lat="43.21876" lon="5.45201">
        <ele>364.4</ele>
        <time>2012-05-12T09:14:11.088Z</time>
      </trkpt>
      <trkpt lat="43.21872" lon="5.45196">
        <ele>366.4</ele>
        <time>2012-05-12T09:14:15.080Z</time>
      </trkpt>
      <trkpt lat="43.21869" lon="5.45191">
        <ele>365.5</ele>
        <time>2012-05-12T09:14:18.076Z</time>
      </trkpt>
      <trkpt lat="43.21868" lon="5.45184">
        <ele>363.9</ele>
        <time>2012-05-12T09:14:22.092Z</time>
      </trkpt>
      <trkpt lat="43.2187" lon="5.45178">
        <ele>362.9</ele>
        <time>2012-05-12T09:14:25.093Z</time>
      </trkpt>
      <trkpt lat="43.21874" lon="5.45173">
        <ele>361.5</ele>
        <time>2012-05-12T09:14:29.174Z</time>
      </trkpt>
      <trkpt lat="43.21874" lon="5.45164">
        <ele>357</ele>
        <time>2012-05-12T09:14:30.621Z</time>
      </trkpt>
      <trkpt lat="43.21876" lon="5.45157">
        <ele>357.6</ele>
        <time>2012-05-12T09:14:37.227Z</time>
      </trkpt>
      <trkpt lat="43.21879" lon="5.4515">
        <ele>351.9</ele>
        <time>2012-05-12T09:14:44.078Z</time>
      </trkpt>
      <trkpt lat="43.21882" lon="5.45143">
        <ele>350.2</ele>
        <time>2012-05-12T09:14:48.079Z</time>
      </trkpt>
      <trkpt lat="43.21883" lon="5.45137">
        <ele>348.1</ele>
        <time>2012-05-12T09:14:50.074Z</time>
      </trkpt>
      <trkpt lat="43.21886" lon="5.45131">
        <ele>347.9</ele>
        <time>2012-05-12T09:14:53.074Z</time>
      </trkpt>
      <trkpt lat="43.21888" lon="5.45125">
        <ele>349.6</ele>
        <time>2012-05-12T09:14:57.079Z</time>
      </trkpt>
      <trkpt lat="43.21892" lon="5.45119">
        <ele>350</ele>
        <time>2012-05-12T09:15:00.212Z</time>
      </trkpt>
      <trkpt lat="43.21895" lon="5.45114">
        <ele>348.7</ele>
        <time>2012-05-12T09:15:04.215Z</time>
      </trkpt>
      <trkpt lat="43.219" lon="5.4511">
        <ele>348.4</ele>
        <time>2012-05-12T09:15:07.320Z</time>
      </trkpt>
      <trkpt lat="43.21901" lon="5.45104">
        <ele>347.5</ele>
        <time>2012-05-12T09:15:14.082Z</time>
      </trkpt>
      <trkpt lat="43.21905" lon="5.45102">
        <ele>347.1</ele>
        <time>2012-05-12T09:15:17.199Z</time>
      </trkpt>
      <trkpt lat="43.21911" lon="5.45101">
        <ele>346.4</ele>
        <time>2012-05-12T09:15:20.199Z</time>
      </trkpt>
      <trkpt lat="43.21916" lon="5.45098">
        <ele>346.2</ele>
        <time>2012-05-12T09:15:22.789Z</time>
      </trkpt>
      <trkpt lat="43.21922" lon="5.45095">
        <ele>345.5</ele>
        <time>2012-05-12T09:15:26.078Z</time>
      </trkpt>
      <trkpt lat="43.21926" lon="5.45092">
        <ele>346.1</ele>
        <time>2012-05-12T09:15:29.208Z</time>
      </trkpt>
      <trkpt lat="43.2193" lon="5.45086">
        <ele>344.6</ele>
        <time>2012-05-12T09:15:30.324Z</time>
      </trkpt>
      <trkpt lat="43.21934" lon="5.45081">
        <ele>344.4</ele>
        <time>2012-05-12T09:15:34.090Z</time>
      </trkpt>
      <trkpt lat="43.21936" lon="5.45076">
        <ele>342.7</ele>
        <time>2012-05-12T09:15:37.092Z</time>
      </trkpt>
      <trkpt lat="43.21942" lon="5.45074">
        <ele>343.9</ele>
        <time>2012-05-12T09:15:40.081Z</time>
      </trkpt>
      <trkpt lat="43.21943" lon="5.45066">
        <ele>340.2</ele>
        <time>2012-05-12T09:15:45.074Z</time>
      </trkpt>
      <trkpt lat="43.21946" lon="5.45061">
        <ele>340</ele>
        <time>2012-05-12T09:15:48.792Z</time>
      </trkpt>
      <trkpt lat="43.2195" lon="5.45057">
        <ele>341.5</ele>
        <time>2012-05-12T09:15:50.069Z</time>
      </trkpt>
      <trkpt lat="43.21951" lon="5.4505">
        <ele>343</ele>
        <time>2012-05-12T09:15:54.080Z</time>
      </trkpt>
      <trkpt lat="43.21953" lon="5.45044">
        <ele>342.2</ele>
        <time>2012-05-12T09:15:56.787Z</time>
      </trkpt>
      <trkpt lat="43.21953" lon="5.45036">
        <ele>340.9</ele>
        <time>2012-05-12T09:16:03.222Z</time>
      </trkpt>
      <trkpt lat="43.21952" lon="5.45029">
        <ele>340.4</ele>
        <time>2012-05-12T09:16:06.222Z</time>
      </trkpt>
      <trkpt lat="43.21951" lon="5.45022">
        <ele>340.4</ele>
        <time>2012-05-12T09:16:09.222Z</time>
      </trkpt>
      <trkpt lat="43.21948" lon="5.45017">
        <ele>335.1</ele>
        <time>2012-05-12T09:16:13.078Z</time>
      </trkpt>
      <trkpt lat="43.21948" lon="5.4501">
        <ele>334.3</ele>
        <time>2012-05-12T09:16:16.080Z</time>
      </trkpt>
      <trkpt lat="43.21947" lon="5.45003">
        <ele>333.2</ele>
        <time>2012-05-12T09:16:19.094Z</time>
      </trkpt>
      <trkpt lat="43.21945" lon="5.44996">
        <ele>335.4</ele>
        <time>2012-05-12T09:16:22.093Z</time>
      </trkpt>
      <trkpt lat="43.21944" lon="5.44988">
        <ele>335.3</ele>
        <time>2012-05-12T09:16:25.093Z</time>
      </trkpt>
      <trkpt lat="43.21943" lon="5.4498">
        <ele>335.5</ele>
        <time>2012-05-12T09:16:28.177Z</time>
      </trkpt>
      <trkpt lat="43.21946" lon="5.44973">
        <ele>333.8</ele>
        <time>2012-05-12T09:16:30.580Z</time>
      </trkpt>
      <trkpt lat="43.2195" lon="5.44971">
        <ele>333.6</ele>
        <time>2012-05-12T09:16:35.819Z</time>
      </trkpt>
      <trkpt lat="43.21955" lon="5.44969">
        <ele>327.8</ele>
        <time>2012-05-12T09:16:40.792Z</time>
      </trkpt>
      <trkpt lat="43.2196" lon="5.4497">
        <ele>327.3</ele>
        <time>2012-05-12T09:16:44.792Z</time>
      </trkpt>
      <trkpt lat="43.21964" lon="5.44973">
        <ele>327.8</ele>
        <time>2012-05-12T09:16:48.352Z</time>
      </trkpt>
      <trkpt lat="43.21968" lon="5.44976">
        <ele>326.4</ele>
        <time>2012-05-12T09:16:51.089Z</time>
      </trkpt>
      <trkpt lat="43.21973" lon="5.44978">
        <ele>324.4</ele>
        <time>2012-05-12T09:16:54.072Z</time>
      </trkpt>
      <trkpt lat="43.21978" lon="5.44978">
        <ele>322.3</ele>
        <time>2012-05-12T09:16:58.324Z</time>
      </trkpt>
      <trkpt lat="43.21982" lon="5.44972">
        <ele>322</ele>
        <time>2012-05-12T09:17:01.088Z</time>
      </trkpt>
      <trkpt lat="43.21986" lon="5.44967">
        <ele>322.2</ele>
        <time>2012-05-12T09:17:05.181Z</time>
      </trkpt>
      <trkpt lat="43.21987" lon="5.4496">
        <ele>320.5</ele>
        <time>2012-05-12T09:17:05.626Z</time>
      </trkpt>
      <trkpt lat="43.21991" lon="5.44954">
        <ele>324.6</ele>
        <time>2012-05-12T09:17:09.091Z</time>
      </trkpt>
      <trkpt lat="43.21992" lon="5.44946">
        <ele>321.3</ele>
        <time>2012-05-12T09:17:13.092Z</time>
      </trkpt>
      <trkpt lat="43.21993" lon="5.4494">
        <ele>322.1</ele>
        <time>2012-05-12T09:17:15.076Z</time>
      </trkpt>
      <trkpt lat="43.21994" lon="5.44933">
        <ele>317</ele>
        <time>2012-05-12T09:17:21.084Z</time>
      </trkpt>
      <trkpt lat="43.21996" lon="5.44926">
        <ele>317.1</ele>
        <time>2012-05-12T09:17:24.076Z</time>
      </trkpt>
      <trkpt lat="43.21999" lon="5.44916">
        <ele>316.3</ele>
        <time>2012-05-12T09:17:29.237Z</time>
      </trkpt>
      <trkpt lat="43.22002" lon="5.44909">
        <ele>316</ele>
        <time>2012-05-12T09:17:32.641Z</time>
      </trkpt>
      <trkpt lat="43.22006" lon="5.44908">
        <ele>317.5</ele>
        <time>2012-05-12T09:17:40.742Z</time>
      </trkpt>
      <trkpt lat="43.22013" lon="5.44909">
        <ele>323.5</ele>
        <time>2012-05-12T09:17:44.075Z</time>
      </trkpt>
      <trkpt lat="43.22014" lon="5.44915">
        <ele>319.8</ele>
        <time>2012-05-12T09:17:48.164Z</time>
      </trkpt>
      <trkpt lat="43.2202" lon="5.44915">
        <ele>319.5</ele>
        <time>2012-05-12T09:17:51.164Z</time>
      </trkpt>
      <trkpt lat="43.22024" lon="5.44914">
        <ele>319.7</ele>
        <time>2012-05-12T09:17:53.721Z</time>
      </trkpt>
      <trkpt lat="43.22029" lon="5.44915">
        <ele>318.7</ele>
        <time>2012-05-12T09:17:56.208Z</time>
      </trkpt>
      <trkpt lat="43.22034" lon="5.44915">
        <ele>318.6</ele>
        <time>2012-05-12T09:18:00.138Z</time>
      </trkpt>
      <trkpt lat="43.22038" lon="5.44917">
        <ele>315.7</ele>
        <time>2012-05-12T09:18:04.795Z</time>
      </trkpt>
      <trkpt lat="43.22043" lon="5.44919">
        <ele>315.1</ele>
        <time>2012-05-12T09:18:08.807Z</time>
      </trkpt>
      <trkpt lat="43.22046" lon="5.44924">
        <ele>315.1</ele>
        <time>2012-05-12T09:18:12.530Z</time>
      </trkpt>
      <trkpt lat="43.22051" lon="5.44922">
        <ele>315.3</ele>
        <time>2012-05-12T09:18:14.530Z</time>
      </trkpt>
      <trkpt lat="43.22057" lon="5.44921">
        <ele>315.6</ele>
        <time>2012-05-12T09:18:18.074Z</time>
      </trkpt>
      <trkpt lat="43.22062" lon="5.44918">
        <ele>316.3</ele>
        <time>2012-05-12T09:18:20.787Z</time>
      </trkpt>
      <trkpt lat="43.22066" lon="5.44914">
        <ele>317.3</ele>
        <time>2012-05-12T09:18:25.221Z</time>
      </trkpt>
      <trkpt lat="43.22073" lon="5.44908">
        <ele>317.4</ele>
        <time>2012-05-12T09:18:28.203Z</time>
      </trkpt>
      <trkpt lat="43.22078" lon="5.44906">
        <ele>318</ele>
        <time>2012-05-12T09:18:30.770Z</time>
      </trkpt>
      <trkpt lat="43.22084" lon="5.44903">
        <ele>318.4</ele>
        <time>2012-05-12T09:18:35.075Z</time>
      </trkpt>
      <trkpt lat="43.22088" lon="5.449">
        <ele>317.6</ele>
        <time>2012-05-12T09:18:38.793Z</time>
      </trkpt>
      <trkpt lat="43.22093" lon="5.44897">
        <ele>316.5</ele>
        <time>2012-05-12T09:18:40.256Z</time>
      </trkpt>
      <trkpt lat="43.22097" lon="5.44891">
        <ele>316.9</ele>
        <time>2012-05-12T09:18:45.186Z</time>
      </trkpt>
      <trkpt lat="43.221" lon="5.44885">
        <ele>314.6</ele>
        <time>2012-05-12T09:18:50.079Z</time>
      </trkpt>
      <trkpt lat="43.22105" lon="5.44882">
        <ele>314.8</ele>
        <time>2012-05-12T09:18:53.754Z</time>
      </trkpt>
      <trkpt lat="43.22108" lon="5.44878">
        <ele>314.3</ele>
        <time>2012-05-12T09:18:57.086Z</time>
      </trkpt>
      <trkpt lat="43.22114" lon="5.44875">
        <ele>314.7</ele>
        <time>2012-05-12T09:19:02.073Z</time>
      </trkpt>
      <trkpt lat="43.22118" lon="5.44874">
        <ele>314.5</ele>
        <time>2012-05-12T09:19:05.791Z</time>
      </trkpt>
      <trkpt lat="43.22123" lon="5.44874">
        <ele>316.6</ele>
        <time>2012-05-12T09:19:07.072Z</time>
      </trkpt>
      <trkpt lat="43.22129" lon="5.44872">
        <ele>314.4</ele>
        <time>2012-05-12T09:19:12.228Z</time>
      </trkpt>
      <trkpt lat="43.22136" lon="5.44873">
        <ele>313.4</ele>
        <time>2012-05-12T09:19:18.078Z</time>
      </trkpt>
      <trkpt lat="43.22141" lon="5.44872">
        <ele>313.6</ele>
        <time>2012-05-12T09:19:21.165Z</time>
      </trkpt>
      <trkpt lat="43.22145" lon="5.44874">
        <ele>311.1</ele>
        <time>2012-05-12T09:19:25.254Z</time>
      </trkpt>
      <trkpt lat="43.2215" lon="5.44875">
        <ele>311.2</ele>
        <time>2012-05-12T09:19:29.163Z</time>
      </trkpt>
      <trkpt lat="43.22154" lon="5.4487">
        <ele>310.8</ele>
        <time>2012-05-12T09:19:32.795Z</time>
      </trkpt>
      <trkpt lat="43.22157" lon="5.44877">
        <ele>310.1</ele>
        <time>2012-05-12T09:19:35.795Z</time>
      </trkpt>
      <trkpt lat="43.22161" lon="5.4488">
        <ele>310.4</ele>
        <time>2012-05-12T09:19:38.795Z</time>
      </trkpt>
      <trkpt lat="43.22166" lon="5.44882">
        <ele>309.8</ele>
        <time>2012-05-12T09:19:41.795Z</time>
      </trkpt>
      <trkpt lat="43.22171" lon="5.44884">
        <ele>310.9</ele>
        <time>2012-05-12T09:19:44.795Z</time>
      </trkpt>
      <trkpt lat="43.22176" lon="5.4488">
        <ele>310</ele>
        <time>2012-05-12T09:19:47.795Z</time>
      </trkpt>
      <trkpt lat="43.22179" lon="5.44875">
        <ele>307.8</ele>
        <time>2012-05-12T09:19:49.074Z</time>
      </trkpt>
      <trkpt lat="43.22181" lon="5.44867">
        <ele>306.5</ele>
        <time>2012-05-12T09:19:53.082Z</time>
      </trkpt>
      <trkpt lat="43.22181" lon="5.44858">
        <ele>306.5</ele>
        <time>2012-05-12T09:19:59.084Z</time>
      </trkpt>
      <trkpt lat="43.22181" lon="5.44851">
        <ele>306.3</ele>
        <time>2012-05-12T09:20:05.092Z</time>
      </trkpt>
      <trkpt lat="43.22182" lon="5.44844">
        <ele>303.4</ele>
        <time>2012-05-12T09:20:09.085Z</time>
      </trkpt>
      <trkpt lat="43.22184" lon="5.44836">
        <ele>305.8</ele>
        <time>2012-05-12T09:20:12.084Z</time>
      </trkpt>
      <trkpt lat="43.22188" lon="5.4483">
        <ele>305</ele>
        <time>2012-05-12T09:20:14.074Z</time>
      </trkpt>
      <trkpt lat="43.2219" lon="5.44822">
        <ele>301.3</ele>
        <time>2012-05-12T09:20:19.079Z</time>
      </trkpt>
      <trkpt lat="43.22192" lon="5.44815">
        <ele>301.5</ele>
        <time>2012-05-12T09:20:22.077Z</time>
      </trkpt>
      <trkpt lat="43.22196" lon="5.44812">
        <ele>300.8</ele>
        <time>2012-05-12T09:20:24.787Z</time>
      </trkpt>
      <trkpt lat="43.22195" lon="5.44805">
        <ele>301.7</ele>
        <time>2012-05-12T09:20:29.163Z</time>
      </trkpt>
      <trkpt lat="43.22203" lon="5.44799">
        <ele>300</ele>
        <time>2012-05-12T09:20:29.586Z</time>
      </trkpt>
      <trkpt lat="43.22198" lon="5.44799">
        <ele>303.1</ele>
        <time>2012-05-12T09:20:33.074Z</time>
      </trkpt>
      <trkpt lat="43.22199" lon="5.44793">
        <ele>298.8</ele>
        <time>2012-05-12T09:20:38.090Z</time>
      </trkpt>
      <trkpt lat="43.22199" lon="5.44785">
        <ele>297.1</ele>
        <time>2012-05-12T09:20:41.074Z</time>
      </trkpt>
      <trkpt lat="43.222" lon="5.44778">
        <ele>298.6</ele>
        <time>2012-05-12T09:20:45.076Z</time>
      </trkpt>
      <trkpt lat="43.22195" lon="5.44775">
        <ele>299.1</ele>
        <time>2012-05-12T09:20:50.080Z</time>
      </trkpt>
      <trkpt lat="43.22194" lon="5.44769">
        <ele>300.3</ele>
        <time>2012-05-12T09:20:53.077Z</time>
      </trkpt>
      <trkpt lat="43.22192" lon="5.44763">
        <ele>298.7</ele>
        <time>2012-05-12T09:20:57.077Z</time>
      </trkpt>
      <trkpt lat="43.22193" lon="5.44755">
        <ele>297</ele>
        <time>2012-05-12T09:21:01.076Z</time>
      </trkpt>
      <trkpt lat="43.22191" lon="5.44746">
        <ele>295.9</ele>
        <time>2012-05-12T09:21:04.075Z</time>
      </trkpt>
      <trkpt lat="43.22189" lon="5.4474">
        <ele>295.7</ele>
        <time>2012-05-12T09:21:06.795Z</time>
      </trkpt>
      <trkpt lat="43.22186" lon="5.44734">
        <ele>294.1</ele>
        <time>2012-05-12T09:21:12.073Z</time>
      </trkpt>
      <trkpt lat="43.22182" lon="5.44729">
        <ele>290.4</ele>
        <time>2012-05-12T09:21:17.092Z</time>
      </trkpt>
      <trkpt lat="43.22176" lon="5.44727">
        <ele>292.8</ele>
        <time>2012-05-12T09:21:21.073Z</time>
      </trkpt>
      <trkpt lat="43.2217" lon="5.44724">
        <ele>292.1</ele>
        <time>2012-05-12T09:21:25.074Z</time>
      </trkpt>
      <trkpt lat="43.22165" lon="5.44724">
        <ele>291.4</ele>
        <time>2012-05-12T09:21:28.159Z</time>
      </trkpt>
      <trkpt lat="43.2216" lon="5.44724">
        <ele>290.3</ele>
        <time>2012-05-12T09:21:32.080Z</time>
      </trkpt>
      <trkpt lat="43.22155" lon="5.44728">
        <ele>289.8</ele>
        <time>2012-05-12T09:21:36.082Z</time>
      </trkpt>
      <trkpt lat="43.22153" lon="5.44736">
        <ele>286.8</ele>
        <time>2012-05-12T09:21:39.090Z</time>
      </trkpt>
      <trkpt lat="43.22151" lon="5.44741">
        <ele>284.7</ele>
        <time>2012-05-12T09:21:42.080Z</time>
      </trkpt>
      <trkpt lat="43.22147" lon="5.44747">
        <ele>284.3</ele>
        <time>2012-05-12T09:21:44.088Z</time>
      </trkpt>
      <trkpt lat="43.22143" lon="5.44752">
        <ele>283.3</ele>
        <time>2012-05-12T09:21:47.078Z</time>
      </trkpt>
      <trkpt lat="43.2214" lon="5.44755">
        <ele>282.6</ele>
        <time>2012-05-12T09:21:53.091Z</time>
      </trkpt>
      <trkpt lat="43.22135" lon="5.44758">
        <ele>284.6</ele>
        <time>2012-05-12T09:21:57.087Z</time>
      </trkpt>
      <trkpt lat="43.22133" lon="5.44765">
        <ele>285.4</ele>
        <time>2012-05-12T09:22:01.079Z</time>
      </trkpt>
      <trkpt lat="43.22129" lon="5.44771">
        <ele>284.2</ele>
        <time>2012-05-12T09:22:05.074Z</time>
      </trkpt>
      <trkpt lat="43.22125" lon="5.44775">
        <ele>282.5</ele>
        <time>2012-05-12T09:22:10.087Z</time>
      </trkpt>
      <trkpt lat="43.2212" lon="5.44774">
        <ele>283.2</ele>
        <time>2012-05-12T09:22:14.078Z</time>
      </trkpt>
      <trkpt lat="43.22115" lon="5.44776">
        <ele>282</ele>
        <time>2012-05-12T09:22:17.073Z</time>
      </trkpt>
      <trkpt lat="43.2211" lon="5.44777">
        <ele>280.6</ele>
        <time>2012-05-12T09:22:20.075Z</time>
      </trkpt>
      <trkpt lat="43.22106" lon="5.44776">
        <ele>278.4</ele>
        <time>2012-05-12T09:22:25.075Z</time>
      </trkpt>
      <trkpt lat="43.22101" lon="5.44778">
        <ele>278.4</ele>
        <time>2012-05-12T09:22:29.160Z</time>
      </trkpt>
      <trkpt lat="43.22096" lon="5.4478">
        <ele>275.5</ele>
        <time>2012-05-12T09:22:34.080Z</time>
      </trkpt>
      <trkpt lat="43.22092" lon="5.44781">
        <ele>275.2</ele>
        <time>2012-05-12T09:22:36.091Z</time>
      </trkpt>
      <trkpt lat="43.22086" lon="5.44784">
        <ele>273.9</ele>
        <time>2012-05-12T09:22:39.076Z</time>
      </trkpt>
      <trkpt lat="43.22082" lon="5.44786">
        <ele>271.3</ele>
        <time>2012-05-12T09:22:44.089Z</time>
      </trkpt>
      <trkpt lat="43.22076" lon="5.44787">
        <ele>271.8</ele>
        <time>2012-05-12T09:22:48.090Z</time>
      </trkpt>
      <trkpt lat="43.22073" lon="5.44792">
        <ele>269.8</ele>
        <time>2012-05-12T09:22:51.091Z</time>
      </trkpt>
      <trkpt lat="43.22067" lon="5.44796">
        <ele>269.7</ele>
        <time>2012-05-12T09:22:54.082Z</time>
      </trkpt>
      <trkpt lat="43.22062" lon="5.448">
        <ele>269.4</ele>
        <time>2012-05-12T09:22:59.080Z</time>
      </trkpt>
      <trkpt lat="43.22058" lon="5.44804">
        <ele>268.4</ele>
        <time>2012-05-12T09:23:04.076Z</time>
      </trkpt>
      <trkpt lat="43.22053" lon="5.44808">
        <ele>268.4</ele>
        <time>2012-05-12T09:23:08.089Z</time>
      </trkpt>
      <trkpt lat="43.22048" lon="5.44813">
        <ele>268.8</ele>
        <time>2012-05-12T09:23:11.078Z</time>
      </trkpt>
      <trkpt lat="43.22044" lon="5.44817">
        <ele>268.6</ele>
        <time>2012-05-12T09:23:14.075Z</time>
      </trkpt>
      <trkpt lat="43.22039" lon="5.44816">
        <ele>267.4</ele>
        <time>2012-05-12T09:23:20.077Z</time>
      </trkpt>
      <trkpt lat="43.22035" lon="5.44811">
        <ele>267.9</ele>
        <time>2012-05-12T09:23:24.088Z</time>
      </trkpt>
      <trkpt lat="43.2203" lon="5.44805">
        <ele>268.9</ele>
        <time>2012-05-12T09:23:28.188Z</time>
      </trkpt>
      <trkpt lat="43.22025" lon="5.44801">
        <ele>267</ele>
        <time>2012-05-12T09:23:33.078Z</time>
      </trkpt>
      <trkpt lat="43.22021" lon="5.44797">
        <ele>268.6</ele>
        <time>2012-05-12T09:23:36.075Z</time>
      </trkpt>
      <trkpt lat="43.22016" lon="5.44794">
        <ele>268.4</ele>
        <time>2012-05-12T09:23:41.089Z</time>
      </trkpt>
      <trkpt lat="43.2201" lon="5.44791">
        <ele>268.5</ele>
        <time>2012-05-12T09:23:45.079Z</time>
      </trkpt>
      <trkpt lat="43.22006" lon="5.4479">
        <ele>266.3</ele>
        <time>2012-05-12T09:23:49.075Z</time>
      </trkpt>
      <trkpt lat="43.22" lon="5.44787">
        <ele>263.8</ele>
        <time>2012-05-12T09:23:55.088Z</time>
      </trkpt>
      <trkpt lat="43.21995" lon="5.44784">
        <ele>263</ele>
        <time>2012-05-12T09:23:59.090Z</time>
      </trkpt>
      <trkpt lat="43.21989" lon="5.44781">
        <ele>264.5</ele>
        <time>2012-05-12T09:24:03.075Z</time>
      </trkpt>
      <trkpt lat="43.21985" lon="5.44774">
        <ele>264.1</ele>
        <time>2012-05-12T09:24:06.078Z</time>
      </trkpt>
      <trkpt lat="43.21982" lon="5.44768">
        <ele>264.2</ele>
        <time>2012-05-12T09:24:09.073Z</time>
      </trkpt>
      <trkpt lat="43.21977" lon="5.44765">
        <ele>265.2</ele>
        <time>2012-05-12T09:24:16.074Z</time>
      </trkpt>
      <trkpt lat="43.21972" lon="5.44763">
        <ele>265.9</ele>
        <time>2012-05-12T09:24:19.075Z</time>
      </trkpt>
      <trkpt lat="43.21968" lon="5.44758">
        <ele>266.3</ele>
        <time>2012-05-12T09:24:22.079Z</time>
      </trkpt>
      <trkpt lat="43.21963" lon="5.44755">
        <ele>266.1</ele>
        <time>2012-05-12T09:24:26.080Z</time>
      </trkpt>
      <trkpt lat="43.21958" lon="5.44751">
        <ele>266.1</ele>
        <time>2012-05-12T09:24:29.155Z</time>
      </trkpt>
      <trkpt lat="43.21955" lon="5.44746">
        <ele>266.7</ele>
        <time>2012-05-12T09:24:32.074Z</time>
      </trkpt>
      <trkpt lat="43.2195" lon="5.44744">
        <ele>266.2</ele>
        <time>2012-05-12T09:24:35.073Z</time>
      </trkpt>
      <trkpt lat="43.21945" lon="5.44744">
        <ele>263</ele>
        <time>2012-05-12T09:24:39.078Z</time>
      </trkpt>
      <trkpt lat="43.21941" lon="5.4474">
        <ele>263.8</ele>
        <time>2012-05-12T09:24:43.089Z</time>
      </trkpt>
      <trkpt lat="43.21935" lon="5.44739">
        <ele>263.8</ele>
        <time>2012-05-12T09:24:50.089Z</time>
      </trkpt>
      <trkpt lat="43.2193" lon="5.44739">
        <ele>263.4</ele>
        <time>2012-05-12T09:24:53.083Z</time>
      </trkpt>
      <trkpt lat="43.21925" lon="5.44737">
        <ele>262.1</ele>
        <time>2012-05-12T09:24:56.089Z</time>
      </trkpt>
      <trkpt lat="43.21919" lon="5.44737">
        <ele>259.6</ele>
        <time>2012-05-12T09:25:00.086Z</time>
      </trkpt>
      <trkpt lat="43.21913" lon="5.44735">
        <ele>259.2</ele>
        <time>2012-05-12T09:25:03.089Z</time>
      </trkpt>
      <trkpt lat="43.21907" lon="5.44735">
        <ele>258.8</ele>
        <time>2012-05-12T09:25:06.090Z</time>
      </trkpt>
      <trkpt lat="43.21901" lon="5.44733">
        <ele>256.4</ele>
        <time>2012-05-12T09:25:09.076Z</time>
      </trkpt>
      <trkpt lat="43.21896" lon="5.44732">
        <ele>255.2</ele>
        <time>2012-05-12T09:25:13.149Z</time>
      </trkpt>
      <trkpt lat="43.21893" lon="5.44726">
        <ele>254.8</ele>
        <time>2012-05-12T09:25:20.094Z</time>
      </trkpt>
      <trkpt lat="43.2189" lon="5.44721">
        <ele>254.8</ele>
        <time>2012-05-12T09:25:23.092Z</time>
      </trkpt>
      <trkpt lat="43.21888" lon="5.44715">
        <ele>254</ele>
        <time>2012-05-12T09:25:26.078Z</time>
      </trkpt>
      <trkpt lat="43.21885" lon="5.44707">
        <ele>253.2</ele>
        <time>2012-05-12T09:25:30.334Z</time>
      </trkpt>
      <trkpt lat="43.21888" lon="5.447">
        <ele>254.2</ele>
        <time>2012-05-12T09:25:32.075Z</time>
      </trkpt>
      <trkpt lat="43.21887" lon="5.44693">
        <ele>254.1</ele>
        <time>2012-05-12T09:25:34.238Z</time>
      </trkpt>
      <trkpt lat="43.21886" lon="5.44685">
        <ele>253.1</ele>
        <time>2012-05-12T09:25:37.120Z</time>
      </trkpt>
      <trkpt lat="43.21887" lon="5.44679">
        <ele>254</ele>
        <time>2012-05-12T09:25:40.096Z</time>
      </trkpt>
      <trkpt lat="43.21889" lon="5.44672">
        <ele>252.1</ele>
        <time>2012-05-12T09:25:44.791Z</time>
      </trkpt>
      <trkpt lat="43.21889" lon="5.44665">
        <ele>252.1</ele>
        <time>2012-05-12T09:25:48.191Z</time>
      </trkpt>
      <trkpt lat="43.21891" lon="5.44658">
        <ele>251.7</ele>
        <time>2012-05-12T09:25:52.191Z</time>
      </trkpt>
      <trkpt lat="43.21893" lon="5.44649">
        <ele>252.5</ele>
        <time>2012-05-12T09:25:55.791Z</time>
      </trkpt>
      <trkpt lat="43.21894" lon="5.44641">
        <ele>254.2</ele>
        <time>2012-05-12T09:26:00.791Z</time>
      </trkpt>
      <trkpt lat="43.21893" lon="5.44633">
        <ele>252.4</ele>
        <time>2012-05-12T09:26:06.206Z</time>
      </trkpt>
      <trkpt lat="43.21894" lon="5.44625">
        <ele>253.9</ele>
        <time>2012-05-12T09:26:10.074Z</time>
      </trkpt>
      <trkpt lat="43.21898" lon="5.4462">
        <ele>253.4</ele>
        <time>2012-05-12T09:26:14.093Z</time>
      </trkpt>
      <trkpt lat="43.21901" lon="5.44615">
        <ele>253</ele>
        <time>2012-05-12T09:26:18.074Z</time>
      </trkpt>
      <trkpt lat="43.21902" lon="5.44607">
        <ele>253</ele>
        <time>2012-05-12T09:26:23.083Z</time>
      </trkpt>
      <trkpt lat="43.21905" lon="5.44601">
        <ele>254.4</ele>
        <time>2012-05-12T09:26:28.190Z</time>
      </trkpt>
      <trkpt lat="43.2191" lon="5.44597">
        <ele>254.4</ele>
        <time>2012-05-12T09:26:31.190Z</time>
      </trkpt>
      <trkpt lat="43.21915" lon="5.44587">
        <ele>251.8</ele>
        <time>2012-05-12T09:26:31.749Z</time>
      </trkpt>
      <trkpt lat="43.21907" lon="5.4459">
        <ele>250.9</ele>
        <time>2012-05-12T09:26:33.080Z</time>
      </trkpt>
      <trkpt lat="43.21913" lon="5.44589">
        <ele>252.8</ele>
        <time>2012-05-12T09:26:35.074Z</time>
      </trkpt>
      <trkpt lat="43.21915" lon="5.44583">
        <ele>254.1</ele>
        <time>2012-05-12T09:26:39.577Z</time>
      </trkpt>
      <trkpt lat="43.21927" lon="5.44571">
        <ele>256</ele>
        <time>2012-05-12T09:26:42.749Z</time>
      </trkpt>
      <trkpt lat="43.2193" lon="5.44566">
        <ele>254.9</ele>
        <time>2012-05-12T09:26:47.547Z</time>
      </trkpt>
      <trkpt lat="43.21934" lon="5.44561">
        <ele>254.1</ele>
        <time>2012-05-12T09:26:51.791Z</time>
      </trkpt>
      <trkpt lat="43.21937" lon="5.44555">
        <ele>252.6</ele>
        <time>2012-05-12T09:26:56.094Z</time>
      </trkpt>
      <trkpt lat="43.21944" lon="5.44546">
        <ele>252.9</ele>
        <time>2012-05-12T09:26:59.218Z</time>
      </trkpt>
      <trkpt lat="43.21944" lon="5.44539">
        <ele>252.5</ele>
        <time>2012-05-12T09:27:03.788Z</time>
      </trkpt>
      <trkpt lat="43.2194" lon="5.44535">
        <ele>252.6</ele>
        <time>2012-05-12T09:27:05.788Z</time>
      </trkpt>
      <trkpt lat="43.21935" lon="5.44533">
        <ele>253</ele>
        <time>2012-05-12T09:27:07.185Z</time>
      </trkpt>
      <trkpt lat="43.21933" lon="5.44525">
        <ele>252.1</ele>
        <time>2012-05-12T09:27:11.186Z</time>
      </trkpt>
      <trkpt lat="43.21929" lon="5.4452">
        <ele>248.9</ele>
        <time>2012-05-12T09:27:15.229Z</time>
      </trkpt>
      <trkpt lat="43.21927" lon="5.44513">
        <ele>248.7</ele>
        <time>2012-05-12T09:27:19.089Z</time>
      </trkpt>
      <trkpt lat="43.21924" lon="5.44509">
        <ele>245.9</ele>
        <time>2012-05-12T09:27:25.172Z</time>
      </trkpt>
      <trkpt lat="43.21923" lon="5.44501">
        <ele>246.2</ele>
        <time>2012-05-12T09:27:28.092Z</time>
      </trkpt>
      <trkpt lat="43.21924" lon="5.44495">
        <ele>245.8</ele>
        <time>2012-05-12T09:27:31.092Z</time>
      </trkpt>
      <trkpt lat="43.21927" lon="5.44487">
        <ele>246.3</ele>
        <time>2012-05-12T09:27:36.092Z</time>
      </trkpt>
      <trkpt lat="43.2193" lon="5.44476">
        <ele>242.4</ele>
        <time>2012-05-12T09:27:39.498Z</time>
      </trkpt>
      <trkpt lat="43.2193" lon="5.44469">
        <ele>243.2</ele>
        <time>2012-05-12T09:27:42.791Z</time>
      </trkpt>
      <trkpt lat="43.2193" lon="5.44461">
        <ele>242.1</ele>
        <time>2012-05-12T09:27:48.242Z</time>
      </trkpt>
      <trkpt lat="43.21932" lon="5.44454">
        <ele>241.5</ele>
        <time>2012-05-12T09:27:52.216Z</time>
      </trkpt>
      <trkpt lat="43.21934" lon="5.44447">
        <ele>242.7</ele>
        <time>2012-05-12T09:27:54.704Z</time>
      </trkpt>
      <trkpt lat="43.21933" lon="5.4444">
        <ele>240.6</ele>
        <time>2012-05-12T09:27:59.812Z</time>
      </trkpt>
      <trkpt lat="43.21936" lon="5.44433">
        <ele>238.4</ele>
        <time>2012-05-12T09:28:04.702Z</time>
      </trkpt>
      <trkpt lat="43.21939" lon="5.44425">
        <ele>239.1</ele>
        <time>2012-05-12T09:28:08.231Z</time>
      </trkpt>
      <trkpt lat="43.21944" lon="5.4442">
        <ele>240.7</ele>
        <time>2012-05-12T09:28:11.231Z</time>
      </trkpt>
      <trkpt lat="43.21947" lon="5.44416">
        <ele>240.1</ele>
        <time>2012-05-12T09:28:14.166Z</time>
      </trkpt>
      <trkpt lat="43.21951" lon="5.44412">
        <ele>240.1</ele>
        <time>2012-05-12T09:28:17.210Z</time>
      </trkpt>
      <trkpt lat="43.21955" lon="5.44408">
        <ele>239.3</ele>
        <time>2012-05-12T09:28:22.205Z</time>
      </trkpt>
      <trkpt lat="43.21959" lon="5.44404">
        <ele>239.2</ele>
        <time>2012-05-12T09:28:25.205Z</time>
      </trkpt>
      <trkpt lat="43.21964" lon="5.444">
        <ele>238.2</ele>
        <time>2012-05-12T09:28:29.181Z</time>
      </trkpt>
      <trkpt lat="43.21966" lon="5.44394">
        <ele>236.2</ele>
        <time>2012-05-12T09:28:31.567Z</time>
      </trkpt>
      <trkpt lat="43.21967" lon="5.44388">
        <ele>235.8</ele>
        <time>2012-05-12T09:28:35.686Z</time>
      </trkpt>
      <trkpt lat="43.21971" lon="5.44383">
        <ele>235.7</ele>
        <time>2012-05-12T09:28:40.686Z</time>
      </trkpt>
      <trkpt lat="43.21975" lon="5.44378">
        <ele>235.9</ele>
        <time>2012-05-12T09:28:43.686Z</time>
      </trkpt>
      <trkpt lat="43.21978" lon="5.44371">
        <ele>231.7</ele>
        <time>2012-05-12T09:28:48.186Z</time>
      </trkpt>
      <trkpt lat="43.21981" lon="5.44364">
        <ele>229.9</ele>
        <time>2012-05-12T09:28:52.103Z</time>
      </trkpt>
      <trkpt lat="43.21984" lon="5.4436">
        <ele>231.1</ele>
        <time>2012-05-12T09:28:55.103Z</time>
      </trkpt>
      <trkpt lat="43.21986" lon="5.44353">
        <ele>229.3</ele>
        <time>2012-05-12T09:28:57.605Z</time>
      </trkpt>
      <trkpt lat="43.2199" lon="5.44346">
        <ele>230</ele>
        <time>2012-05-12T09:29:00.499Z</time>
      </trkpt>
      <trkpt lat="43.21994" lon="5.44338">
        <ele>229.2</ele>
        <time>2012-05-12T09:29:04.236Z</time>
      </trkpt>
      <trkpt lat="43.21999" lon="5.44332">
        <ele>230.5</ele>
        <time>2012-05-12T09:29:07.743Z</time>
      </trkpt>
      <trkpt lat="43.22005" lon="5.44332">
        <ele>232.5</ele>
        <time>2012-05-12T09:29:13.198Z</time>
      </trkpt>
      <trkpt lat="43.22007" lon="5.44325">
        <ele>232.5</ele>
        <time>2012-05-12T09:29:16.076Z</time>
      </trkpt>
      <trkpt lat="43.22018" lon="5.44313">
        <ele>235.9</ele>
        <time>2012-05-12T09:29:19.646Z</time>
      </trkpt>
      <trkpt lat="43.2202" lon="5.44306">
        <ele>236.3</ele>
        <time>2012-05-12T09:29:28.281Z</time>
      </trkpt>
      <trkpt lat="43.22023" lon="5.443">
        <ele>238.5</ele>
        <time>2012-05-12T09:29:33.281Z</time>
      </trkpt>
      <trkpt lat="43.22025" lon="5.44293">
        <ele>237.5</ele>
        <time>2012-05-12T09:29:38.281Z</time>
      </trkpt>
      <trkpt lat="43.22032" lon="5.44283">
        <ele>236.1</ele>
        <time>2012-05-12T09:29:38.807Z</time>
      </trkpt>
      <trkpt lat="43.2203" lon="5.44276">
        <ele>235.2</ele>
        <time>2012-05-12T09:29:45.918Z</time>
      </trkpt>
      <trkpt lat="43.22034" lon="5.44272">
        <ele>237.1</ele>
        <time>2012-05-12T09:29:49.918Z</time>
      </trkpt>
      <trkpt lat="43.22035" lon="5.44266">
        <ele>237.3</ele>
        <time>2012-05-12T09:29:56.358Z</time>
      </trkpt>
      <trkpt lat="43.22036" lon="5.44259">
        <ele>237.5</ele>
        <time>2012-05-12T09:30:02.358Z</time>
      </trkpt>
      <trkpt lat="43.2204" lon="5.44253">
        <ele>236.5</ele>
        <time>2012-05-12T09:30:06.358Z</time>
      </trkpt>
      <trkpt lat="43.22044" lon="5.4425">
        <ele>237.1</ele>
        <time>2012-05-12T09:30:07.808Z</time>
      </trkpt>
      <trkpt lat="43.22048" lon="5.44242">
        <ele>236.6</ele>
        <time>2012-05-12T09:30:11.792Z</time>
      </trkpt>
      <trkpt lat="43.22045" lon="5.44234">
        <ele>231.9</ele>
        <time>2012-05-12T09:30:13.089Z</time>
      </trkpt>
      <trkpt lat="43.22048" lon="5.44228">
        <ele>232.2</ele>
        <time>2012-05-12T09:30:15.807Z</time>
      </trkpt>
      <trkpt lat="43.22052" lon="5.44224">
        <ele>232.5</ele>
        <time>2012-05-12T09:30:18.133Z</time>
      </trkpt>
      <trkpt lat="43.22056" lon="5.44219">
        <ele>232.5</ele>
        <time>2012-05-12T09:30:21.789Z</time>
      </trkpt>
      <trkpt lat="43.22053" lon="5.44213">
        <ele>232.3</ele>
        <time>2012-05-12T09:30:24.789Z</time>
      </trkpt>
      <trkpt lat="43.22054" lon="5.44207">
        <ele>232.3</ele>
        <time>2012-05-12T09:30:28.464Z</time>
      </trkpt>
      <trkpt lat="43.22056" lon="5.44198">
        <ele>230.9</ele>
        <time>2012-05-12T09:30:35.464Z</time>
      </trkpt>
      <trkpt lat="43.22059" lon="5.44192">
        <ele>229.9</ele>
        <time>2012-05-12T09:30:41.079Z</time>
      </trkpt>
      <trkpt lat="43.22058" lon="5.44186">
        <ele>227.7</ele>
        <time>2012-05-12T09:30:46.376Z</time>
      </trkpt>
      <trkpt lat="43.2206" lon="5.44179">
        <ele>228</ele>
        <time>2012-05-12T09:30:50.376Z</time>
      </trkpt>
      <trkpt lat="43.22062" lon="5.44172">
        <ele>228.1</ele>
        <time>2012-05-12T09:30:53.376Z</time>
      </trkpt>
      <trkpt lat="43.22065" lon="5.44167">
        <ele>227.7</ele>
        <time>2012-05-12T09:30:55.376Z</time>
      </trkpt>
      <trkpt lat="43.22067" lon="5.44161">
        <ele>229.2</ele>
        <time>2012-05-12T09:30:58.376Z</time>
      </trkpt>
      <trkpt lat="43.22065" lon="5.44153">
        <ele>230.1</ele>
        <time>2012-05-12T09:31:01.376Z</time>
      </trkpt>
      <trkpt lat="43.22067" lon="5.44148">
        <ele>230.2</ele>
        <time>2012-05-12T09:31:06.376Z</time>
      </trkpt>
      <trkpt lat="43.2207" lon="5.44141">
        <ele>230.6</ele>
        <time>2012-05-12T09:31:09.260Z</time>
      </trkpt>
      <trkpt lat="43.22068" lon="5.44134">
        <ele>229</ele>
        <time>2012-05-12T09:31:12.792Z</time>
      </trkpt>
      <trkpt lat="43.2207" lon="5.44127">
        <ele>227.6</ele>
        <time>2012-05-12T09:31:16.093Z</time>
      </trkpt>
      <trkpt lat="43.22071" lon="5.4412">
        <ele>230.7</ele>
        <time>2012-05-12T09:31:19.092Z</time>
      </trkpt>
      <trkpt lat="43.22074" lon="5.44116">
        <ele>230.7</ele>
        <time>2012-05-12T09:31:21.092Z</time>
      </trkpt>
      <trkpt lat="43.22079" lon="5.44112">
        <ele>229.7</ele>
        <time>2012-05-12T09:31:24.089Z</time>
      </trkpt>
      <trkpt lat="43.22083" lon="5.44104">
        <ele>227.5</ele>
        <time>2012-05-12T09:31:28.176Z</time>
      </trkpt>
      <trkpt lat="43.22088" lon="5.44104">
        <ele>226.4</ele>
        <time>2012-05-12T09:31:31.176Z</time>
      </trkpt>
      <trkpt lat="43.22093" lon="5.44098">
        <ele>226.5</ele>
        <time>2012-05-12T09:31:34.176Z</time>
      </trkpt>
      <trkpt lat="43.22097" lon="5.44094">
        <ele>225.8</ele>
        <time>2012-05-12T09:31:37.176Z</time>
      </trkpt>
      <trkpt lat="43.221" lon="5.44089">
        <ele>223</ele>
        <time>2012-05-12T09:31:38.662Z</time>
      </trkpt>
      <trkpt lat="43.22104" lon="5.44083">
        <ele>223</ele>
        <time>2012-05-12T09:31:47.760Z</time>
      </trkpt>
      <trkpt lat="43.221" lon="5.44078">
        <ele>222.2</ele>
        <time>2012-05-12T09:31:52.787Z</time>
      </trkpt>
      <trkpt lat="43.22106" lon="5.44075">
        <ele>222.5</ele>
        <time>2012-05-12T09:31:58.336Z</time>
      </trkpt>
      <trkpt lat="43.22111" lon="5.44075">
        <ele>222.5</ele>
        <time>2012-05-12T09:31:59.336Z</time>
      </trkpt>
      <trkpt lat="43.22116" lon="5.44072">
        <ele>223.2</ele>
        <time>2012-05-12T09:32:01.336Z</time>
      </trkpt>
      <trkpt lat="43.2212" lon="5.44069">
        <ele>223.4</ele>
        <time>2012-05-12T09:32:03.336Z</time>
      </trkpt>
      <trkpt lat="43.22124" lon="5.44067">
        <ele>224.2</ele>
        <time>2012-05-12T09:32:06.336Z</time>
      </trkpt>
      <trkpt lat="43.2213" lon="5.44064">
        <ele>225.1</ele>
        <time>2012-05-12T09:32:09.336Z</time>
      </trkpt>
      <trkpt lat="43.22135" lon="5.44061">
        <ele>227</ele>
        <time>2012-05-12T09:32:13.336Z</time>
      </trkpt>
      <trkpt lat="43.2214" lon="5.44057">
        <ele>226.3</ele>
        <time>2012-05-12T09:32:17.336Z</time>
      </trkpt>
      <trkpt lat="43.22146" lon="5.44052">
        <ele>225.7</ele>
        <time>2012-05-12T09:32:20.336Z</time>
      </trkpt>
      <trkpt lat="43.2215" lon="5.44048">
        <ele>225.2</ele>
        <time>2012-05-12T09:32:23.336Z</time>
      </trkpt>
      <trkpt lat="43.22153" lon="5.44044">
        <ele>225.8</ele>
        <time>2012-05-12T09:32:26.336Z</time>
      </trkpt>
      <trkpt lat="43.22159" lon="5.4404">
        <ele>224.8</ele>
        <time>2012-05-12T09:32:30.281Z</time>
      </trkpt>
      <trkpt lat="43.22163" lon="5.44034">
        <ele>223.1</ele>
        <time>2012-05-12T09:32:33.795Z</time>
      </trkpt>
      <trkpt lat="43.22167" lon="5.4403">
        <ele>224.2</ele>
        <time>2012-05-12T09:32:37.795Z</time>
      </trkpt>
      <trkpt lat="43.22171" lon="5.44026">
        <ele>224.4</ele>
        <time>2012-05-12T09:32:43.987Z</time>
      </trkpt>
      <trkpt lat="43.22176" lon="5.44023">
        <ele>223.9</ele>
        <time>2012-05-12T09:32:48.987Z</time>
      </trkpt>
      <trkpt lat="43.22181" lon="5.44019">
        <ele>223.4</ele>
        <time>2012-05-12T09:32:58.987Z</time>
      </trkpt>
      <trkpt lat="43.22186" lon="5.44016">
        <ele>223.9</ele>
        <time>2012-05-12T09:33:02.987Z</time>
      </trkpt>
      <trkpt lat="43.22192" lon="5.44014">
        <ele>224.2</ele>
        <time>2012-05-12T09:33:04.987Z</time>
      </trkpt>
      <trkpt lat="43.22197" lon="5.44014">
        <ele>224.1</ele>
        <time>2012-05-12T09:33:10.987Z</time>
      </trkpt>
      <trkpt lat="43.22202" lon="5.44012">
        <ele>224.5</ele>
        <time>2012-05-12T09:33:13.987Z</time>
      </trkpt>
      <trkpt lat="43.22208" lon="5.44012">
        <ele>225.5</ele>
        <time>2012-05-12T09:33:16.987Z</time>
      </trkpt>
      <trkpt lat="43.22214" lon="5.4401">
        <ele>225</ele>
        <time>2012-05-12T09:33:25.987Z</time>
      </trkpt>
      <trkpt lat="43.2222" lon="5.44003">
        <ele>224.4</ele>
        <time>2012-05-12T09:33:31.179Z</time>
      </trkpt>
      <trkpt lat="43.22226" lon="5.44">
        <ele>223.3</ele>
        <time>2012-05-12T09:33:33.674Z</time>
      </trkpt>
      <trkpt lat="43.22233" lon="5.44001">
        <ele>219.5</ele>
        <time>2012-05-12T09:33:36.674Z</time>
      </trkpt>
      <trkpt lat="43.22238" lon="5.43996">
        <ele>217</ele>
        <time>2012-05-12T09:33:40.216Z</time>
      </trkpt>
      <trkpt lat="43.22243" lon="5.43995">
        <ele>217.2</ele>
        <time>2012-05-12T09:33:55.216Z</time>
      </trkpt>
      <trkpt lat="43.22248" lon="5.43995">
        <ele>217.9</ele>
        <time>2012-05-12T09:33:57.216Z</time>
      </trkpt>
      <trkpt lat="43.22253" lon="5.43994">
        <ele>218</ele>
        <time>2012-05-12T09:34:04.216Z</time>
      </trkpt>
      <trkpt lat="43.22258" lon="5.43992">
        <ele>218.6</ele>
        <time>2012-05-12T09:34:06.216Z</time>
      </trkpt>
      <trkpt lat="43.22264" lon="5.4399">
        <ele>218.3</ele>
        <time>2012-05-12T09:34:07.216Z</time>
      </trkpt>
      <trkpt lat="43.22269" lon="5.43987">
        <ele>219</ele>
        <time>2012-05-12T09:34:08.216Z</time>
      </trkpt>
      <trkpt lat="43.22276" lon="5.43981">
        <ele>219.7</ele>
        <time>2012-05-12T09:34:10.216Z</time>
      </trkpt>
      <trkpt lat="43.22282" lon="5.43978">
        <ele>219.7</ele>
        <time>2012-05-12T09:34:12.216Z</time>
      </trkpt>
      <trkpt lat="43.22286" lon="5.43974">
        <ele>218.4</ele>
        <time>2012-05-12T09:34:15.216Z</time>
      </trkpt>
      <trkpt lat="43.2229" lon="5.4397">
        <ele>218.5</ele>
        <time>2012-05-12T09:34:17.216Z</time>
      </trkpt>
      <trkpt lat="43.22295" lon="5.43966">
        <ele>220.2</ele>
        <time>2012-05-12T09:34:20.216Z</time>
      </trkpt>
      <trkpt lat="43.223" lon="5.43963">
        <ele>219.6</ele>
        <time>2012-05-12T09:34:22.216Z</time>
      </trkpt>
      <trkpt lat="43.22305" lon="5.43958">
        <ele>220.8</ele>
        <time>2012-05-12T09:34:28.116Z</time>
      </trkpt>
      <trkpt lat="43.2231" lon="5.43956">
        <ele>219.6</ele>
        <time>2012-05-12T09:34:30.116Z</time>
      </trkpt>
      <trkpt lat="43.22317" lon="5.43955">
        <ele>218.8</ele>
        <time>2012-05-12T09:34:39.116Z</time>
      </trkpt>
      <trkpt lat="43.22322" lon="5.43949">
        <ele>219.6</ele>
        <time>2012-05-12T09:34:44.116Z</time>
      </trkpt>
      <trkpt lat="43.22326" lon="5.43942">
        <ele>221</ele>
        <time>2012-05-12T09:34:47.116Z</time>
      </trkpt>
      <trkpt lat="43.2233" lon="5.43937">
        <ele>222.3</ele>
        <time>2012-05-12T09:34:50.116Z</time>
      </trkpt>
      <trkpt lat="43.22336" lon="5.43931">
        <ele>221.4</ele>
        <time>2012-05-12T09:34:53.116Z</time>
      </trkpt>
      <trkpt lat="43.2234" lon="5.43927">
        <ele>221.7</ele>
        <time>2012-05-12T09:34:55.116Z</time>
      </trkpt>
      <trkpt lat="43.22345" lon="5.43922">
        <ele>220.5</ele>
        <time>2012-05-12T09:35:00.116Z</time>
      </trkpt>
      <trkpt lat="43.22347" lon="5.43916">
        <ele>219.3</ele>
        <time>2012-05-12T09:35:04.116Z</time>
      </trkpt>
      <trkpt lat="43.2235" lon="5.43911">
        <ele>220.2</ele>
        <time>2012-05-12T09:35:06.601Z</time>
      </trkpt>
      <trkpt lat="43.22356" lon="5.43903">
        <ele>219</ele>
        <time>2012-05-12T09:35:10.691Z</time>
      </trkpt>
      <trkpt lat="43.2236" lon="5.439">
        <ele>218.9</ele>
        <time>2012-05-12T09:35:15.691Z</time>
      </trkpt>
      <trkpt lat="43.22363" lon="5.43893">
        <ele>220.5</ele>
        <time>2012-05-12T09:35:20.691Z</time>
      </trkpt>
      <trkpt lat="43.22366" lon="5.43887">
        <ele>219.5</ele>
        <time>2012-05-12T09:35:24.691Z</time>
      </trkpt>
      <trkpt lat="43.2237" lon="5.43884">
        <ele>221.1</ele>
        <time>2012-05-12T09:35:28.157Z</time>
      </trkpt>
      <trkpt lat="43.22377" lon="5.43873">
        <ele>217</ele>
        <time>2012-05-12T09:35:30.602Z</time>
      </trkpt>
      <trkpt lat="43.22382" lon="5.43868">
        <ele>213.7</ele>
        <time>2012-05-12T09:35:40.088Z</time>
      </trkpt>
      <trkpt lat="43.22386" lon="5.43866">
        <ele>213.2</ele>
        <time>2012-05-12T09:35:44.186Z</time>
      </trkpt>
      <trkpt lat="43.22392" lon="5.43864">
        <ele>213.5</ele>
        <time>2012-05-12T09:35:48.186Z</time>
      </trkpt>
      <trkpt lat="43.22396" lon="5.43862">
        <ele>213.1</ele>
        <time>2012-05-12T09:35:51.186Z</time>
      </trkpt>
      <trkpt lat="43.22402" lon="5.4386">
        <ele>212.7</ele>
        <time>2012-05-12T09:35:54.186Z</time>
      </trkpt>
      <trkpt lat="43.22406" lon="5.43856">
        <ele>212.8</ele>
        <time>2012-05-12T09:36:01.186Z</time>
      </trkpt>
      <trkpt lat="43.2241" lon="5.43856">
        <ele>214.3</ele>
        <time>2012-05-12T09:36:15.684Z</time>
      </trkpt>
      <trkpt lat="43.22418" lon="5.43853">
        <ele>214</ele>
        <time>2012-05-12T09:36:17.684Z</time>
      </trkpt>
      <trkpt lat="43.22426" lon="5.43849">
        <ele>213.9</ele>
        <time>2012-05-12T09:36:19.684Z</time>
      </trkpt>
      <trkpt lat="43.22433" lon="5.43842">
        <ele>214.6</ele>
        <time>2012-05-12T09:36:21.684Z</time>
      </trkpt>
      <trkpt lat="43.22438" lon="5.43839">
        <ele>213.3</ele>
        <time>2012-05-12T09:36:23.684Z</time>
      </trkpt>
      <trkpt lat="43.22443" lon="5.43834">
        <ele>214.6</ele>
        <time>2012-05-12T09:36:27.684Z</time>
      </trkpt>
      <trkpt lat="43.22447" lon="5.4383">
        <ele>214.2</ele>
        <time>2012-05-12T09:36:32.684Z</time>
      </trkpt>
      <trkpt lat="43.22451" lon="5.43827">
        <ele>214.4</ele>
        <time>2012-05-12T09:36:34.684Z</time>
      </trkpt>
      <trkpt lat="43.22455" lon="5.43823">
        <ele>215.4</ele>
        <time>2012-05-12T09:36:38.078Z</time>
      </trkpt>
      <trkpt lat="43.22458" lon="5.43817">
        <ele>215.4</ele>
        <time>2012-05-12T09:36:44.103Z</time>
      </trkpt>
      <trkpt lat="43.22458" lon="5.43811">
        <ele>214.3</ele>
        <time>2012-05-12T09:36:47.103Z</time>
      </trkpt>
      <trkpt lat="43.22462" lon="5.43809">
        <ele>213.4</ele>
        <time>2012-05-12T09:36:51.103Z</time>
      </trkpt>
      <trkpt lat="43.22467" lon="5.43808">
        <ele>213.5</ele>
        <time>2012-05-12T09:36:55.103Z</time>
      </trkpt>
      <trkpt lat="43.22472" lon="5.43808">
        <ele>213.9</ele>
        <time>2012-05-12T09:37:01.103Z</time>
      </trkpt>
      <trkpt lat="43.22477" lon="5.4381">
        <ele>213.9</ele>
        <time>2012-05-12T09:37:08.103Z</time>
      </trkpt>
      <trkpt lat="43.22481" lon="5.43811">
        <ele>212.4</ele>
        <time>2012-05-12T09:37:17.103Z</time>
      </trkpt>
      <trkpt lat="43.22486" lon="5.43816">
        <ele>210.9</ele>
        <time>2012-05-12T09:37:21.103Z</time>
      </trkpt>
      <trkpt lat="43.22493" lon="5.43817">
        <ele>209.6</ele>
        <time>2012-05-12T09:37:21.585Z</time>
      </trkpt>
      <trkpt lat="43.22502" lon="5.43814">
        <ele>209</ele>
        <time>2012-05-12T09:37:27.084Z</time>
      </trkpt>
      <trkpt lat="43.2251" lon="5.43811">
        <ele>208.7</ele>
        <time>2012-05-12T09:37:30.471Z</time>
      </trkpt>
      <trkpt lat="43.22513" lon="5.43806">
        <ele>208.6</ele>
        <time>2012-05-12T09:37:33.085Z</time>
      </trkpt>
      <trkpt lat="43.2252" lon="5.43808">
        <ele>208.7</ele>
        <time>2012-05-12T09:37:38.095Z</time>
      </trkpt>
      <trkpt lat="43.22525" lon="5.43808">
        <ele>209.9</ele>
        <time>2012-05-12T09:37:42.225Z</time>
      </trkpt>
      <trkpt lat="43.2253" lon="5.43808">
        <ele>211.7</ele>
        <time>2012-05-12T09:37:47.225Z</time>
      </trkpt>
      <trkpt lat="43.22535" lon="5.43808">
        <ele>211.5</ele>
        <time>2012-05-12T09:37:53.225Z</time>
      </trkpt>
      <trkpt lat="43.2254" lon="5.4381">
        <ele>211.6</ele>
        <time>2012-05-12T09:37:58.225Z</time>
      </trkpt>
      <trkpt lat="43.22544" lon="5.4381">
        <ele>211.5</ele>
        <time>2012-05-12T09:38:01.225Z</time>
      </trkpt>
      <trkpt lat="43.22549" lon="5.43812">
        <ele>210.8</ele>
        <time>2012-05-12T09:38:04.225Z</time>
      </trkpt>
      <trkpt lat="43.22554" lon="5.4381">
        <ele>211.5</ele>
        <time>2012-05-12T09:38:09.225Z</time>
      </trkpt>
      <trkpt lat="43.22559" lon="5.43809">
        <ele>212.4</ele>
        <time>2012-05-12T09:38:43.546Z</time>
      </trkpt>
      <trkpt lat="43.22565" lon="5.43813">
        <ele>212.5</ele>
        <time>2012-05-12T09:38:46.546Z</time>
      </trkpt>
      <trkpt lat="43.22583" lon="5.43809">
        <ele>211.8</ele>
        <time>2012-05-12T09:38:49.546Z</time>
      </trkpt>
      <trkpt lat="43.22588" lon="5.43807">
        <ele>210.5</ele>
        <time>2012-05-12T09:38:50.546Z</time>
      </trkpt>
      <trkpt lat="43.22592" lon="5.43804">
        <ele>209.9</ele>
        <time>2012-05-12T09:38:56.546Z</time>
      </trkpt>
      <trkpt lat="43.22598" lon="5.43803">
        <ele>210.4</ele>
        <time>2012-05-12T09:38:59.546Z</time>
      </trkpt>
      <trkpt lat="43.22604" lon="5.43801">
        <ele>210.7</ele>
        <time>2012-05-12T09:39:23.986Z</time>
      </trkpt>
      <trkpt lat="43.22609" lon="5.43798">
        <ele>211.1</ele>
        <time>2012-05-12T09:39:25.986Z</time>
      </trkpt>
      <trkpt lat="43.22614" lon="5.43794">
        <ele>211.2</ele>
        <time>2012-05-12T09:39:29.789Z</time>
      </trkpt>
      <trkpt lat="43.2262" lon="5.43792">
        <ele>211.6</ele>
        <time>2012-05-12T09:39:32.789Z</time>
      </trkpt>
      <trkpt lat="43.22625" lon="5.43791">
        <ele>211.9</ele>
        <time>2012-05-12T09:39:34.789Z</time>
      </trkpt>
      <trkpt lat="43.2263" lon="5.43788">
        <ele>212.7</ele>
        <time>2012-05-12T09:39:36.789Z</time>
      </trkpt>
      <trkpt lat="43.22647" lon="5.43786">
        <ele>212.8</ele>
        <time>2012-05-12T09:39:39.789Z</time>
      </trkpt>
      <trkpt lat="43.22651" lon="5.43783">
        <ele>213.2</ele>
        <time>2012-05-12T09:39:41.789Z</time>
      </trkpt>
      <trkpt lat="43.22657" lon="5.43782">
        <ele>213.4</ele>
        <time>2012-05-12T09:39:42.789Z</time>
      </trkpt>
      <trkpt lat="43.22662" lon="5.43782">
        <ele>212.6</ele>
        <time>2012-05-12T09:39:44.309Z</time>
      </trkpt>
      <trkpt lat="43.22667" lon="5.43778">
        <ele>211.6</ele>
        <time>2012-05-12T09:39:46.889Z</time>
      </trkpt>
      <trkpt lat="43.22671" lon="5.43773">
        <ele>209.5</ele>
        <time>2012-05-12T09:39:51.889Z</time>
      </trkpt>
      <trkpt lat="43.22676" lon="5.43769">
        <ele>210.1</ele>
        <time>2012-05-12T09:39:54.889Z</time>
      </trkpt>
      <trkpt lat="43.2268" lon="5.43766">
        <ele>207.5</ele>
        <time>2012-05-12T09:39:58.488Z</time>
      </trkpt>
      <trkpt lat="43.22682" lon="5.4376">
        <ele>206.4</ele>
        <time>2012-05-12T09:40:01.488Z</time>
      </trkpt>
      <trkpt lat="43.22686" lon="5.43757">
        <ele>205.4</ele>
        <time>2012-05-12T09:40:05.548Z</time>
      </trkpt>
      <trkpt lat="43.2269" lon="5.43754">
        <ele>206.1</ele>
        <time>2012-05-12T09:40:08.548Z</time>
      </trkpt>
      <trkpt lat="43.22695" lon="5.43752">
        <ele>206.9</ele>
        <time>2012-05-12T09:40:10.548Z</time>
      </trkpt>
      <trkpt lat="43.22702" lon="5.43748">
        <ele>208.8</ele>
        <time>2012-05-12T09:40:13.548Z</time>
      </trkpt>
      <trkpt lat="43.22706" lon="5.43745">
        <ele>207.6</ele>
        <time>2012-05-12T09:40:17.410Z</time>
      </trkpt>
      <trkpt lat="43.22711" lon="5.43744">
        <ele>208.7</ele>
        <time>2012-05-12T09:40:20.800Z</time>
      </trkpt>
      <trkpt lat="43.22714" lon="5.4374">
        <ele>209</ele>
        <time>2012-05-12T09:40:22.800Z</time>
      </trkpt>
      <trkpt lat="43.2272" lon="5.43739">
        <ele>208.2</ele>
        <time>2012-05-12T09:40:26.800Z</time>
      </trkpt>
      <trkpt lat="43.22724" lon="5.43736">
        <ele>207.3</ele>
        <time>2012-05-12T09:40:30.800Z</time>
      </trkpt>
      <trkpt lat="43.22728" lon="5.43733">
        <ele>205.9</ele>
        <time>2012-05-12T09:40:33.800Z</time>
      </trkpt>
      <trkpt lat="43.22732" lon="5.43729">
        <ele>205.7</ele>
        <time>2012-05-12T09:40:45.234Z</time>
      </trkpt>
      <trkpt lat="43.2274" lon="5.43726">
        <ele>200.8</ele>
        <time>2012-05-12T09:40:48.088Z</time>
      </trkpt>
      <trkpt lat="43.22747" lon="5.43725">
        <ele>200.7</ele>
        <time>2012-05-12T09:40:51.792Z</time>
      </trkpt>
      <trkpt lat="43.22751" lon="5.43721">
        <ele>200.8</ele>
        <time>2012-05-12T09:40:56.218Z</time>
      </trkpt>
      <trkpt lat="43.22756" lon="5.43716">
        <ele>199.1</ele>
        <time>2012-05-12T09:41:01.806Z</time>
      </trkpt>
      <trkpt lat="43.22761" lon="5.43716">
        <ele>197.3</ele>
        <time>2012-05-12T09:41:03.806Z</time>
      </trkpt>
      <trkpt lat="43.22766" lon="5.43715">
        <ele>195.9</ele>
        <time>2012-05-12T09:41:07.806Z</time>
      </trkpt>
      <trkpt lat="43.22772" lon="5.43716">
        <ele>198.3</ele>
        <time>2012-05-12T09:41:14.222Z</time>
      </trkpt>
      <trkpt lat="43.22777" lon="5.43716">
        <ele>197</ele>
        <time>2012-05-12T09:41:16.709Z</time>
      </trkpt>
      <trkpt lat="43.22782" lon="5.43718">
        <ele>196.3</ele>
        <time>2012-05-12T09:41:19.088Z</time>
      </trkpt>
      <trkpt lat="43.22785" lon="5.43724">
        <ele>196.5</ele>
        <time>2012-05-12T09:41:22.087Z</time>
      </trkpt>
      <trkpt lat="43.2279" lon="5.4372">
        <ele>192.1</ele>
        <time>2012-05-12T09:41:24.074Z</time>
      </trkpt>
      <trkpt lat="43.22797" lon="5.43718">
        <ele>192.4</ele>
        <time>2012-05-12T09:41:28.168Z</time>
      </trkpt>
      <trkpt lat="43.22804" lon="5.43717">
        <ele>192</ele>
        <time>2012-05-12T09:41:31.119Z</time>
      </trkpt>
      <trkpt lat="43.22808" lon="5.43716">
        <ele>192.5</ele>
        <time>2012-05-12T09:41:34.119Z</time>
      </trkpt>
      <trkpt lat="43.22817" lon="5.43719">
        <ele>193.1</ele>
        <time>2012-05-12T09:41:52.434Z</time>
      </trkpt>
      <trkpt lat="43.22824" lon="5.43719">
        <ele>194.6</ele>
        <time>2012-05-12T09:41:53.434Z</time>
      </trkpt>
      <trkpt lat="43.22829" lon="5.43716">
        <ele>195.1</ele>
        <time>2012-05-12T09:41:54.434Z</time>
      </trkpt>
      <trkpt lat="43.22834" lon="5.4372">
        <ele>194.4</ele>
        <time>2012-05-12T09:41:56.073Z</time>
      </trkpt>
      <trkpt lat="43.22839" lon="5.4372">
        <ele>194.7</ele>
        <time>2012-05-12T09:41:59.178Z</time>
      </trkpt>
      <trkpt lat="43.22846" lon="5.43718">
        <ele>193.8</ele>
        <time>2012-05-12T09:42:02.178Z</time>
      </trkpt>
      <trkpt lat="43.2285" lon="5.43711">
        <ele>188.5</ele>
        <time>2012-05-12T09:42:05.606Z</time>
      </trkpt>
      <trkpt lat="43.22856" lon="5.43709">
        <ele>188.5</ele>
        <time>2012-05-12T09:42:07.114Z</time>
      </trkpt>
      <trkpt lat="43.22862" lon="5.4371">
        <ele>191.9</ele>
        <time>2012-05-12T09:42:10.689Z</time>
      </trkpt>
      <trkpt lat="43.2287" lon="5.43702">
        <ele>190.4</ele>
        <time>2012-05-12T09:42:19.615Z</time>
      </trkpt>
      <trkpt lat="43.22876" lon="5.43707">
        <ele>191.2</ele>
        <time>2012-05-12T09:42:29.754Z</time>
      </trkpt>
      <trkpt lat="43.22881" lon="5.4371">
        <ele>192.8</ele>
        <time>2012-05-12T09:42:32.754Z</time>
      </trkpt>
      <trkpt lat="43.22887" lon="5.43713">
        <ele>194</ele>
        <time>2012-05-12T09:42:37.211Z</time>
      </trkpt>
      <trkpt lat="43.22895" lon="5.43715">
        <ele>195.8</ele>
        <time>2012-05-12T09:42:41.390Z</time>
      </trkpt>
      <trkpt lat="43.22902" lon="5.43715">
        <ele>197.8</ele>
        <time>2012-05-12T09:42:45.078Z</time>
      </trkpt>
      <trkpt lat="43.22907" lon="5.43714">
        <ele>197.3</ele>
        <time>2012-05-12T09:42:48.241Z</time>
      </trkpt>
      <trkpt lat="43.22917" lon="5.43714">
        <ele>197.4</ele>
        <time>2012-05-12T09:42:53.800Z</time>
      </trkpt>
      <trkpt lat="43.22924" lon="5.43713">
        <ele>200.8</ele>
        <time>2012-05-12T09:42:56.148Z</time>
      </trkpt>
      <trkpt lat="43.22928" lon="5.43711">
        <ele>201.5</ele>
        <time>2012-05-12T09:42:58.299Z</time>
      </trkpt>
      <trkpt lat="43.22937" lon="5.43704">
        <ele>200.9</ele>
        <time>2012-05-12T09:43:00.143Z</time>
      </trkpt>
      <trkpt lat="43.22945" lon="5.43705">
        <ele>202.1</ele>
        <time>2012-05-12T09:43:03.774Z</time>
      </trkpt>
      <trkpt lat="43.2295" lon="5.43707">
        <ele>203.3</ele>
        <time>2012-05-12T09:43:06.382Z</time>
      </trkpt>
      <trkpt lat="43.22956" lon="5.43705">
        <ele>201.9</ele>
        <time>2012-05-12T09:43:19.267Z</time>
      </trkpt>
      <trkpt lat="43.22962" lon="5.43707">
        <ele>199.2</ele>
        <time>2012-05-12T09:43:30.782Z</time>
      </trkpt>
      <trkpt lat="43.22969" lon="5.43709">
        <ele>200</ele>
        <time>2012-05-12T09:43:32.782Z</time>
      </trkpt>
      <trkpt lat="43.22977" lon="5.4371">
        <ele>197.6</ele>
        <time>2012-05-12T09:43:43.471Z</time>
      </trkpt>
      <trkpt lat="43.22981" lon="5.43711">
        <ele>198</ele>
        <time>2012-05-12T09:43:51.774Z</time>
      </trkpt>
      <trkpt lat="43.22987" lon="5.43708">
        <ele>198</ele>
        <time>2012-05-12T09:43:53.774Z</time>
      </trkpt>
      <trkpt lat="43.22992" lon="5.43707">
        <ele>196.9</ele>
        <time>2012-05-12T09:43:55.076Z</time>
      </trkpt>
      <trkpt lat="43.22998" lon="5.43709">
        <ele>194.2</ele>
        <time>2012-05-12T09:43:57.076Z</time>
      </trkpt>
      <trkpt lat="43.23003" lon="5.43708">
        <ele>193.6</ele>
        <time>2012-05-12T09:44:00.082Z</time>
      </trkpt>
    </trkseg>
  </trk>
</gpx>